GFSMW_700_rhum_000.txt.gz
RH
15 16 17 16 17 18 19 18 18 17 21 21 27 30 42 51 52 53 54 55 55 50 31 40 32 28 26 21 18 20 23 26 28 28 27 28 27 26 26 26 28 28 26
20 17 20 23 24 19 13 10 8 13 20 22 26 32 32 38 50 51 48 51 54 51 39 44 44 38 29 26 23 21 23 26 29 28 26 25 25 24 26 27 26 26 28
22 24 25 25 24 24 24 23 16 10 8 16 19 31 35 33 37 44 45 50 47 46 45 40 38 42 40 35 30 27 25 25 30 28 29 30 30 30 27 25 25 26 26
27 27 26 25 25 24 23 22 20 15 14 15 16 27 36 36 39 43 44 48 46 46 42 40 36 40 38 34 32 31 25 25 30 30 31 33 33 33 32 29 27 26 28
28 27 26 25 25 24 23 22 22 20 19 22 29 36 40 40 40 39 41 44 45 42 41 34 35 35 37 35 32 32 26 26 32 30 32 34 35 35 36 33 30 30 27
28 29 29 29 28 27 26 25 23 22 21 22 28 35 37 34 30 29 29 28 28 28 28 29 30 32 32 31 32 30 24 27 32 32 34 36 37 37 38 38 36 33 32
30 31 32 34 36 37 39 40 34 26 25 25 26 26 27 27 26 26 25 25 25 27 30 31 30 29 28 28 27 27 28 31 33 35 36 38 38 39 39 39 39 37 35
32 32 33 35 38 36 29 29 35 42 40 35 33 31 29 28 28 29 30 31 31 31 30 26 26 24 24 27 35 37 36 35 36 35 34 36 36 38 40 40 41 42 40
32 33 34 33 28 26 22 18 18 18 23 28 35 41 43 42 42 40 40 43 43 42 41 40 37 39 40 38 39 36 35 36 36 36 38 40 40 39 42 44 44 40 39
33 35 34 32 34 30 20 20 25 29 30 30 30 29 28 31 36 37 37 42 48 50 51 50 47 47 48 47 46 45 45 45 44 44 43 43 43 42 40 43 38 38 41
35 36 36 37 36 24 24 28 33 36 36 36 37 39 40 39 40 41 42 40 38 37 40 48 54 57 60 62 62 61 60 56 56 57 60 62 59 51 48 46 45 52 47
35 36 38 37 34 35 34 38 40 41 43 46 47 45 43 41 40 39 38 45 49 48 47 43 39 39 46 53 62 66 67 68 68 66 66 73 73 72 76 87 83 90 89
44 46 48 41 41 45 47 46 50 54 55 57 53 47 43 42 40 38 35 33 33 40 38 35 37 37 40 49 53 54 55 58 62 70 70 65 65 67 78 77 79 68 68
44 49 47 46 53 59 53 56 59 61 59 52 50 50 48 46 44 42 40 39 38 36 34 32 29 28 28 28 27 38 42 42 54 60 65 71 74 76 71 55 64 66 67
49 48 52 60 66 62 66 66 64 61 58 56 55 54 51 48 47 45 45 46 47 45 43 40 38 36 32 27 33 38 40 42 41 44 61 71 76 75 78 66 61 75 77
49 50 53 58 61 65 65 66 67 65 64 67 68 62 55 52 48 44 41 39 37 36 35 35 36 37 38 38 38 41 40 38 42 48 52 67 81 86 88 78 64 65 79
57 54 57 68 70 70 69 69 71 71 70 66 61 58 54 50 46 42 38 35 31 28 28 31 34 38 42 46 48 47 46 44 47 46 50 63 66 76 93 92 81 63 64
60 61 77 75 70 72 77 84 86 79 70 64 58 52 47 43 37 29 20 14 10 12 14 21 30 38 47 54 61 59 59 53 48 48 48 49 59 69 87 99 93 82 65
72 77 78 76 83 87 94 92 80 70 64 56 48 36 19 7 1 0 0 0 1 4 10 19 32 47 60 65 64 64 61 60 55 49 44 44 46 57 59 66 88 89 81
84 84 88 93 97 97 90 82 74 64 49 30 12 4 3 3 4 3 3 3 2 2 2 5 21 45 58 69 80 88 78 66 64 55 46 44 46 46 56 74 84 88 86
96 96 100 99 96 94 89 85 78 39 11 7 6 6 6 6 5 5 4 4 4 5 5 5 7 14 41 64 77 90 89 82 73 63 51 46 49 56 56 78 92 91 99
92 92 89 91 94 94 90 73 23 9 8 8 9 9 8 8 7 6 5 5 4 4 5 8 10 11 13 28 57 81 96 92 82 68 55 53 61 61 64 83 91 100 98
96 92 91 92 93 88 36 10 9 9 10 12 12 11 11 10 8 7 6 5 6 8 7 7 8 10 11 14 17 41 67 88 84 71 58 55 70 77 73 90 86 100 84
94 95 92 84 51 10 8 10 12 14 16 16 16 15 13 11 9 8 9 10 11 12 14 13 11 10 11 13 17 18 33 64 80 72 58 54 64 82 93 91 100 100 98
96 93 82 34 7 8 11 14 18 20 20 19 18 15 13 12 11 11 12 13 15 20 22 21 20 19 16 14 18 18 22 38 77 80 71 61 64 67 90 95 99 98 96
96 72 16 6 10 12 15 19 22 23 21 21 18 15 15 14 14 14 13 15 20 23 25 27 27 23 20 20 16 16 21 29 59 82 73 69 89 89 87 95 99 98 96

GFSMW_700_rhum_003.txt.gz
RH
14 15 17 16 19 23 22 17 14 12 10 7 11 18 25 34 36 39 48 52 53 56 56 56 57 55 50 46 44 43 36 29 28 28 27 29 30 28 29 30 28 28 27
22 21 20 23 26 26 25 25 24 22 14 10 9 10 16 27 37 41 41 45 49 48 48 53 50 47 45 40 37 42 42 39 36 34 33 28 30 29 31 31 32 31 30
22 23 26 27 26 26 25 25 24 22 19 17 17 18 19 21 35 43 42 45 45 44 47 48 44 44 42 42 37 39 41 40 40 38 38 33 32 32 32 33 34 34 32
28 28 27 26 26 25 25 25 24 24 23 21 21 24 26 29 39 43 42 41 42 39 40 45 45 44 42 34 37 37 38 39 40 42 34 36 37 35 34 34 36 37 36
27 27 27 26 26 26 27 29 32 33 28 25 23 24 30 38 41 42 39 34 31 30 30 31 31 31 30 32 34 35 36 34 34 34 29 32 37 37 37 39 36 38 38
28 29 30 30 32 35 38 38 35 34 38 41 36 27 26 26 26 27 27 27 27 28 30 29 28 28 30 32 32 32 32 32 37 37 34 36 39 37 40 40 39 38 37
30 30 32 36 37 38 38 31 28 22 21 21 33 41 39 35 32 29 29 28 28 29 31 33 35 35 32 28 26 30 36 36 39 45 50 52 49 47 44 43 38 38 38
31 34 34 34 34 35 32 32 33 23 22 25 23 26 30 39 43 42 42 43 44 45 44 42 42 43 43 40 36 35 37 42 51 59 60 60 61 54 57 62 60 63 51
34 35 35 36 37 36 34 32 30 25 29 32 36 36 36 37 36 36 38 39 41 42 44 50 57 60 63 64 64 57 49 44 60 62 67 72 71 72 73 72 69 78 78
36 36 36 37 35 34 34 32 32 36 39 40 42 44 44 44 44 42 41 40 39 38 38 39 40 39 38 39 46 54 62 68 68 66 63 63 72 74 75 81 82 89 97
40 40 38 38 38 40 40 37 40 45 46 46 48 50 51 50 48 45 42 41 39 37 34 32 31 35 39 38 38 37 37 47 56 65 71 71 70 70 74 77 78 81 85
43 44 45 45 43 44 44 44 47 51 52 56 58 60 59 56 53 51 50 48 46 43 40 36 34 33 34 34 30 27 28 27 31 46 54 56 59 61 63 66 71 75 78
50 52 51 54 52 48 50 54 58 57 60 63 66 66 63 56 56 56 54 51 48 44 40 36 34 34 35 34 33 34 30 24 23 24 26 28 39 46 62 72 76 78 81
56 56 57 53 50 53 58 62 63 64 64 66 66 65 62 64 62 56 52 48 45 41 37 33 30 28 26 27 28 30 32 32 30 28 28 30 35 42 47 61 76 83 87
56 55 53 53 56 61 64 66 65 67 69 71 76 75 76 70 60 54 49 44 39 30 19 9 6 7 12 18 30 36 35 34 32 33 35 38 38 37 45 63 63 75 82
58 56 56 58 60 64 66 67 70 73 79 82 77 71 67 60 52 43 29 13 2 0 0 0 0 0 0 1 15 41 37 46 42 46 46 48 47 45 45 48 65 73 88
59 62 65 69 70 71 73 80 76 85 88 79 75 70 57 40 18 7 5 5 5 4 4 3 2 2 1 1 21 55 56 44 62 66 64 56 57 56 52 46 45 55 65
68 73 75 78 75 78 83 83 90 90 83 81 76 57 26 12 10 9 8 7 7 6 6 5 4 3 3 6 24 74 82 62 78 91 88 77 66 65 58 49 42 39 40
71 79 92 94 98 96 97 96 86 85 85 82 61 25 12 12 11 10 10 10 9 8 7 6 5 4 4 10 18 34 39 61 79 83 92 91 80 76 67 59 48 41 38
90 96 98 92 97 98 94 85 85 87 85 52 19 12 12 13 13 14 14 12 11 9 8 7 6 5 5 7 10 19 27 34 54 76 85 90 90 79 69 62 53 44 40
99 98 96 85 86 90 88 87 89 78 39 14 11 14 16 17 18 18 16 14 12 12 10 9 7 7 8 9 9 11 17 24 30 39 61 80 92 83 72 63 62 60 54
96 95 85 88 93 96 92 82 53 20 10 11 15 18 21 22 22 21 18 16 15 14 11 9 8 8 10 11 12 10 12 19 27 28 35 61 87 86 73 62 70 73 75
92 95 93 92 97 95 82 25 7 8 11 14 16 21 25 25 26 24 20 18 16 13 11 10 11 12 14 15 16 14 12 17 22 25 28 47 81 86 69 65 67 80 92
95 94 98 97 97 83 22 5 9 12 13 14 19 27 29 29 30 26 21 18 15 12 11 12 16 22 22 21 21 16 13 13 18 20 22 40 74 84 71 76 85 81 85
86 96 98 96 90 43 6 11 14 14 14 21 32 35 34 33 32 25 20 16 13 13 15 19 26 32 30 28 32 38 27 16 16 19 20 32 55 74 67 80 89 88 81
95 98 94 57 9 7 11 14 15 20 32 41 41 38 37 35 28 22 18 14 13 15 19 25 35 34 35 35 36 32 23 18 16 16 21 26 39 58 56 82 88 89 88

GFSMW_700_rhum_006.txt.gz
RH
28 23 19 18 21 25 25 25 25 25 25 22 16 18 19 20 27 37 41 45 48 48 50 54 52 48 50 54 49 47 45 41 38 42 42 40 40 34 28 29 31 30 34
25 22 21 23 26 26 26 26 26 25 24 23 20 18 22 25 28 31 35 45 46 44 44 47 45 46 48 49 45 45 43 42 40 39 42 42 34 32 32 30 33 32 33
22 23 25 28 28 27 26 26 25 25 26 25 24 23 25 28 33 35 35 41 45 44 44 44 42 39 40 46 46 46 44 41 36 37 39 42 40 40 29 26 33 34 34
25 29 29 27 27 27 27 28 32 35 31 28 30 34 34 29 25 25 30 34 38 37 35 33 31 30 31 32 34 33 32 31 32 34 34 35 38 52 45 25 31 35 35
30 28 28 29 29 30 31 33 36 31 29 24 20 21 24 31 36 32 28 26 26 26 26 25 25 25 26 26 27 29 33 35 36 36 37 32 31 34 48 58 32 35 35
30 30 32 32 33 34 34 36 35 31 29 26 22 24 32 38 39 38 36 35 35 35 36 36 36 36 36 35 33 33 32 35 61 73 75 73 67 53 51 62 62 56 42
31 32 33 35 35 36 37 36 33 27 25 26 27 30 31 30 32 36 39 42 43 44 46 48 50 51 51 50 48 46 45 46 69 83 81 83 84 96 91 90 74 79 71
33 35 38 38 38 38 33 31 38 38 36 36 38 39 39 40 40 41 41 41 41 41 41 42 42 43 44 46 50 54 60 62 60 58 58 66 80 83 92 94 98 98 80
36 39 39 38 36 33 37 42 43 42 41 42 44 44 45 46 47 47 48 46 45 43 41 39 38 37 36 35 38 45 48 48 48 49 54 64 68 67 64 66 83 86 82
37 42 44 41 38 41 44 47 45 48 48 47 49 50 51 54 56 58 57 54 51 49 47 46 44 43 41 38 35 32 32 37 38 37 38 44 51 53 58 66 70 75 82
44 46 44 42 44 52 53 49 49 52 52 54 55 57 60 61 62 61 58 56 56 54 51 48 46 44 42 39 36 35 36 35 32 30 27 25 26 27 32 47 57 60 67
50 46 42 49 57 54 52 52 53 55 58 60 62 61 62 64 66 65 62 59 58 56 51 47 44 42 39 36 33 31 31 35 35 33 32 30 30 28 27 32 40 48 58
47 49 57 60 55 53 52 54 57 63 65 65 66 69 71 70 68 62 58 57 54 51 47 43 38 32 21 14 14 18 20 22 21 24 27 27 29 31 35 38 36 35 36
52 58 57 56 55 55 63 70 75 75 73 73 73 73 78 76 72 64 61 57 50 42 30 16 8 4 2 1 0 0 3 3 5 14 23 25 30 36 38 44 42 44 47
56 58 60 61 65 64 66 69 66 70 76 82 82 82 76 74 68 63 57 44 26 15 11 9 8 7 6 5 4 4 3 3 2 2 4 9 29 45 54 58 50 54 55
59 61 65 69 71 67 73 86 87 87 88 91 89 80 78 74 71 53 29 16 13 11 10 10 9 8 7 6 5 5 5 4 4 5 6 6 17 48 59 66 69 68 64
66 69 72 73 72 84 87 87 74 70 75 91 88 84 81 74 50 26 15 12 12 12 12 12 10 9 8 8 7 6 5 7 8 12 15 17 35 52 87 83 76 70 69
72 70 77 78 81 83 85 90 75 75 91 89 84 82 75 51 25 13 13 15 15 16 16 15 14 12 10 9 8 7 6 7 9 12 17 33 39 52 100 90 84 81 74
65 78 83 87 93 98 99 87 78 89 94 90 85 65 34 15 12 14 16 19 20 21 21 20 17 15 12 11 9 9 8 8 9 9 9 19 26 33 72 94 90 84 78
86 92 98 98 100 95 89 88 88 92 92 83 56 22 10 13 14 14 19 24 27 27 27 24 20 16 14 11 10 13 13 13 13 11 9 11 17 25 32 65 92 89 85
95 96 98 98 90 85 89 93 96 96 81 43 14 9 12 12 13 17 28 31 31 31 30 26 21 17 14 11 14 18 21 20 17 13 12 11 15 22 26 42 89 95 94
98 100 100 93 87 84 94 98 95 89 70 23 8 11 11 12 21 32 36 37 36 34 29 22 18 15 12 13 17 24 28 26 21 17 14 14 17 22 25 37 79 96 92
99 100 100 99 89 93 100 95 90 75 33 8 10 11 12 28 41 42 42 41 38 29 23 18 15 13 12 15 21 29 31 28 27 22 16 14 15 20 24 38 78 95 88
83 90 92 87 93 99 97 71 27 8 8 10 12 20 39 45 45 45 45 42 31 23 19 16 17 18 21 26 33 36 32 31 30 24 17 13 13 17 24 38 81 79 92
69 72 80 96 100 83 30 10 9 10 13 20 38 46 46 46 46 48 45 36 29 22 21 22 27 32 31 34 40 42 43 48 36 32 23 14 13 15 23 36 70 48 93
75 79 87 86 46 17 12 12 14 23 42 46 44 47 51 50 52 48 42 34 27 22 25 29 36 37 44 42 42 42 51 41 41 36 27 15 14 16 21 32 40 48 94

GFSMW_700_rhum_009.txt.gz
RH
29 29 29 22 19 24 26 26 26 26 25 24 23 22 22 22 27 30 29 29 34 40 45 45 44 44 45 45 44 43 49 51 48 46 45 44 40 34 32 39 37 36 35
31 31 24 22 25 27 28 27 26 26 25 27 28 28 28 27 27 26 27 30 31 35 38 42 42 42 42 43 44 44 41 44 48 48 48 41 32 27 30 33 35 37 41
32 25 25 27 29 29 28 27 27 28 30 28 22 21 19 18 19 23 27 28 28 29 34 38 38 37 37 34 34 33 35 36 38 40 51 48 41 38 31 27 28 30 34
27 26 29 30 29 30 30 31 32 33 30 24 23 17 16 17 19 23 30 33 32 31 31 31 31 31 32 31 31 31 31 30 30 34 43 59 73 86 71 59 46 30 28
27 30 30 30 33 34 34 34 34 34 32 28 24 23 24 25 27 32 37 39 40 40 40 41 42 42 43 45 45 44 43 42 42 50 69 77 78 73 90 97 99 75 54
29 32 31 34 35 35 34 37 35 31 30 33 34 33 32 33 34 35 36 38 39 40 41 42 44 45 45 45 45 46 48 52 56 60 60 60 72 83 89 94 88 95 66
32 33 34 35 37 37 37 35 36 39 40 39 41 40 39 40 41 42 43 43 44 44 44 44 44 43 41 41 40 40 40 42 44 45 46 53 67 72 74 81 82 90 78
35 36 37 39 38 37 38 42 46 47 45 46 47 48 49 50 50 51 53 54 54 53 51 50 49 47 46 45 45 44 42 40 38 40 46 50 49 48 49 55 67 69 65
42 38 40 40 40 41 47 54 52 49 48 50 52 54 55 56 58 58 58 57 57 56 56 54 52 50 50 50 48 46 44 43 42 40 39 39 39 39 38 39 48 83 74
40 42 43 42 44 49 55 54 51 51 52 54 56 59 62 62 62 64 65 64 61 59 55 52 50 50 51 50 47 45 43 42 41 38 37 38 41 40 38 34 31 34 68
40 43 45 46 49 58 56 52 50 52 57 63 67 70 69 68 69 68 67 63 62 60 56 54 54 52 49 45 41 36 30 27 26 26 27 28 32 34 36 38 40 40 42
44 46 47 48 60 60 58 57 56 58 63 67 66 67 71 76 80 77 68 63 63 62 59 54 48 39 27 16 9 7 5 3 1 0 0 3 9 13 18 21 26 35 42
50 43 50 62 63 65 64 66 67 68 72 73 71 72 73 74 74 71 68 68 66 62 55 43 31 22 16 13 10 8 8 7 6 5 4 4 2 2 3 5 5 13 21
42 58 58 64 72 71 72 73 73 76 83 76 71 68 66 58 60 69 71 69 67 59 44 25 15 13 12 12 11 10 9 8 7 6 5 5 4 4 4 5 5 7 14
57 59 62 70 71 72 71 71 82 83 71 79 83 70 62 68 73 73 73 69 53 33 17 13 14 14 14 14 13 12 10 9 8 7 6 6 5 6 6 10 8 22 42
58 62 67 71 71 73 75 71 72 76 70 81 87 69 70 78 81 82 67 44 22 13 13 12 12 14 17 20 19 18 15 13 11 9 8 6 6 6 6 6 11 51 99
64 69 69 73 76 70 65 66 71 86 100 94 70 80 85 88 84 62 34 16 12 11 9 13 20 23 24 24 23 22 19 16 13 11 10 8 8 7 8 7 6 10 33
65 65 62 55 57 78 86 88 97 100 89 68 84 90 92 87 58 30 12 11 9 8 13 21 28 28 28 29 28 23 19 16 13 11 11 11 11 11 12 10 9 8 14
51 52 51 63 88 94 96 100 98 70 74 90 96 96 86 49 19 11 10 9 8 13 26 31 30 32 33 33 27 19 17 14 12 12 14 16 16 15 14 13 11 12 17
51 71 79 97 100 100 100 91 76 78 82 91 97 90 51 24 14 10 9 10 24 32 32 28 34 37 36 30 22 17 14 14 17 20 17 18 23 20 18 14 16 36 37
49 67 87 95 98 98 95 90 87 83 94 99 88 59 19 9 9 10 19 31 32 30 34 35 37 36 30 24 19 16 19 23 46 27 31 30 26 25 20 15 18 24 29
45 53 66 60 78 80 88 87 81 90 93 75 30 10 9 11 18 31 34 31 35 40 40 39 36 30 24 19 17 22 29 37 47 37 33 29 32 31 22 16 18 24 30
45 54 56 57 60 76 72 80 88 81 47 14 10 12 14 31 39 30 30 36 40 43 41 36 28 22 19 18 23 30 32 32 35 37 31 34 36 32 24 18 20 24 30
44 46 50 61 72 78 87 79 50 22 13 12 13 26 42 41 29 32 37 41 45 42 35 28 24 21 21 26 34 36 39 38 42 37 31 37 38 40 28 18 20 23 30
46 54 61 71 80 84 60 30 19 14 13 21 43 48 45 34 31 32 35 40 37 35 32 28 25 26 28 37 46 50 46 49 100 52 38 36 41 37 24 17 19 23 40
46 58 70 82 78 53 29 18 14 18 38 51 52 43 33 31 31 30 28 32 33 31 27 27 31 32 39 43 48 47 46 48 51 42 42 44 46 42 24 17 17 21 32

GFSMW_700_rhum_012.txt.gz
RH
31 29 26 26 24 21 26 26 27 27 26 25 26 28 28 28 28 28 28 30 34 38 39 39 39 45 47 48 49 48 47 45 47 46 40 38 39 40 42 45 42 40 39
31 30 32 27 26 27 28 28 27 28 30 30 25 23 20 19 19 21 25 29 32 33 33 34 35 37 36 36 35 33 33 32 32 33 34 32 30 29 29 28 29 31 35
32 32 29 27 29 30 29 30 32 32 32 30 27 26 23 20 19 20 23 27 30 32 35 36 36 37 37 38 38 39 41 41 42 44 46 50 49 56 51 55 51 54 44
33 29 28 30 32 33 33 33 32 32 32 30 26 25 29 30 28 29 30 31 32 33 33 34 35 36 37 37 38 38 39 39 40 41 44 50 57 83 67 65 76 82 54
32 30 32 33 36 34 35 36 35 32 28 29 33 36 37 38 38 37 38 38 39 40 42 43 45 47 48 48 47 46 44 43 42 40 40 41 44 50 61 48 47 55 67
32 34 36 36 35 38 38 36 34 33 35 39 41 42 44 45 45 45 46 47 49 51 53 54 54 53 52 51 50 49 49 50 49 48 46 44 42 40 41 44 41 44 43
34 37 37 35 38 38 39 39 39 44 47 45 46 48 49 50 50 52 53 53 53 53 52 53 52 52 52 52 51 50 51 52 53 53 52 50 48 47 46 45 42 42 38
35 38 36 38 39 41 43 44 49 51 50 50 50 50 50 53 55 57 58 59 61 59 57 56 55 54 53 51 49 49 50 51 52 50 49 47 46 44 45 50 52 46 42
40 40 38 40 44 46 47 54 53 52 50 49 49 51 53 58 65 68 70 70 68 64 58 54 54 54 55 54 52 50 49 47 44 40 34 29 28 21 22 32 40 52 52
44 42 41 44 46 48 59 60 56 56 56 55 56 56 56 59 64 66 65 63 56 51 52 54 55 55 55 52 47 40 31 23 17 13 10 7 5 4 1 2 10 27 48
48 42 43 46 49 53 68 63 61 61 62 62 62 65 69 71 65 60 60 52 47 50 52 54 55 56 55 45 32 20 15 14 13 12 10 9 8 7 6 5 4 4 20
44 45 47 51 48 63 70 66 65 65 64 64 69 72 66 68 72 63 56 44 48 53 57 59 60 54 41 25 16 14 13 13 12 12 11 10 9 8 7 6 5 6 10
49 51 45 49 62 65 75 71 68 68 70 77 80 78 63 62 71 76 51 59 59 60 62 59 52 33 17 14 12 11 10 11 12 12 13 12 11 10 9 8 7 6 7
51 47 54 63 66 72 77 74 72 73 73 70 67 70 70 80 91 63 57 64 66 65 59 44 24 16 12 10 10 12 15 17 16 17 18 18 17 14 12 10 8 8 8
48 55 61 66 69 72 74 76 80 83 72 65 73 69 86 88 54 60 70 70 72 59 38 22 14 12 9 11 18 20 19 18 17 21 25 23 20 16 14 12 10 10 9
54 57 61 68 71 69 72 78 75 71 70 86 98 97 83 51 61 71 71 73 61 39 25 16 12 8 16 23 21 22 21 23 29 28 26 22 18 15 13 11 13 17 19
58 64 65 63 62 67 64 64 72 80 95 97 98 91 55 65 73 76 77 68 52 30 13 8 15 22 21 19 22 30 33 32 28 24 20 16 14 13 13 16 23 25 22
52 46 45 46 47 47 59 80 95 99 99 74 53 56 68 72 74 76 61 28 10 9 17 23 21 16 18 23 29 31 28 23 20 18 15 14 14 18 25 31 32 30 26
32 31 33 37 37 56 80 77 88 86 50 45 58 68 74 76 62 26 10 10 17 24 22 14 14 18 18 24 27 26 21 19 16 15 16 23 25 24 32 45 38 32 24
20 22 26 32 38 42 50 58 63 50 48 61 69 78 73 40 13 11 16 28 29 17 13 14 19 24 25 24 22 22 20 18 18 18 20 29 33 30 37 43 44 37 24
18 22 26 31 37 47 44 45 47 50 59 68 74 52 18 12 13 25 34 28 15 14 17 18 22 26 25 23 20 19 21 25 27 27 30 31 33 35 44 44 44 39 22
22 25 28 34 40 43 43 43 49 58 65 61 30 16 13 18 34 36 24 16 18 20 22 22 21 24 22 19 20 24 27 30 33 32 37 52 50 44 43 44 43 33 23
27 31 35 40 41 40 40 48 58 64 51 25 16 15 24 39 37 22 17 18 21 22 22 24 23 19 17 18 24 28 27 29 38 43 67 50 43 43 42 44 45 29 24
32 35 36 33 34 39 49 59 63 44 24 16 18 30 38 28 19 20 21 19 19 17 19 18 17 18 20 25 29 30 34 42 48 51 64 42 42 43 44 44 38 24 26
33 34 32 31 38 53 64 60 42 23 17 22 36 37 24 18 17 17 18 15 12 15 18 20 24 27 26 30 44 51 50 52 58 55 46 39 40 39 41 40 29 22 27
31 31 32 35 48 61 54 34 21 19 31 38 32 21 18 19 17 16 11 10 13 16 19 24 28 33 40 46 53 54 51 52 56 52 50 43 43 44 45 38 23 23 29

GFSMW_700_rhum_015.txt.gz
RH
37 36 33 28 25 24 24 27 28 28 27 28 29 28 25 22 24 28 33 37 39 40 41 39 37 36 36 35 36 36 36 37 39 37 36 35 34 35 36 35 35 34 32
34 35 32 31 28 27 29 29 29 31 32 31 28 25 25 24 22 20 22 27 30 33 35 36 36 37 37 37 36 36 35 35 36 36 36 34 32 33 32 33 33 34 36
34 35 33 31 30 32 31 32 32 32 32 32 29 26 24 26 29 29 29 30 32 33 35 37 38 40 41 41 42 42 43 43 43 45 46 43 40 39 38 38 38 38 38
36 34 33 31 34 37 35 34 33 32 29 24 26 32 36 38 39 39 39 39 40 42 43 45 48 49 50 50 51 51 51 51 51 51 52 52 53 51 40 41 42 43 42
32 34 33 36 39 37 38 37 33 28 26 29 38 40 41 42 44 45 46 47 48 50 53 54 54 53 53 52 52 51 51 51 50 50 50 50 52 55 54 44 47 48 47
33 33 37 39 38 40 39 37 35 33 34 41 45 45 46 47 46 48 50 51 53 55 56 55 52 48 44 41 40 42 46 48 49 50 52 53 52 51 45 44 46 45 44
34 34 40 41 41 41 42 41 38 37 42 48 47 45 44 42 42 44 46 50 54 51 44 41 38 33 31 35 41 45 46 48 50 48 44 38 28 19 11 7 8 8 16
36 35 40 42 44 46 46 44 43 46 48 52 52 52 52 52 51 50 51 50 46 41 35 25 27 35 41 43 45 46 47 47 46 44 37 28 19 14 12 10 8 7 7
39 39 42 43 45 49 48 48 50 53 55 57 58 58 56 53 56 53 51 50 47 45 29 35 41 43 43 44 44 44 45 44 39 28 18 15 14 13 12 12 11 11 33
42 42 44 45 47 50 50 51 62 61 61 63 62 58 55 51 54 56 57 57 62 66 40 46 49 49 48 46 46 45 36 28 21 17 14 12 11 12 13 14 14 12 11
45 47 47 48 49 52 51 59 69 68 67 66 63 58 50 53 58 54 50 52 52 45 46 50 51 52 53 49 41 34 31 30 27 18 13 12 13 14 14 15 16 17 14
51 52 50 52 53 49 59 66 72 76 73 68 64 58 60 67 68 67 58 44 42 46 50 54 58 59 54 45 39 35 24 13 12 13 13 12 11 12 14 16 18 20 19
52 55 53 54 49 60 66 69 76 78 70 68 65 70 76 87 69 75 68 42 47 55 58 59 60 56 46 33 17 11 13 14 10 10 11 13 16 17 22 24 24 22 19
57 54 54 52 55 67 71 72 74 72 69 67 72 80 89 79 51 56 49 48 52 56 58 58 50 30 12 12 14 10 7 8 10 12 14 15 18 20 20 20 19 16 15
54 54 53 53 63 70 70 71 69 68 78 76 89 92 71 44 42 44 50 53 56 56 48 26 12 13 16 9 6 8 9 10 11 13 15 17 17 17 16 16 15 17 21
54 51 58 61 63 66 66 64 63 70 77 84 72 28 37 37 41 46 52 53 48 29 12 12 15 10 7 8 10 12 13 13 14 16 16 16 16 14 16 19 23 28 90
54 56 55 55 50 50 56 57 61 70 58 48 39 34 38 41 44 49 49 37 16 12 14 13 8 7 8 10 12 14 14 15 18 18 15 14 16 21 22 24 30 29 30
59 55 38 26 33 46 53 58 60 39 41 40 36 39 42 46 47 41 21 13 14 15 10 7 8 8 9 11 13 15 17 19 17 15 18 19 21 26 29 40 78 45 34
48 26 19 21 31 38 41 44 37 34 37 36 42 45 45 42 28 16 15 16 15 9 7 8 9 9 9 9 12 15 14 14 15 19 23 23 26 33 48 100 53 36 30
24 16 18 20 25 29 33 30 30 35 36 41 46 45 40 23 17 16 19 19 11 8 8 9 10 8 7 9 11 13 16 18 20 21 24 28 35 40 98 87 52 39 35
19 19 20 23 26 30 32 33 33 37 43 47 46 38 23 18 18 21 22 12 10 10 10 9 7 8 11 12 13 17 22 26 25 27 30 32 40 90 47 46 44 44 44
22 22 23 26 29 32 34 34 40 41 44 44 34 24 19 20 24 23 13 12 12 11 10 7 7 10 12 12 16 19 25 31 39 41 42 39 41 43 40 41 42 47 47
23 22 24 29 33 34 32 32 35 40 43 36 24 21 23 28 24 14 14 13 14 11 8 8 10 10 10 14 18 25 32 41 46 50 45 44 44 41 42 42 48 54 44
20 21 28 33 33 32 34 35 38 39 32 24 24 27 26 20 16 17 17 15 13 10 10 12 11 11 15 22 29 36 42 46 49 59 48 52 49 45 45 45 49 45 33
17 24 30 33 34 34 35 36 33 28 26 29 28 26 21 19 18 17 16 14 11 12 14 14 16 21 26 35 42 48 47 52 61 57 55 53 50 45 43 47 46 32 32
24 29 34 36 36 36 34 30 29 32 32 28 24 21 22 21 19 17 15 12 12 13 16 20 27 34 41 43 43 46 51 57 62 60 64 61 57 52 52 47 32 31 50

GFSMW_700_rhum_018.txt.gz
RH
37 36 36 35 32 28 26 26 28 28 28 27 28 29 28 25 22 21 23 28 34 37 36 36 37 37 37 36 36 37 38 39 42 41 38 37 36 30 32 31 33 34 34
34 37 36 35 31 29 29 30 31 31 32 32 31 29 28 27 27 26 26 26 29 31 34 35 36 38 41 43 44 44 43 42 42 41 37 31 24 27 32 32 30 31 34
32 35 36 34 32 31 33 33 33 33 34 32 29 26 26 29 33 35 36 37 38 39 40 41 42 42 44 46 46 44 43 40 40 42 46 42 37 29 28 24 29 29 34
32 36 36 34 32 34 36 35 34 34 31 25 24 27 34 37 40 42 43 43 42 40 40 44 47 48 48 46 43 40 34 30 29 30 34 37 42 43 26 31 31 33 35
35 37 35 33 36 38 37 36 35 30 28 27 30 39 42 42 41 38 36 38 40 45 49 50 48 41 31 23 19 20 23 25 28 32 35 38 40 41 41 30 34 34 29
37 36 35 36 39 39 38 37 34 33 28 28 35 45 46 45 46 46 46 47 46 44 42 39 30 24 18 21 24 27 30 34 38 41 43 44 41 39 35 34 32 31 27
35 36 36 39 40 40 40 38 37 34 34 38 47 52 54 54 52 46 39 38 39 36 33 34 38 27 23 27 30 34 37 39 39 39 38 36 32 28 23 20 23 22 23
38 36 38 40 40 42 42 42 40 40 39 47 54 57 57 55 51 40 32 30 34 34 31 24 24 26 27 33 38 40 41 40 40 40 39 37 36 33 29 22 17 20 22
39 35 38 41 42 44 44 46 47 46 47 57 60 61 60 58 50 37 35 41 48 46 25 25 29 34 37 38 40 40 41 43 44 42 32 20 11 11 11 11 12 16 15
41 37 41 44 45 46 48 51 52 50 59 66 67 68 64 60 50 42 49 47 38 40 30 33 37 37 39 41 41 40 35 22 12 10 9 8 6 6 6 7 9 13 24
42 41 44 46 47 50 53 56 51 60 68 70 74 72 68 61 53 58 61 53 33 31 32 37 40 42 42 40 29 14 10 9 6 5 5 6 7 8 9 10 12 15 20
45 47 49 51 53 55 56 51 61 67 70 73 78 74 70 63 65 66 60 38 31 38 43 43 43 42 30 14 10 8 5 5 5 5 6 8 10 11 12 14 15 16 17
46 50 53 56 57 57 52 58 67 69 70 74 74 75 77 65 75 52 31 32 39 42 43 42 36 18 12 10 7 5 5 4 5 6 8 10 12 13 15 15 16 16 19
49 54 58 60 57 54 56 62 67 71 74 75 72 69 59 65 48 31 32 37 40 44 40 27 14 13 10 6 5 5 5 5 6 6 7 12 15 16 14 14 15 19 20
51 56 60 59 55 55 59 64 69 72 74 68 56 52 60 40 34 32 36 42 43 34 18 14 13 11 6 6 5 5 5 5 5 5 6 10 12 13 14 17 20 25 26
52 58 62 56 55 60 60 62 66 68 64 52 54 51 40 36 33 37 38 38 27 16 16 14 11 6 6 6 6 5 5 6 6 6 7 9 12 14 18 20 23 31 67
50 55 55 58 58 54 49 51 55 57 51 53 51 46 41 36 39 38 34 23 17 18 16 12 7 6 6 6 6 5 6 6 7 9 12 13 17 21 22 23 29 78 99
52 57 59 57 47 29 28 36 44 56 49 39 48 40 34 37 38 32 21 18 20 17 13 8 7 7 7 6 6 6 7 7 9 14 16 17 20 24 28 35 56 100 71
62 62 53 33 18 17 22 34 46 44 32 40 35 33 36 40 30 21 21 23 18 14 9 8 7 7 7 7 7 8 8 8 10 15 19 24 30 35 40 78 100 94 42
59 43 22 16 17 19 23 30 36 32 36 34 35 40 41 29 23 23 25 19 15 10 9 9 8 8 7 7 8 9 10 11 15 21 28 34 37 38 46 96 72 48 38
36 19 17 18 19 22 27 32 35 34 36 37 43 40 30 24 26 26 22 16 12 11 10 9 9 8 8 9 10 11 14 21 24 28 32 37 40 47 48 49 54 54 45
20 19 19 19 21 26 34 34 31 35 37 40 38 29 26 29 26 23 17 14 13 12 10 10 8 9 9 11 12 14 20 29 33 33 37 41 50 50 54 55 54 50 50
21 20 17 18 24 29 30 31 34 36 38 36 29 31 32 28 23 17 16 16 14 12 11 10 9 10 11 12 14 18 25 29 37 46 50 49 55 61 58 55 53 57 56
20 17 17 20 25 29 31 35 36 36 32 32 37 36 32 23 19 18 18 17 14 12 12 11 11 12 13 15 18 24 29 33 45 65 56 58 63 62 59 54 57 58 51
16 16 19 23 27 30 34 35 33 33 39 44 45 38 26 20 20 20 18 15 16 14 14 14 15 16 16 19 26 35 35 41 61 66 57 60 62 58 53 55 56 46 69
15 17 20 24 28 32 33 34 39 45 51 53 48 34 24 24 24 18 15 16 15 15 16 19 20 20 23 26 32 38 42 50 61 59 64 66 63 58 57 53 42 70 98

GFSMW_700_rhum_021.txt.gz
RH
33 34 30 35 36 35 31 27 25 27 28 27 27 27 28 29 28 25 24 29 31 31 32 32 34 35 35 36 38 40 40 37 34 28 24 22 19 16 27 18 24 21 22
35 36 38 37 36 34 30 27 29 30 30 31 31 31 31 30 29 28 29 30 31 32 34 36 39 41 42 41 37 31 28 26 24 20 15 10 9 11 17 20 20 19 19
36 33 35 36 36 33 29 30 32 32 33 33 32 29 25 26 31 36 38 40 41 42 42 40 36 33 32 29 28 24 16 12 12 13 18 17 16 14 16 16 17 19 24
38 35 35 36 35 32 32 33 34 34 33 29 24 24 27 34 40 42 43 41 38 36 35 33 32 32 31 26 20 17 14 15 16 18 22 25 28 29 22 24 25 25 25
36 36 36 36 34 33 34 36 35 35 30 27 23 23 28 38 43 44 45 42 36 29 29 28 23 18 18 18 17 15 17 20 22 26 28 30 30 30 31 24 29 27 28
37 37 38 35 34 36 38 37 36 34 32 31 29 29 38 47 50 49 46 42 32 21 18 18 18 16 14 16 18 22 24 26 27 30 33 36 36 32 27 18 12 10 8
40 38 37 35 36 38 39 38 37 36 36 37 35 38 50 55 56 53 50 39 26 21 19 17 19 17 17 19 22 24 27 29 31 31 26 20 13 9 7 6 4 4 4
39 38 37 36 38 40 39 40 40 40 42 43 41 48 55 59 61 58 52 41 25 24 22 18 18 19 22 25 28 30 30 28 22 14 10 8 6 4 4 4 4 4 4
38 37 36 37 39 42 42 43 43 46 48 46 50 56 60 64 65 61 53 33 27 24 19 18 19 22 24 27 28 27 20 14 11 8 5 5 4 4 4 4 5 8 5
38 38 36 38 40 44 44 46 48 51 52 50 57 61 66 69 67 64 53 31 26 18 18 18 21 26 27 27 23 16 13 9 6 5 5 4 4 4 4 4 5 8 15
39 40 36 38 42 46 47 50 54 56 52 55 61 66 69 71 71 64 43 30 22 18 20 23 28 29 26 18 15 14 9 6 5 5 5 5 4 4 4 4 6 10 16
39 41 39 40 45 49 52 56 58 55 55 59 67 71 73 73 66 48 35 26 22 22 25 28 29 23 16 16 14 9 6 5 6 5 5 5 5 5 5 6 6 9 13
39 42 43 44 49 53 58 61 56 54 57 62 68 72 74 71 54 40 29 25 24 28 28 27 20 16 17 16 10 6 5 6 6 5 5 5 5 5 6 8 10 12 20
38 40 46 49 54 59 64 58 55 56 61 67 73 76 74 62 46 35 28 26 29 30 26 19 18 20 17 11 7 6 6 6 6 5 5 6 6 7 9 12 16 26 40
43 43 49 54 59 64 62 56 57 62 66 69 71 71 64 52 39 31 29 29 31 27 20 20 22 18 11 8 6 6 6 6 6 6 6 6 7 9 12 36 45 55 76
46 48 53 57 63 66 59 57 61 61 60 60 61 64 56 42 32 31 31 33 28 21 22 24 19 11 8 8 7 7 7 6 6 6 6 6 8 12 16 23 33 82 100
50 53 56 65 65 58 59 60 55 47 44 50 57 56 47 38 33 32 33 28 23 25 26 18 11 9 9 8 8 7 7 7 7 7 8 9 14 22 29 32 38 71 100
51 52 55 58 59 61 58 45 30 29 39 47 41 39 39 34 31 32 28 25 28 27 18 12 10 11 10 9 8 8 8 8 9 9 12 19 23 28 37 74 76 100 98
52 55 58 61 62 51 28 18 20 26 34 37 32 36 31 31 33 28 27 30 28 20 12 12 13 13 11 10 9 9 9 9 9 11 18 26 27 32 63 100 100 76 46
60 60 64 57 36 18 17 18 22 26 30 30 33 30 33 34 28 29 32 31 22 14 14 17 16 13 10 10 10 12 12 11 11 11 20 28 35 47 97 100 97 62 56
64 63 48 27 18 18 19 21 23 26 30 30 31 36 32 29 34 36 34 22 16 17 20 18 13 12 11 11 12 14 14 15 14 18 26 30 42 92 93 93 74 66 64
60 44 24 19 20 19 18 19 22 27 31 34 36 32 31 37 41 37 25 19 22 23 18 14 13 12 12 13 14 16 17 19 29 31 34 41 84 75 62 65 61 59 64
31 21 22 20 18 17 18 21 25 30 36 35 30 34 41 46 43 32 25 27 25 17 15 15 14 13 14 15 16 18 18 22 33 39 46 55 60 61 64 59 60 67 66
24 23 21 16 15 17 21 25 30 34 31 32 38 46 49 48 43 34 30 26 19 17 17 16 14 14 15 17 19 19 21 29 37 43 55 59 62 65 61 58 61 60 68
24 18 14 14 16 19 24 28 30 30 35 42 49 51 52 52 43 34 28 22 19 19 17 16 16 17 17 20 21 29 37 41 48 61 59 63 65 57 56 57 56 64 98
13 14 14 15 17 20 24 26 32 40 47 52 54 56 58 53 39 32 26 22 21 19 17 17 18 18 23 22 26 34 42 49 66 65 71 68 62 59 59 55 61 97 97

GFSMW_700_rhum_027.txt.gz
RH
44 39 38 29 27 24 25 33 38 36 34 30 25 27 28 29 31 30 30 31 31 32 37 41 43 42 38 35 30 20 9 8 8 7 7 7 7 7 8 9 9 9 10
50 42 39 30 33 33 38 38 36 33 28 27 29 29 30 32 33 31 31 35 39 42 43 43 42 38 30 19 10 8 8 8 8 7 6 7 8 8 8 7 8 7 7
50 48 44 32 36 37 37 36 34 31 29 31 32 34 32 29 29 33 37 41 43 45 46 43 37 25 14 10 9 8 8 8 7 7 8 8 8 6 7 6 7 7 7
53 52 46 32 35 39 38 35 33 30 32 34 34 31 27 26 27 32 40 47 50 50 47 40 30 14 9 9 9 9 8 7 8 8 9 11 12 10 8 7 7 7 8
55 52 45 33 37 38 38 35 33 34 35 35 32 29 32 34 36 40 48 52 53 51 41 26 13 9 9 9 9 8 8 8 9 9 9 9 10 12 11 9 8 8 9
56 54 45 38 37 38 37 35 35 37 37 35 34 37 40 41 44 48 51 51 46 39 30 21 12 10 10 10 9 9 9 10 10 11 11 13 13 12 10 9 9 10 9
54 49 45 42 38 39 37 36 36 39 39 38 40 43 45 46 49 51 53 51 44 39 33 20 12 11 10 10 10 11 11 11 11 12 14 15 14 11 9 9 9 10 10
48 43 42 41 41 40 37 37 39 41 42 42 44 46 48 49 52 53 53 54 52 46 36 19 13 12 11 11 11 12 12 12 14 14 15 14 12 10 8 8 8 10 10
38 41 44 42 42 40 38 39 42 43 44 45 47 49 51 52 54 57 57 59 54 48 32 19 14 13 12 12 13 12 13 14 14 15 14 12 10 9 8 8 7 6 8
36 42 41 43 42 40 40 41 44 45 46 48 50 53 55 55 58 61 62 63 57 44 27 18 15 14 14 13 13 14 14 14 15 14 13 12 11 10 10 8 7 6 6
33 38 42 43 42 40 41 42 46 47 48 50 54 58 58 58 61 63 64 61 51 34 22 17 15 15 14 15 15 14 15 16 15 14 13 14 16 15 11 8 7 7 8
35 38 41 41 41 40 42 43 45 49 51 54 60 64 59 60 62 64 62 52 40 27 20 17 17 17 16 16 15 16 17 15 15 17 21 21 16 12 8 8 7 8 8
38 38 39 40 41 42 44 44 44 49 54 59 66 64 61 62 64 63 55 42 33 23 20 18 18 17 16 16 18 17 16 18 22 24 20 15 11 10 9 8 9 9 11
39 37 38 41 43 43 44 45 46 50 57 64 69 64 63 65 65 57 44 37 26 21 19 19 17 17 18 19 18 18 20 23 22 18 15 12 10 10 10 10 12 14 19
35 38 39 42 44 46 46 46 48 54 62 71 69 64 66 66 56 44 38 26 22 20 19 18 18 20 20 19 19 22 24 22 20 17 14 12 11 11 12 15 16 20 25
39 41 44 45 47 48 50 51 54 61 71 72 66 67 65 50 42 34 25 22 21 19 19 20 21 21 21 23 25 24 23 22 20 18 15 12 11 12 14 16 21 38 95
43 43 40 48 50 51 54 57 63 72 72 66 67 61 42 33 29 25 22 21 20 20 22 23 22 22 25 26 26 26 25 22 19 16 12 10 12 15 15 16 28 44 98
51 44 42 48 53 56 60 67 74 68 65 63 50 33 33 32 27 24 22 21 22 24 24 24 25 27 28 28 27 24 20 17 14 11 11 13 14 16 28 38 62 100 100
56 53 52 55 63 69 69 66 65 64 55 32 28 30 28 26 25 23 22 23 24 27 26 26 30 30 29 27 22 19 16 12 10 10 13 17 22 32 45 93 100 89 62
58 57 61 65 63 63 66 66 60 36 24 25 26 24 24 24 24 22 23 27 30 28 29 33 33 30 28 22 18 14 11 9 10 10 14 23 37 49 89 100 77 62 62
63 64 64 65 67 66 63 45 27 24 24 22 22 23 24 24 24 25 30 33 30 33 35 35 33 29 23 19 13 10 10 13 14 16 21 32 49 86 69 66 65 63 64
64 66 69 69 67 54 34 24 23 21 20 20 22 23 24 26 28 33 36 35 36 39 40 35 31 25 21 14 9 9 11 16 27 30 35 47 62 64 64 61 60 64 78
72 70 70 61 37 25 24 21 18 18 19 21 23 24 27 31 36 39 38 41 44 44 39 34 27 23 17 9 8 9 11 19 35 41 46 58 62 64 58 60 74 98 98
73 64 45 27 25 22 16 17 18 17 18 21 24 27 34 39 40 43 48 49 49 43 36 30 23 18 10 9 10 11 18 29 38 46 52 63 65 62 62 81 98 99 98
50 30 27 23 17 18 19 16 14 17 21 24 29 36 40 38 41 50 53 53 48 38 31 23 17 10 8 10 14 22 34 40 51 53 58 60 55 53 79 94 98 98 97
29 24 18 20 21 18 14 14 16 20 25 32 38 40 39 43 50 53 54 52 41 34 24 17 12 10 13 16 23 33 39 49 56 55 62 57 52 80 92 93 92 98 97

GFSMW_700_rhum_030.txt.gz
RH
55 52 44 40 38 26 24 26 27 25 28 41 37 35 30 31 32 35 34 33 33 33 39 42 43 43 42 39 29 15 8 8 8 9 9 8 8 8 8 9 8 8 8
56 51 48 42 40 28 28 26 28 36 38 36 32 29 32 34 32 34 32 32 37 40 43 45 48 46 39 27 14 8 8 8 9 10 10 10 10 9 8 8 8 8 8
54 52 47 47 45 31 33 36 39 37 32 29 29 31 32 34 32 30 32 37 41 46 50 51 49 39 26 13 9 8 9 10 10 9 9 9 10 9 8 8 8 9 8
54 51 49 50 50 35 37 37 37 35 32 30 33 35 34 31 28 30 36 40 48 52 53 48 39 26 15 10 9 10 10 10 10 9 8 8 8 8 8 9 9 9 8
56 51 48 52 51 42 36 39 38 34 32 36 36 34 30 32 38 41 44 47 51 51 46 41 30 20 12 11 11 11 10 10 9 9 8 8 8 9 10 9 9 8 8
57 50 52 54 54 45 38 38 37 34 34 36 36 33 37 42 44 47 49 51 52 50 43 34 27 18 13 12 12 11 11 10 10 9 10 10 10 9 9 9 9 8 8
57 48 53 55 53 46 40 38 37 35 37 38 37 38 43 46 48 50 52 53 54 50 43 38 29 18 14 13 12 11 11 11 11 11 11 11 11 11 11 10 9 8 8
54 52 54 56 51 48 42 39 37 37 40 40 40 43 46 49 51 53 55 56 57 56 50 39 25 17 15 13 12 12 12 12 12 11 11 11 12 11 12 12 12 10 11
42 55 56 55 52 51 44 39 38 40 42 42 43 46 50 55 57 58 59 60 62 62 55 36 24 17 14 13 12 12 12 12 11 12 12 12 12 12 15 18 20 20 16
44 52 57 56 54 51 44 40 40 43 45 45 47 50 55 60 62 61 61 63 67 65 50 31 21 17 14 13 13 12 12 12 13 12 12 14 15 16 18 19 19 16 13
47 52 52 56 57 51 43 41 42 44 46 48 50 54 59 64 66 63 65 69 70 61 37 25 19 16 14 13 13 13 13 13 12 14 15 16 16 18 19 19 17 14 11
41 49 56 55 51 49 44 42 44 47 50 52 54 58 63 69 69 67 70 72 68 44 29 21 17 15 14 14 13 13 13 13 13 14 15 17 19 20 20 18 16 13 12
46 48 46 44 47 46 44 43 45 48 51 54 57 61 66 72 70 70 74 73 52 31 22 18 16 15 15 14 14 13 13 14 16 17 20 22 22 19 18 16 13 12 11
44 42 43 43 44 45 44 45 47 49 51 55 58 63 72 76 73 76 76 58 34 25 19 18 16 16 15 15 14 14 15 16 18 22 22 19 17 16 13 12 12 13 15
47 43 41 42 43 45 46 48 50 51 52 55 61 68 78 76 77 75 60 36 26 21 19 17 16 17 16 15 15 15 15 19 22 20 18 17 14 11 10 12 14 20 27
39 39 41 44 47 48 50 51 53 56 58 62 68 80 79 78 71 55 36 29 23 20 18 18 18 18 17 18 18 19 22 24 20 19 18 13 8 8 10 13 18 32 79
42 39 44 48 50 53 57 59 62 64 64 70 82 80 75 68 46 36 29 23 21 18 19 20 19 19 20 21 22 26 25 21 20 17 10 7 8 10 12 17 31 54 82
53 42 42 44 52 61 64 65 65 68 76 83 76 70 59 41 35 28 23 21 20 20 22 21 22 23 24 26 30 27 22 21 17 10 7 8 10 15 27 37 59 83 63
55 55 56 58 62 68 70 72 76 81 75 70 62 43 36 32 26 23 21 20 22 23 23 24 24 26 31 32 29 24 23 19 10 7 8 13 19 32 44 90 66 52 51
60 61 63 67 73 75 78 77 72 70 64 44 32 30 26 24 22 21 21 23 23 23 23 27 32 35 34 31 25 23 17 11 6 6 8 18 35 40 51 60 56 50 48
66 67 71 75 74 70 69 69 64 50 34 28 26 23 22 21 20 22 24 24 22 25 29 33 37 36 33 27 24 16 8 7 7 10 18 30 42 48 56 56 52 53 70
69 72 72 70 71 70 65 52 37 27 25 22 21 20 19 20 24 27 26 25 27 32 36 37 36 35 30 26 17 9 7 11 18 24 30 41 48 55 54 51 59 86 91
69 71 72 73 69 58 39 28 25 21 19 20 18 18 22 27 28 25 26 30 34 36 39 37 35 32 28 18 9 7 9 19 29 32 38 46 53 54 48 67 96 95 93
73 75 73 65 46 30 25 20 18 20 17 16 19 24 28 28 26 29 32 36 39 42 40 37 34 29 21 11 7 8 18 28 31 36 42 51 54 52 66 94 95 94 95
75 69 54 33 26 19 20 21 17 15 17 20 25 28 27 27 32 35 37 40 48 45 40 36 30 23 13 8 10 20 29 32 38 40 45 50 47 61 87 89 96 97 96
50 32 27 20 21 22 19 16 16 17 21 24 26 26 28 32 35 38 44 55 50 44 38 32 24 14 9 9 18 27 31 38 43 43 50 49 60 87 89 88 83 97 95

GFSMW_700_rhum_033.txt.gz
RH
54 58 54 51 49 43 41 34 28 29 34 35 32 31 47 49 60 42 42 41 37 34 34 37 37 39 44 45 40 27 14 8 8 8 9 10 10 10 10 10 10 9 8
51 52 56 50 47 44 42 37 32 28 28 30 31 46 50 45 42 40 37 35 33 35 39 42 47 49 48 37 23 13 10 9 9 10 12 13 12 12 11 10 9 8 8
48 61 56 52 49 47 44 37 34 32 33 37 43 40 36 38 39 38 33 33 34 39 46 51 53 46 36 25 15 11 11 12 12 13 13 13 13 13 12 10 10 10 10
52 60 58 56 51 50 47 39 38 41 40 37 32 32 37 38 37 34 32 37 42 47 51 51 46 36 27 19 14 14 14 15 14 13 11 10 10 10 13 13 12 12 11
55 58 56 58 53 52 52 42 40 39 36 33 31 33 36 35 33 35 42 45 48 51 51 48 41 32 24 18 16 16 16 15 13 12 10 10 10 10 11 13 12 8 6
47 58 56 56 55 51 53 47 40 39 36 33 35 37 36 33 38 44 47 50 53 54 52 51 46 38 25 18 17 17 15 13 12 11 11 11 11 12 12 10 8 6 5
38 47 55 55 58 53 55 50 41 40 36 35 38 37 35 40 45 48 50 53 55 56 58 58 51 40 24 18 18 16 14 12 12 12 12 12 12 12 10 8 6 6 6
47 51 57 58 54 52 56 52 43 39 36 38 39 38 40 46 49 52 54 56 56 58 61 62 55 40 22 19 18 14 13 12 12 12 13 12 12 11 11 10 9 7 7
53 56 55 58 52 52 57 51 45 39 38 40 41 42 46 49 53 56 58 60 60 62 64 64 54 31 21 19 16 14 13 13 13 13 13 12 11 11 12 13 15 16 10
45 48 54 57 59 54 58 52 46 40 40 43 44 46 49 53 57 59 64 67 66 66 67 65 49 25 20 17 15 14 13 13 14 13 12 11 10 11 12 15 17 18 17
42 45 52 58 58 59 56 54 45 41 43 46 49 50 53 56 59 64 70 72 70 70 70 63 34 23 18 15 14 14 14 14 14 13 11 11 11 13 15 16 16 17 16
43 45 49 56 59 60 58 54 44 44 47 49 51 53 57 60 63 69 75 76 73 72 70 46 25 20 16 15 14 14 15 14 13 12 11 13 15 16 17 18 18 14 10
42 50 53 59 62 62 62 53 46 47 49 51 54 58 61 62 68 72 79 78 74 72 56 28 21 18 16 15 16 16 15 14 13 13 15 17 18 19 20 17 12 8 6
46 50 56 60 64 64 62 51 48 50 52 55 58 60 62 67 70 76 81 78 77 63 31 22 18 17 16 17 17 16 15 15 16 18 20 20 21 21 15 9 6 7 9
49 51 56 59 59 58 55 51 52 53 54 57 59 63 66 68 73 83 81 80 64 31 23 19 18 17 17 17 16 15 16 17 18 21 22 23 20 13 7 7 8 12 20
45 52 54 56 54 52 51 51 52 54 57 60 63 66 67 73 82 86 79 58 30 24 20 18 17 18 18 17 18 18 17 19 23 24 24 19 11 6 6 9 15 30 44
49 53 54 56 54 53 54 57 60 63 65 67 68 70 73 83 86 76 48 29 23 21 18 17 19 18 18 19 18 19 20 25 26 24 17 9 6 7 10 15 26 32 49
46 50 52 53 60 66 71 74 73 73 73 72 72 75 87 80 68 37 28 22 21 18 19 21 20 20 20 19 20 22 26 27 23 16 8 6 7 14 23 29 34 40 48
53 57 62 68 71 75 77 77 77 77 75 75 83 83 72 50 31 26 22 20 18 21 23 21 21 21 23 22 25 28 28 24 17 8 5 10 18 26 33 39 43 43 40
59 64 66 70 73 76 79 80 81 80 84 82 72 55 34 27 23 22 20 19 23 23 21 23 25 27 26 30 31 29 24 17 10 5 10 20 27 32 37 46 45 37 50
63 65 70 75 78 81 83 84 83 77 70 57 37 28 24 21 21 19 21 24 24 23 24 25 27 31 35 34 31 25 16 9 5 9 19 24 30 33 43 44 42 61 81
63 68 72 74 78 80 76 73 69 58 40 28 24 20 21 20 20 22 25 25 24 25 26 26 32 38 36 33 26 17 9 6 9 18 23 29 32 42 43 42 68 86 86
69 75 78 79 75 73 70 61 42 29 24 20 21 21 18 20 24 27 27 26 26 27 28 34 36 35 34 28 18 10 7 8 19 25 30 35 41 45 42 72 90 93 93
75 77 74 74 72 65 47 30 25 19 21 21 18 19 22 26 27 26 25 26 30 31 36 37 37 36 30 21 11 7 8 16 26 29 34 41 46 46 74 90 95 91 91
72 74 74 69 55 34 25 20 22 21 18 18 20 25 28 27 25 27 29 32 35 38 39 41 38 31 23 12 8 9 15 27 31 34 37 42 43 69 86 88 84 92 92
74 70 57 35 26 21 22 22 19 18 20 23 26 26 24 26 28 30 34 39 42 44 45 39 32 24 13 9 9 13 25 33 35 35 41 45 62 86 85 71 89 95 91

GFSMW_700_rhum_036.txt.gz
RH
38 43 45 51 54 36 41 46 41 36 35 33 39 44 46 50 45 65 86 50 80 52 38 36 37 39 43 43 42 30 20 13 10 11 12 13 14 14 13 13 12 11 10
33 33 38 55 56 46 48 46 41 40 34 32 34 44 54 55 56 73 92 52 49 39 37 39 42 46 43 36 28 20 16 12 14 16 17 16 15 14 13 13 13 11 10
35 38 44 59 57 52 50 45 43 40 35 32 36 46 49 55 55 49 74 47 37 36 41 44 45 43 38 31 23 18 15 16 17 18 17 15 15 15 14 13 13 12 12
30 35 44 54 55 53 50 49 46 42 39 36 35 40 51 56 47 45 86 39 37 43 46 46 47 44 41 36 27 19 17 18 19 18 15 14 14 14 17 16 15 14 13
28 32 46 49 58 56 53 52 51 43 41 43 42 41 41 42 44 44 40 39 46 49 50 51 50 52 50 42 30 20 19 20 19 16 14 13 12 12 13 15 14 10 7
19 34 45 59 63 59 55 52 53 46 41 39 36 34 37 42 42 40 40 48 51 53 54 53 54 55 55 49 33 20 20 19 16 14 13 13 13 14 14 13 9 7 6
27 24 43 61 60 60 57 53 54 50 41 38 34 35 40 40 38 41 49 52 54 56 56 56 57 57 58 54 31 20 20 17 15 13 13 13 14 14 12 9 7 7 7
35 28 31 53 58 60 59 53 55 54 42 38 36 39 39 38 39 48 52 55 57 59 61 62 62 61 61 53 24 20 18 15 14 13 14 14 14 12 10 9 8 8 8
45 45 47 42 57 60 60 57 54 56 44 38 38 40 40 40 48 52 55 58 60 64 67 68 67 64 64 40 21 19 16 15 14 14 15 14 12 11 11 11 12 12 9
54 48 51 49 47 60 60 55 57 56 45 40 42 42 42 46 51 55 58 60 63 69 73 73 71 67 59 24 20 17 15 14 15 16 14 13 12 12 13 14 16 18 18
45 57 54 51 55 63 58 56 59 56 46 42 44 45 46 50 55 57 60 62 66 72 76 77 73 69 34 21 18 16 15 16 16 15 13 13 12 13 15 18 19 20 19
35 47 46 48 56 63 61 60 60 55 46 45 48 48 50 55 58 59 62 66 70 74 80 78 73 47 22 19 17 16 17 17 16 14 13 13 14 16 18 20 19 17 12
46 46 46 49 58 64 65 65 61 55 46 48 51 53 56 59 62 64 68 70 72 76 82 76 58 24 20 18 16 17 17 17 16 15 14 15 16 17 18 18 15 9 5
53 50 48 55 64 69 68 65 60 55 49 52 55 58 60 63 66 69 71 71 71 85 82 62 26 20 18 17 18 18 17 16 16 16 17 18 18 19 17 12 6 6 8
51 50 54 60 69 70 68 66 64 55 53 56 60 62 64 68 71 72 72 69 83 84 64 27 21 19 18 19 19 17 17 16 16 19 19 19 19 16 9 6 8 14 19
55 55 63 68 70 72 71 70 63 56 58 62 64 66 69 72 73 73 72 82 83 60 27 22 20 18 21 20 18 18 17 19 20 18 20 20 15 8 6 13 19 26 30
52 58 65 70 72 69 68 66 59 60 63 66 69 71 72 73 75 75 85 78 51 27 22 20 19 22 21 18 18 19 19 19 19 23 22 15 7 7 14 18 19 22 37
61 66 70 70 68 66 63 64 66 69 71 73 74 75 78 79 79 89 71 38 27 23 21 20 22 21 19 19 19 19 19 20 25 23 14 7 6 13 19 20 21 29 40
70 76 78 75 70 68 68 71 76 80 84 84 85 83 83 90 78 58 30 27 24 20 21 23 21 19 20 19 19 19 22 27 24 15 7 6 13 21 25 27 28 35 34
66 73 75 73 73 72 77 83 88 91 91 88 87 92 80 62 36 28 26 24 21 22 24 22 21 21 19 19 24 27 28 24 16 8 6 14 22 27 29 35 38 34 59
62 66 68 70 72 76 83 90 93 92 91 90 78 61 39 29 26 25 22 21 23 24 22 22 24 21 22 27 29 30 25 16 9 6 11 20 25 28 34 40 40 66 73
59 62 67 69 74 81 88 91 89 83 75 59 40 29 26 25 25 22 22 24 23 22 22 21 21 27 31 31 30 25 17 9 7 9 19 25 27 33 41 43 72 78 78
66 70 72 76 80 84 83 79 75 62 42 30 26 24 25 21 21 23 26 24 23 22 19 18 23 27 30 29 26 19 10 7 8 19 26 28 33 40 43 78 83 82 78
72 74 76 80 80 76 74 64 46 30 25 22 25 22 20 21 24 25 23 24 22 20 20 23 25 28 28 26 20 12 7 8 16 24 27 32 39 45 78 87 86 80 93
73 79 79 77 75 66 48 31 24 21 24 22 20 20 23 25 24 23 24 23 21 23 24 28 29 28 26 20 11 8 9 16 26 26 31 33 40 67 85 80 79 96 94
74 75 75 68 51 32 23 22 23 21 20 20 22 24 23 23 23 23 24 24 27 33 34 33 31 28 20 11 8 9 14 26 28 28 32 39 55 84 76 73 91 97 95

GFSMW_700_rhum_039.txt.gz
RH
26 32 40 59 55 57 56 45 41 40 44 38 39 42 44 52 61 59 68 98 87 89 79 43 36 37 43 44 39 32 24 18 14 14 15 17 18 17 16 15 14 14 13
28 28 31 42 54 52 54 43 44 48 45 41 36 36 42 55 66 71 68 99 96 77 52 39 40 45 45 42 38 34 28 20 16 16 19 19 18 16 16 15 15 14 14
22 27 29 32 37 42 46 47 49 49 45 42 36 36 44 57 66 73 77 98 98 59 40 40 46 47 46 47 49 45 37 24 18 19 20 20 19 18 16 16 16 15 14
17 21 26 34 37 36 46 54 53 50 45 42 35 33 41 56 67 67 86 99 99 64 40 47 50 50 51 54 52 52 43 25 19 20 21 20 18 18 18 17 18 16 15
14 16 21 30 39 41 56 56 54 51 47 40 40 39 39 52 72 87 97 92 98 44 48 52 53 54 55 56 55 54 50 27 19 21 20 18 17 17 17 18 17 15 12
15 14 18 29 38 52 56 56 54 54 52 42 42 44 47 55 55 77 99 56 87 48 53 55 57 58 60 60 56 54 51 24 19 21 19 18 18 17 16 16 14 12 9
17 17 23 33 38 54 52 55 55 55 55 45 42 40 39 42 72 100 99 96 50 54 57 59 62 65 66 66 61 57 47 20 20 18 17 16 15 16 15 13 11 10 9
19 18 30 32 48 53 54 57 58 56 56 49 42 38 37 56 97 70 52 48 54 57 60 64 68 70 70 70 65 59 30 20 19 17 16 15 16 15 13 11 10 10 10
32 23 42 35 47 58 60 61 59 56 58 54 44 38 38 66 55 46 46 53 57 61 66 69 70 72 74 74 65 48 21 19 17 16 16 16 15 13 12 11 10 10 10
31 51 47 44 38 52 62 61 61 60 59 57 45 39 40 42 44 46 52 56 61 66 68 70 69 74 78 74 61 29 20 18 16 16 17 15 13 12 12 11 11 12 12
36 36 64 52 54 43 59 62 62 61 59 57 47 41 43 45 46 51 57 61 64 67 69 70 71 77 81 70 41 22 18 17 17 17 15 14 13 13 13 13 15 15 14
27 38 56 58 52 54 52 58 63 61 61 58 50 46 46 48 52 57 61 64 66 69 70 71 74 84 78 52 24 19 18 17 18 16 14 14 13 13 15 17 16 14 12
20 27 54 60 60 60 60 64 64 61 63 60 53 51 51 52 56 61 65 68 70 70 72 74 83 84 58 27 20 18 18 18 16 15 14 13 14 16 18 16 14 11 6
26 25 26 46 59 62 66 68 62 64 66 62 58 56 56 58 62 66 69 72 72 74 75 82 87 63 29 21 18 19 19 16 16 16 15 16 17 18 17 14 10 6 7
58 50 52 53 57 65 71 71 70 69 65 63 59 60 62 63 66 71 74 76 76 76 82 87 64 30 21 19 20 19 16 16 15 15 17 19 20 18 14 9 6 10 15
65 58 56 61 68 74 74 74 72 67 63 60 64 66 65 68 73 76 78 79 78 85 88 60 30 22 19 20 19 17 16 14 14 17 20 21 18 15 10 6 11 20 22
62 61 65 71 76 77 76 73 71 68 65 65 68 68 71 74 76 78 80 81 90 86 61 28 22 19 21 20 18 17 14 15 19 21 20 18 15 9 6 9 16 19 26
65 66 71 76 78 79 79 80 77 70 69 70 71 72 73 76 81 85 85 95 84 50 26 22 20 23 19 18 16 14 15 19 22 21 18 16 9 6 9 16 18 22 36
71 74 80 83 82 84 82 80 73 71 71 72 73 76 83 90 90 91 95 69 35 25 21 22 23 19 18 16 14 16 19 20 19 18 16 9 6 10 19 21 22 31 36
78 80 84 86 82 74 73 74 75 77 80 86 91 93 92 92 94 75 42 28 24 21 24 24 20 18 15 15 18 20 20 18 17 17 9 6 12 20 22 27 36 35 58
73 70 74 80 81 82 84 90 97 97 95 95 92 93 92 72 48 32 25 22 22 25 22 20 19 16 16 19 21 21 19 18 16 8 6 10 19 22 27 36 40 63 74
65 76 82 81 84 91 96 95 91 91 93 92 86 68 45 32 26 24 22 24 25 21 20 18 17 19 22 22 20 19 19 14 6 6 8 17 21 26 34 42 70 78 73
70 74 82 82 84 88 91 96 96 89 80 65 45 33 26 25 21 22 25 23 21 20 16 14 16 21 22 20 19 18 12 5 6 8 18 23 25 31 40 71 82 73 71
74 76 77 83 86 87 88 83 78 63 45 33 27 25 21 22 24 25 22 22 19 16 15 17 20 21 19 18 17 9 4 5 7 13 22 25 29 40 68 86 78 80 93
78 83 86 90 87 81 76 64 45 32 26 25 22 22 24 25 23 22 21 18 16 16 18 21 21 18 18 16 7 5 5 9 15 21 23 26 33 62 83 75 89 98 95
84 85 83 82 77 65 46 32 24 24 22 21 23 24 23 22 22 20 18 18 19 23 26 25 22 21 15 6 5 6 9 16 23 22 24 32 54 83 72 85 92 99 96

GFSMW_700_rhum_042.txt.gz
RH
23 26 28 35 46 58 57 54 49 52 50 44 46 47 50 51 46 52 58 67 66 74 84 98 65 44 37 42 43 39 36 38 34 26 18 17 19 20 19 18 17 17 16
22 23 26 27 34 41 51 57 51 48 49 42 47 44 42 46 50 54 66 72 78 88 83 88 56 38 42 46 45 47 47 47 45 32 19 18 19 20 20 19 17 17 17
22 20 21 25 27 35 40 47 53 52 46 46 50 45 43 41 43 53 66 76 85 91 96 90 46 42 48 50 51 51 49 47 47 43 24 18 19 21 20 18 18 17 17
25 22 20 20 24 27 34 37 48 54 42 46 51 47 45 42 44 56 73 89 98 99 96 61 42 48 53 54 54 55 53 51 48 44 28 19 20 21 21 19 18 18 17
26 25 20 18 20 26 31 32 39 43 40 52 50 47 43 39 40 64 84 97 88 99 72 80 49 54 57 58 60 61 63 59 54 47 26 19 21 20 19 19 18 17 16
32 28 22 16 18 25 32 35 36 44 48 53 50 46 41 43 44 68 91 97 99 98 94 51 54 58 61 64 66 68 67 63 56 44 22 20 20 20 19 18 17 15 12
25 30 21 15 15 22 27 40 44 52 56 53 50 46 42 49 62 77 98 99 98 83 100 54 58 62 66 70 71 71 71 66 57 34 21 20 20 19 17 16 14 12 12
26 32 22 20 16 22 28 44 55 59 58 54 54 48 42 45 49 85 95 99 96 99 56 58 62 67 72 73 71 73 74 67 49 26 20 19 18 17 16 14 12 12 12
29 30 32 23 27 26 35 46 59 60 59 55 55 50 42 41 46 66 86 99 71 54 57 62 67 73 73 72 72 77 76 62 35 21 19 18 17 16 14 13 12 12 12
48 28 31 33 42 34 48 56 62 65 61 57 56 54 44 42 46 98 99 99 84 56 62 67 73 75 75 72 73 80 72 44 23 20 18 18 16 14 13 12 12 11 11
56 26 39 48 47 44 52 60 65 68 65 60 58 56 46 44 98 100 99 56 55 61 66 72 77 77 74 72 76 80 56 26 20 18 18 16 14 13 12 12 11 11 11
58 36 44 72 65 46 53 61 68 69 66 64 62 57 46 50 85 84 53 53 59 65 70 76 78 76 74 74 82 66 31 20 18 18 16 14 14 12 12 12 11 10 11
66 47 40 55 69 51 52 63 63 67 67 68 63 56 50 80 54 54 54 59 65 70 75 78 79 76 75 83 70 37 21 19 19 16 15 13 12 12 12 12 11 11 11
91 52 32 57 66 67 55 57 61 66 69 68 64 61 60 58 55 58 61 65 70 75 78 79 78 76 83 73 46 21 19 19 17 16 13 13 14 13 12 12 13 12 8
89 60 29 44 64 66 68 67 72 71 74 71 72 69 69 63 61 64 66 72 76 80 80 79 78 89 78 50 21 19 19 17 16 13 14 14 12 12 13 14 12 7 5
86 53 32 30 54 72 75 80 78 82 83 100 86 80 75 66 68 70 74 78 81 80 81 83 93 89 35 21 19 20 17 15 13 14 14 12 12 14 14 11 6 7 14
84 59 38 40 67 81 85 84 93 97 99 99 94 75 72 72 74 76 80 83 82 84 89 97 85 26 20 20 19 18 15 14 14 14 13 14 15 13 8 5 6 13 19
80 76 74 77 94 99 100 100 100 99 98 86 77 73 75 76 80 84 84 83 90 97 97 49 24 20 21 19 18 14 14 14 14 14 15 15 11 6 5 6 12 18 23
85 90 99 100 99 98 96 89 84 78 76 76 77 76 79 83 86 90 94 98 99 75 28 22 21 21 19 17 14 14 15 14 13 14 14 8 5 5 8 15 19 22 31
85 85 89 91 90 88 88 85 83 80 78 77 77 81 85 99 100 99 98 85 37 24 21 22 20 19 17 14 14 15 15 14 14 12 6 4 5 7 17 22 25 29 42
83 83 85 88 89 89 88 84 80 78 78 83 94 100 100 99 98 85 46 27 22 22 23 20 19 16 14 15 16 14 14 14 10 5 5 5 7 15 21 25 32 45 73
85 91 90 92 96 96 94 88 92 97 100 100 99 99 99 82 48 29 23 22 22 22 21 19 16 15 16 15 14 14 14 9 5 5 5 8 15 20 23 31 51 75 72
82 85 90 88 91 96 100 100 100 100 100 99 97 75 45 29 24 22 22 23 21 20 18 15 14 15 15 13 13 13 8 5 5 6 10 16 19 22 30 55 78 71 73
87 89 92 92 92 98 100 100 100 100 96 73 45 29 25 22 22 23 22 22 20 16 14 14 14 13 12 14 13 9 6 5 6 14 16 19 21 31 61 80 77 89 95
85 90 96 100 100 99 98 96 91 69 44 29 25 23 22 23 23 22 22 19 16 15 14 14 13 13 15 14 9 6 6 6 15 17 18 22 29 62 76 78 95 97 96
90 94 100 100 99 92 84 66 44 28 25 23 22 23 24 22 22 21 18 16 14 14 15 15 15 17 16 9 7 7 8 15 18 18 21 27 56 75 76 87 89 96 94

GFSMW_700_rhum_045.txt.gz
RH
22 19 23 25 43 50 54 57 54 49 49 50 52 53 48 47 53 56 57 61 58 64 67 68 72 85 56 39 36 41 40 42 43 42 42 40 33 22 18 19 20 21 20
23 22 21 22 25 36 47 50 56 54 50 50 52 54 50 43 48 52 59 61 61 73 78 77 80 84 53 38 42 43 44 44 43 42 44 44 38 28 20 19 20 20 20
26 26 25 23 21 25 28 37 56 58 54 51 54 56 46 39 46 49 48 52 63 77 89 89 85 90 53 40 46 48 49 50 53 55 54 49 43 33 22 20 20 20 19
28 27 27 26 23 22 25 26 39 59 60 56 52 51 45 44 46 46 52 59 65 73 82 92 98 78 44 46 50 53 56 60 62 60 60 55 45 29 22 20 20 20 19
40 41 31 26 25 26 25 26 29 40 54 59 51 52 48 50 48 46 48 56 70 78 95 97 100 96 49 51 55 58 62 66 66 66 63 58 48 29 21 21 20 20 18
26 29 22 26 24 23 29 24 30 31 38 47 50 55 51 50 49 46 44 56 75 85 96 79 99 81 53 56 59 62 66 68 66 66 66 59 45 26 21 21 20 19 16
19 12 14 23 26 23 21 21 24 38 36 39 49 48 55 52 49 44 48 60 82 96 92 100 80 64 55 59 62 67 68 67 64 67 67 59 37 22 21 20 18 16 14
50 46 23 13 26 25 19 19 23 38 40 46 45 56 56 52 48 46 55 68 85 99 99 95 93 63 58 62 66 68 68 65 63 70 68 50 26 21 20 18 16 14 14
66 58 36 30 28 24 22 18 23 39 51 50 52 59 55 54 47 47 53 67 85 99 90 91 92 60 62 65 69 69 68 64 66 73 65 35 21 20 18 16 15 14 14
46 41 45 28 36 34 29 23 26 45 64 65 64 60 57 56 46 46 50 84 74 100 99 83 64 60 65 70 71 70 68 66 73 71 46 22 20 18 16 15 14 13 12
74 47 53 44 33 36 33 37 36 54 70 72 66 60 59 56 47 46 91 64 99 98 96 91 62 65 69 72 73 71 68 72 74 59 23 19 18 16 15 14 13 12 9
65 56 40 54 32 46 42 55 42 53 71 72 68 61 60 58 48 78 64 99 98 96 75 62 65 69 72 75 75 71 73 77 70 23 19 18 16 15 14 13 11 8 7
73 41 43 63 41 69 60 64 55 65 72 73 68 65 62 58 51 72 100 100 99 69 63 66 70 73 76 78 75 76 79 75 24 20 18 17 15 14 12 10 8 7 9
73 48 52 67 46 67 74 66 67 74 74 73 71 69 65 57 76 94 95 94 68 63 66 71 74 77 80 79 82 83 75 22 20 18 17 15 13 12 10 7 8 10 8
75 69 70 55 46 55 78 67 70 76 76 75 73 71 65 64 94 93 66 65 64 66 70 75 80 82 84 88 89 63 21 20 18 17 14 13 12 9 8 9 9 6 4
86 100 87 38 45 60 80 73 76 78 76 78 80 75 82 98 79 73 68 66 68 72 76 81 85 90 93 93 34 20 20 18 16 14 13 11 8 8 9 7 5 4 5
98 100 49 33 53 70 85 84 82 85 93 98 98 100 99 94 82 72 71 75 75 79 84 89 95 96 76 23 21 20 19 16 14 12 10 9 10 9 6 5 4 5 8
100 71 33 38 62 78 96 99 99 94 99 97 99 100 100 89 85 96 84 80 84 90 95 97 94 36 22 21 20 18 15 14 12 10 9 10 8 5 5 5 5 8 14
84 60 39 40 82 98 100 100 98 100 99 100 100 99 96 95 86 81 84 92 96 98 97 59 24 21 21 20 17 15 13 11 8 9 10 7 5 5 5 6 8 14 18
90 79 89 99 99 99 100 100 100 100 100 99 95 94 84 81 84 94 97 98 97 78 27 22 22 21 20 16 14 13 11 8 9 10 7 5 5 7 9 14 17 17 23
100 100 100 100 100 100 100 100 99 93 91 89 84 83 86 93 98 98 97 76 30 24 22 22 21 19 16 14 12 11 9 10 10 7 5 5 8 12 15 18 21 30 59
90 92 94 94 95 96 94 90 88 89 93 94 94 98 100 98 96 65 32 24 22 22 22 21 17 15 14 12 10 10 11 10 8 6 5 7 13 14 17 24 40 70 70
93 92 94 93 93 96 98 98 98 97 98 100 99 98 94 56 30 24 22 23 23 22 20 16 14 14 13 10 9 11 10 8 6 6 8 13 13 15 24 48 72 70 77
96 95 95 98 98 99 99 99 99 99 99 98 91 53 29 25 22 23 23 23 22 18 16 14 13 12 10 9 11 11 8 7 8 9 13 14 14 23 53 69 76 84 84
89 89 95 100 100 99 99 99 100 99 86 50 30 26 23 24 24 23 23 20 17 15 14 13 11 9 10 12 12 8 6 8 11 12 14 14 22 55 66 74 83 86 87
97 99 99 99 99 99 99 98 78 46 29 26 24 24 25 24 24 22 19 16 14 14 12 10 9 10 13 13 9 6 10 12 13 13 14 21 53 67 76 80 82 88 90

GFSMW_700_rhum_048.txt.gz
RH
19 22 23 21 25 43 58 67 53 55 53 54 51 46 48 55 53 50 46 43 48 59 63 59 65 66 71 78 60 39 34 41 40 39 36 37 44 45 44 39 30 24 20
17 19 23 23 26 25 44 61 73 62 48 51 52 53 58 58 55 53 48 44 48 61 66 66 70 75 75 79 62 41 39 44 44 43 46 49 49 49 48 46 39 28 22
18 19 19 21 24 23 26 44 61 68 67 49 54 56 57 55 52 54 49 44 51 56 68 70 81 88 86 86 89 70 44 48 49 52 56 55 54 53 52 50 44 32 24
19 20 23 27 32 28 26 26 45 60 64 63 60 57 55 54 53 58 53 52 52 55 63 71 73 91 87 88 77 46 49 51 53 57 58 55 56 57 56 52 44 31 22
12 10 19 26 34 41 44 32 32 34 44 56 60 61 60 57 56 57 53 52 54 55 63 74 82 89 93 96 69 48 53 55 59 59 57 56 55 57 60 56 41 25 21
11 16 18 17 20 28 39 41 43 39 44 50 44 57 63 61 58 56 51 52 52 59 62 77 90 100 100 87 85 54 56 59 62 62 60 57 56 59 63 59 38 23 20
23 22 27 26 20 19 22 31 36 48 53 63 44 42 62 65 63 56 54 54 51 53 62 85 95 100 89 96 73 54 60 62 64 63 62 58 58 63 65 51 26 21 19
36 38 34 26 29 22 14 27 40 37 58 48 48 44 42 60 62 56 57 53 50 58 77 95 99 99 99 86 60 58 62 65 66 65 64 62 63 67 62 31 21 19 17
33 33 29 27 42 36 25 25 36 42 38 40 55 57 56 51 46 53 58 52 52 66 83 99 100 100 96 95 65 61 66 68 68 66 65 65 68 66 39 21 19 17 16
44 40 32 31 38 34 30 34 34 42 32 36 52 62 74 61 52 61 56 53 61 78 96 92 90 98 95 87 62 65 69 70 70 68 67 71 70 44 21 19 17 16 15
55 55 47 33 47 44 66 44 47 41 42 33 43 63 68 57 66 59 58 57 81 96 100 98 100 100 84 71 64 68 71 73 72 71 75 75 47 21 19 17 16 14 12
60 64 69 49 55 42 57 71 51 59 68 26 51 73 72 72 65 61 57 76 86 92 84 89 96 90 86 65 69 72 74 75 76 79 78 39 21 19 18 16 14 11 8
68 68 68 55 46 41 63 89 94 100 54 33 79 86 80 74 64 61 84 63 99 83 100 100 95 84 66 70 73 76 78 80 82 78 31 21 19 17 15 13 10 7 7
71 81 81 62 45 56 74 99 98 91 44 52 77 82 80 69 66 64 75 98 84 99 100 99 83 68 71 74 78 82 85 86 71 23 20 19 17 15 12 8 7 6 6
92 88 72 60 50 75 98 98 99 74 58 70 79 87 80 81 73 69 66 96 100 98 97 89 69 73 78 83 85 91 92 52 22 20 19 16 14 11 8 7 7 6 5
97 93 76 68 57 88 100 91 82 77 77 84 96 96 97 84 71 97 100 100 100 96 78 71 80 96 87 90 97 86 27 21 20 18 15 13 9 7 7 7 6 5 5
98 94 82 96 99 80 62 80 91 83 86 93 99 100 90 85 96 99 100 99 86 87 79 94 88 90 98 97 65 22 21 20 17 14 12 8 7 7 6 5 4 5 8
99 98 100 99 79 75 90 100 98 97 98 98 100 97 100 100 100 100 99 84 80 95 88 89 97 98 85 26 22 21 19 16 13 11 8 7 7 6 5 4 5 8 10
99 99 93 70 79 92 100 100 100 100 100 99 100 100 100 100 99 98 97 98 88 89 97 98 93 29 22 22 21 18 15 12 10 8 8 7 6 5 5 6 9 10 11
91 82 68 73 94 100 100 100 100 100 100 100 100 100 100 98 98 93 88 91 98 98 93 28 23 22 22 20 17 14 12 9 7 8 8 7 6 5 7 11 11 12 29
91 71 95 97 100 100 100 100 100 100 99 99 99 98 94 93 89 94 98 98 83 30 24 23 23 22 19 16 13 11 8 7 7 8 7 6 6 9 12 12 17 38 58
100 100 99 100 99 100 99 99 97 98 96 88 82 88 97 98 98 97 66 31 24 23 23 23 20 17 14 12 10 8 7 8 8 7 5 7 11 12 12 19 46 62 64
99 100 100 99 99 98 96 92 93 96 98 99 100 100 100 95 56 29 24 23 24 24 22 18 15 14 12 9 8 9 10 10 7 6 8 11 12 12 20 50 62 67 71
99 98 100 100 100 99 98 98 99 100 100 100 99 89 51 28 25 24 24 24 23 20 17 14 13 10 8 8 9 10 10 7 5 8 10 11 11 19 51 62 70 75 73
100 100 99 99 100 98 100 100 100 100 97 76 43 27 25 24 25 25 24 21 18 16 14 12 9 8 8 9 9 7 5 5 8 10 11 12 19 53 61 69 73 78 78
100 100 97 100 100 100 100 99 87 63 37 26 25 24 25 26 25 23 19 17 15 13 11 9 8 9 9 8 5 5 7 10 10 11 12 17 51 62 68 69 70 80 86

GFSMW_700_rhum_054.txt.gz
RH
21 15 18 25 36 39 54 60 62 64 60 63 62 53 54 56 56 57 56 51 49 54 54 48 46 54 63 67 62 69 76 77 66 50 43 45 49 49 53 54 52 50 49
17 21 23 22 21 19 19 25 48 71 69 67 69 69 63 55 59 60 61 60 55 53 64 57 51 60 64 67 73 83 87 84 84 76 62 55 52 55 54 55 52 50 49
10 11 14 16 19 23 26 27 24 41 74 77 74 72 71 71 68 62 65 58 56 55 64 66 60 59 64 68 74 85 95 98 92 91 76 61 56 54 57 55 53 52 50
14 13 14 14 14 17 27 31 31 34 61 77 77 77 78 76 72 72 67 62 60 59 70 69 65 68 67 66 74 82 92 94 95 84 68 54 56 58 56 56 54 54 53
15 14 12 12 17 22 24 34 43 44 48 56 64 71 77 85 89 87 76 72 69 67 73 72 67 64 62 67 74 79 88 96 98 92 63 55 59 62 63 60 58 57 57
12 12 14 14 12 12 18 28 32 43 52 57 58 64 67 83 88 87 85 74 70 69 73 73 68 66 62 64 77 84 86 96 89 100 93 72 61 63 64 62 61 60 60
25 26 25 24 26 25 18 19 26 35 44 49 57 60 64 66 70 82 86 85 77 75 76 76 76 71 67 65 73 83 92 99 97 100 98 90 62 64 66 65 64 61 60
34 34 34 35 35 34 30 29 30 28 29 34 41 48 57 57 60 76 81 86 83 75 78 79 82 73 68 64 66 80 89 100 93 100 99 73 65 68 69 68 67 64 64
33 35 35 35 37 38 38 35 34 39 37 31 25 38 42 46 51 55 63 80 74 67 78 82 83 77 70 65 71 97 92 91 99 99 99 95 71 70 70 71 69 70 69
36 36 37 38 38 39 41 44 44 40 35 29 25 25 28 42 48 55 57 65 67 70 82 85 84 83 75 62 96 91 99 99 98 97 100 87 83 76 75 73 76 77 61
55 54 52 52 46 45 49 50 47 46 44 35 28 29 24 39 50 65 67 76 65 72 84 86 88 80 84 96 92 100 100 98 100 100 98 98 81 80 80 81 82 52 22
63 67 66 66 66 66 64 58 55 52 42 43 32 35 29 48 56 67 75 79 71 78 87 91 86 86 99 90 100 90 100 100 99 99 90 85 83 86 88 83 39 21 20
74 77 85 87 78 76 74 70 62 47 49 45 45 43 56 61 76 76 79 65 88 88 90 86 88 99 99 100 97 100 100 96 99 94 97 99 92 93 82 27 21 19 15
98 98 94 92 98 96 88 72 60 51 51 52 57 58 69 72 62 78 71 65 100 93 98 96 100 97 100 100 100 100 100 99 97 93 98 98 93 44 22 21 18 13 10
94 93 92 88 100 98 95 73 69 53 62 70 79 81 84 76 79 52 54 99 99 99 99 100 100 100 100 100 99 99 98 96 98 97 98 52 22 22 19 15 11 8 6
97 96 98 100 99 91 90 76 62 49 77 93 99 88 99 100 91 86 98 100 100 98 100 100 99 98 100 100 99 97 96 94 95 76 23 22 20 16 13 9 6 6 5
98 99 98 100 88 75 81 61 56 65 79 86 87 95 100 90 100 98 100 100 100 100 100 100 99 99 100 98 97 89 93 81 26 23 21 17 14 10 7 6 5 5 4
100 98 97 94 98 98 100 81 79 94 99 99 99 98 75 100 100 100 100 100 99 99 100 99 99 99 97 92 97 87 32 23 22 19 15 12 8 6 5 4 3 4 4
99 98 94 88 83 83 80 100 95 98 98 99 100 96 94 100 100 100 99 99 99 98 98 98 99 93 95 78 26 23 23 20 16 13 9 7 6 4 3 3 4 5 7
61 78 75 67 69 78 84 88 94 100 100 100 95 100 99 98 99 98 99 98 98 98 96 98 96 53 24 24 24 20 17 14 10 7 6 5 3 3 5 6 6 6 7
100 81 78 70 71 93 99 98 96 99 96 97 96 99 98 98 97 98 98 97 96 96 77 28 25 25 24 20 17 14 11 8 6 5 4 3 4 6 7 7 7 8 16
90 100 97 98 100 97 98 97 95 96 98 99 98 97 96 97 98 99 97 86 39 25 24 25 24 20 17 15 12 8 6 6 5 4 4 5 7 7 7 8 9 30 50
89 96 97 94 100 98 100 98 100 99 98 98 98 97 98 98 75 35 26 25 26 25 23 19 17 15 13 10 7 6 6 4 4 4 6 7 8 8 9 12 45 52 52
99 95 98 94 89 94 95 98 96 95 96 97 97 76 35 27 25 26 26 26 23 19 17 16 13 10 8 7 6 5 4 4 6 7 8 8 8 8 13 49 53 58 63
98 99 98 96 92 91 94 96 92 88 72 41 28 26 26 27 28 27 24 20 18 16 14 11 9 7 7 6 5 5 5 6 7 8 8 8 10 19 54 59 63 68 70
97 99 100 98 98 93 88 62 42 30 28 27 27 28 29 29 25 20 18 16 14 12 9 8 7 7 6 5 5 6 7 8 9 9 9 10 20 52 54 56 61 68 73

GFSMW_700_rhum_057.txt.gz
RH
15 18 19 21 33 45 46 63 68 63 60 53 44 48 49 51 52 52 50 53 56 58 56 55 55 52 52 59 60 62 66 74 82 78 71 70 56 47 51 52 51 54 59
26 27 28 30 26 18 23 43 65 70 68 66 60 53 55 57 66 67 64 62 58 60 60 61 61 60 58 59 62 68 71 78 90 88 89 83 73 69 58 57 59 58 56
13 16 20 25 29 22 18 25 40 58 75 75 76 78 69 62 62 57 60 58 57 57 62 65 72 64 61 60 71 72 70 76 88 96 95 92 89 80 68 61 62 61 59
14 13 10 12 19 25 28 30 28 29 34 51 66 76 81 68 59 68 70 68 65 63 66 69 73 75 70 71 75 79 73 75 82 93 97 90 86 66 58 59 60 63 61
17 17 16 15 14 13 15 22 28 35 42 41 44 43 67 80 79 75 87 88 82 70 72 72 73 77 76 76 74 74 75 80 88 97 99 100 93 84 64 63 63 65 65
16 16 16 15 16 16 19 22 20 23 33 38 45 45 53 64 70 77 84 92 93 90 75 69 75 79 91 84 77 79 75 79 86 98 99 100 99 92 78 71 68 69 70
20 19 18 18 18 19 20 25 20 23 31 32 48 56 57 58 60 64 72 77 88 89 86 77 72 76 87 86 80 75 76 77 92 98 95 98 100 99 100 85 70 69 71
27 29 32 33 33 33 33 34 31 24 27 27 29 38 55 62 65 66 70 72 84 93 93 84 77 77 87 91 85 79 80 89 90 100 100 100 98 100 99 79 79 73 72
32 34 33 34 34 35 36 36 36 36 36 33 35 38 38 33 48 49 59 64 68 82 85 83 79 78 80 86 91 81 87 99 91 100 100 100 100 98 98 98 84 85 75
36 36 36 36 36 37 37 37 38 38 38 37 38 42 38 33 30 35 46 52 58 64 76 80 82 78 83 96 95 90 95 99 84 100 97 100 100 94 94 96 98 91 83
52 50 50 54 52 51 48 46 47 46 45 46 48 46 38 33 28 28 28 47 56 56 68 73 82 85 90 96 94 97 100 94 100 96 100 100 95 98 99 84 87 85 85
82 67 63 66 66 65 65 63 72 68 64 58 54 46 36 33 34 33 31 44 61 60 74 85 84 83 94 98 96 100 88 99 100 99 99 99 99 98 98 98 94 93 88
100 84 66 65 65 75 85 78 78 76 72 65 45 46 59 55 38 39 45 58 60 79 86 94 80 88 97 100 100 98 100 100 100 100 100 99 98 98 98 96 92 38 22
91 72 73 70 55 74 92 94 82 82 76 58 48 58 69 66 59 63 66 73 90 78 94 79 97 100 100 99 100 100 100 100 99 100 100 98 98 97 93 42 22 21 17
96 83 90 94 76 73 97 90 93 85 75 60 52 58 76 78 78 77 90 100 93 91 72 93 100 100 98 100 99 99 100 98 98 99 99 98 96 37 23 22 17 14 10
86 90 80 90 76 99 90 92 99 82 63 55 60 78 89 96 92 95 90 71 83 87 65 100 99 98 92 100 100 99 98 98 98 100 96 31 23 22 17 14 10 7 6
90 92 88 93 87 91 94 90 76 74 48 48 77 89 98 93 95 83 98 91 82 60 100 99 100 100 99 99 99 98 98 98 96 45 24 22 18 14 11 7 6 4 4
91 81 92 100 99 100 100 100 100 98 90 87 99 96 99 100 99 84 96 100 99 100 100 99 100 99 97 99 97 98 88 35 24 23 18 15 11 8 6 5 4 4 6
72 82 85 99 100 96 81 85 80 84 89 99 96 88 99 98 98 100 100 100 99 100 100 100 97 98 99 97 78 27 24 23 18 16 12 8 7 5 4 4 4 6 7
97 60 62 80 80 95 100 98 99 99 100 97 99 100 100 100 100 99 97 98 100 99 96 96 98 97 42 25 26 23 18 16 13 9 7 6 4 4 4 5 6 6 7
93 78 93 96 99 100 100 100 100 100 91 94 96 99 99 98 99 98 98 97 98 97 94 50 26 25 25 22 18 15 13 9 7 6 5 4 4 5 6 7 7 7 7
80 89 98 99 99 98 99 100 96 89 99 97 97 96 97 98 97 98 97 89 48 29 26 26 24 20 17 15 12 9 7 7 6 5 5 5 5 6 7 7 7 10 36
88 84 86 99 99 100 99 93 90 94 96 98 98 99 97 97 77 42 27 26 27 27 23 19 17 14 11 8 7 7 6 6 5 5 5 6 8 8 8 8 21 44 45
91 88 89 90 88 88 92 97 92 96 98 98 90 55 30 27 26 27 28 26 21 18 16 13 10 8 8 7 7 6 5 5 5 7 8 9 9 8 8 32 45 47 50
92 90 90 88 88 88 91 90 91 83 52 33 28 27 28 29 29 24 20 18 16 13 10 8 8 8 7 6 5 4 5 7 8 9 10 11 10 10 41 52 53 53 59
88 89 91 92 84 79 72 54 37 29 27 27 29 30 30 25 21 19 16 14 11 9 9 8 7 6 4 4 4 6 7 8 10 11 12 12 11 46 50 51 55 61 69

GFSMW_700_rhum_060.txt.gz
RH
13 16 26 36 40 48 54 54 56 54 53 50 43 40 37 42 50 53 55 53 53 58 61 60 59 58 55 57 58 57 60 66 67 64 73 76 74 77 70 59 56 54 55
21 19 21 21 22 24 28 40 54 58 63 60 52 52 52 51 51 54 62 59 59 63 64 64 66 67 62 61 60 60 68 72 71 69 81 83 83 83 82 79 68 61 62
22 23 24 28 27 24 27 26 28 45 55 57 57 66 73 70 57 48 52 49 65 64 71 68 69 72 69 68 69 69 77 84 81 77 84 90 94 93 87 82 75 67 62
16 13 13 14 21 26 30 34 31 25 26 29 42 60 70 73 73 70 64 66 64 59 63 61 71 73 72 73 73 76 78 88 92 90 88 90 98 99 93 86 76 70 69
21 18 18 18 16 13 16 25 36 36 32 26 29 42 61 73 75 71 69 76 74 73 80 74 73 76 76 73 76 82 82 86 94 98 94 96 100 100 94 97 96 86 74
25 24 22 20 19 18 18 18 20 26 32 40 42 41 40 41 44 45 50 56 75 75 74 75 76 76 78 73 79 87 87 86 94 97 80 90 100 100 99 98 97 96 90
23 22 20 18 17 17 17 18 21 23 26 32 36 43 50 56 59 60 57 53 63 75 77 80 89 85 81 79 80 88 93 88 92 88 85 100 98 100 98 100 100 100 91
27 24 24 29 31 33 34 33 30 31 26 23 29 37 40 45 58 64 65 65 65 68 72 83 88 80 85 80 78 84 94 99 99 88 89 100 100 91 99 100 100 100 98
33 32 32 33 34 35 35 36 37 38 38 36 34 32 34 34 35 38 40 51 62 65 68 68 77 98 97 85 82 85 91 100 99 96 97 99 99 89 100 99 100 97 99
39 40 42 43 43 41 40 40 39 40 39 39 39 39 39 40 41 43 43 38 36 53 57 65 69 76 84 87 88 90 89 96 100 99 100 96 100 96 100 100 100 99 96
49 49 47 48 46 46 45 46 48 48 46 42 43 43 42 44 48 49 45 35 33 38 51 60 67 71 77 85 93 94 90 100 100 99 100 100 99 100 100 100 99 100 99
73 70 61 56 55 54 51 53 57 58 59 57 58 57 55 51 49 51 46 37 33 32 45 60 66 66 84 85 91 92 94 100 100 100 100 99 94 99 100 98 99 99 98
86 80 73 63 54 41 35 41 59 77 75 72 71 69 70 66 59 50 45 44 35 38 40 65 74 80 89 90 88 84 92 100 99 100 100 100 99 100 98 98 99 98 94
89 90 81 64 44 25 24 28 38 75 82 81 78 80 66 52 66 75 70 56 44 45 61 79 85 98 98 99 77 72 79 91 100 100 100 100 98 100 96 97 88 45 23
82 85 59 42 34 31 28 32 63 70 77 85 79 66 60 53 58 66 62 62 76 80 89 85 95 91 97 88 88 100 100 100 100 99 99 98 98 98 92 58 23 20 15
85 70 48 37 34 31 41 54 53 76 77 70 62 51 54 56 72 80 85 93 92 68 97 100 96 92 80 100 96 100 100 100 98 100 98 97 95 43 24 18 14 10 7
96 70 60 44 38 47 58 61 62 66 49 44 47 52 66 75 83 80 87 97 95 95 99 100 98 91 100 99 99 100 99 98 98 97 88 32 23 18 14 10 7 6 4
92 65 56 50 65 69 94 91 71 100 95 86 80 88 99 90 78 93 99 100 99 98 97 95 100 99 98 98 98 98 98 96 74 28 24 18 14 10 7 6 5 4 4
91 82 56 57 67 75 88 94 78 89 97 100 100 100 92 89 99 99 90 99 99 100 100 98 98 100 100 98 99 96 86 34 23 17 13 9 7 7 6 5 4 5 6
86 67 62 71 89 99 100 99 99 98 100 100 100 100 100 100 96 95 98 98 100 96 98 98 98 97 94 66 31 24 19 16 12 9 7 7 6 6 5 5 5 6 7
85 86 84 98 100 100 100 99 99 100 99 99 99 99 100 100 93 97 98 97 97 97 97 94 68 44 26 22 17 13 10 8 8 7 6 5 5 5 6 7 8 7 7
84 91 99 100 96 97 88 87 98 100 98 98 98 98 97 97 96 96 97 89 50 29 26 26 22 18 14 10 9 8 8 6 5 5 5 5 6 8 8 8 8 8 29
78 77 99 99 100 87 85 86 86 88 90 91 91 96 99 98 74 36 27 27 26 22 18 15 11 10 9 8 7 5 4 4 4 5 6 7 8 9 9 9 10 37 42
82 82 86 92 89 83 84 86 85 88 92 91 75 48 30 27 28 28 24 20 18 14 11 10 9 8 6 5 4 3 3 4 4 5 6 7 8 10 9 19 38 41 44
84 84 85 86 83 80 84 86 84 57 34 28 28 28 30 29 24 20 18 14 12 10 10 8 7 5 4 3 3 2 2 3 4 5 6 8 10 9 30 40 42 49 57
84 89 87 84 84 82 75 49 31 28 28 29 31 31 26 22 20 16 13 11 10 9 8 6 4 3 2 2 2 2 2 3 4 5 7 8 14 38 42 44 56 59 64

GFSMW_700_rhum_063.txt.gz
RH
14 14 21 43 48 48 48 47 45 41 46 45 43 41 40 38 40 49 58 58 60 55 59 62 60 58 58 58 63 62 58 59 60 65 70 68 66 72 73 77 75 72 72
12 12 13 15 21 29 35 42 49 52 52 52 53 52 50 43 41 46 51 53 62 61 60 58 62 60 61 63 63 65 64 64 66 74 80 71 72 77 84 86 84 83 80
18 18 18 18 17 16 16 23 30 37 41 46 53 61 68 69 42 35 41 47 50 58 67 67 67 65 66 68 66 68 68 72 70 81 88 85 80 85 89 96 93 86 80
24 23 20 22 24 25 23 23 24 21 21 24 28 40 55 68 70 68 54 61 60 67 65 66 71 80 78 73 72 73 76 78 77 82 88 95 86 85 80 86 89 85 94
23 21 21 19 18 17 18 20 25 30 30 30 30 30 34 45 46 54 74 76 78 78 78 71 72 76 74 77 75 75 77 79 83 87 90 99 98 97 93 85 97 98 83
27 27 27 25 22 20 19 17 17 19 26 31 33 34 36 36 37 40 49 61 64 64 67 71 69 66 83 79 74 76 83 82 86 88 87 93 98 98 93 91 91 98 99
28 29 28 26 24 21 19 19 18 18 19 22 30 39 41 48 53 56 55 54 55 54 57 60 62 67 68 80 84 83 81 80 86 94 99 100 96 94 90 90 85 100 100
28 28 26 26 27 30 31 31 31 32 27 23 24 28 35 39 43 48 53 57 63 62 62 63 68 74 78 80 96 99 87 84 87 91 100 100 99 98 94 87 100 100 97
33 34 34 34 34 35 36 36 36 35 35 36 37 32 25 29 36 39 39 41 50 59 63 63 64 66 74 79 88 99 89 92 92 95 98 99 100 99 91 96 96 100 99
42 40 39 39 39 38 39 40 41 40 38 38 38 39 39 39 38 38 38 39 39 40 40 41 53 62 65 63 75 81 100 96 95 95 99 98 100 100 98 99 100 99 100
50 48 46 45 43 39 36 34 34 38 42 45 48 49 46 42 42 42 42 42 42 44 46 44 37 52 62 70 73 79 88 99 97 95 94 96 93 82 99 100 100 100 99
57 64 62 56 47 42 42 41 41 40 43 50 53 56 57 58 58 53 51 50 48 49 49 46 35 43 58 70 77 83 88 98 94 93 94 87 86 99 100 100 100 96 98
80 75 76 65 46 38 33 30 20 17 19 28 50 69 72 70 68 67 66 64 62 55 51 44 34 42 63 72 78 84 93 90 86 92 95 92 100 99 100 97 99 100 99
81 73 69 53 37 35 26 19 14 15 19 34 55 68 74 76 76 66 52 52 72 67 68 51 40 43 78 85 85 96 95 98 100 100 100 100 99 99 98 98 98 98 97
91 75 68 46 38 28 22 20 20 16 18 29 44 49 55 54 59 55 57 58 61 65 65 57 50 56 82 95 100 100 100 99 99 100 99 99 99 95 97 97 96 80 26
99 92 69 47 41 30 25 26 22 22 24 26 46 56 53 51 55 66 70 60 76 86 100 99 100 100 98 96 99 100 99 100 99 98 98 98 98 98 94 37 21 15 11
92 88 77 46 45 41 34 30 27 35 41 31 37 39 43 53 86 88 78 98 98 97 98 99 99 99 100 100 100 99 99 98 98 97 100 94 91 52 21 16 10 7 7
95 91 83 49 50 49 51 53 40 57 70 72 76 71 50 81 94 92 92 95 99 99 99 98 98 99 99 98 99 98 97 97 97 93 71 28 18 14 10 8 7 6 5
92 83 76 54 60 62 66 70 70 73 85 92 92 96 97 85 98 93 98 98 100 99 99 99 100 100 99 99 97 97 83 38 24 20 15 11 8 8 7 7 6 5 5
78 78 57 63 71 66 65 88 86 100 100 99 99 100 99 98 100 99 97 97 97 98 98 97 98 98 97 91 41 24 19 15 11 9 8 8 7 6 5 5 5 6 7
74 81 64 89 74 72 78 99 100 97 92 98 94 100 100 99 98 94 95 96 97 97 97 89 60 28 22 18 14 10 9 8 7 6 4 4 4 4 5 6 6 8 8
74 80 95 93 78 82 80 92 100 96 98 100 99 99 97 97 93 93 82 52 32 27 25 21 17 12 10 9 8 6 4 3 3 2 2 2 3 4 5 6 7 10 30
70 72 91 90 84 81 78 83 90 93 93 90 89 90 92 72 36 27 27 26 20 17 14 10 10 9 7 5 3 3 2 2 2 2 2 2 3 4 6 7 23 30 36
77 75 80 82 82 80 80 83 82 82 84 78 54 31 27 28 29 24 20 16 12 10 10 9 7 5 3 3 2 2 2 2 2 2 2 3 5 6 16 25 30 39 46
82 80 81 86 86 83 81 83 72 40 28 27 28 30 30 24 21 18 14 11 11 10 9 6 4 3 2 2 2 2 2 2 2 2 4 5 12 20 26 34 40 44 46
81 86 82 84 85 81 74 41 28 27 29 31 32 29 24 21 18 14 12 12 10 9 7 5 3 3 3 2 2 2 2 2 2 4 6 16 21 29 35 41 44 46 48

GFSMW_700_rhum_066.txt.gz
RH
14 11 12 12 16 27 35 39 43 44 45 43 44 43 37 36 41 37 44 45 46 51 55 56 56 58 57 58 59 61 58 60 61 61 57 60 63 64 64 68 70 72 76
12 12 12 11 11 14 23 34 41 46 46 45 44 42 42 41 39 46 49 49 51 62 60 64 58 56 60 59 58 58 61 65 65 66 64 65 64 65 68 71 77 80 83
15 13 12 12 12 13 16 22 28 38 46 46 49 50 49 46 43 36 42 56 50 52 52 60 67 68 66 61 63 64 66 67 68 68 73 69 66 71 77 73 74 79 85
18 17 17 17 18 16 14 14 15 18 23 26 32 36 43 44 36 44 48 47 66 66 56 64 63 64 70 73 70 70 74 74 70 74 73 74 74 80 85 83 79 75 75
25 24 23 22 20 18 20 23 23 23 24 28 29 27 26 26 32 42 57 64 65 80 77 60 69 66 62 64 67 78 85 85 79 77 80 83 87 86 89 97 95 89 88
30 26 23 23 22 22 21 20 19 20 23 24 28 34 35 37 38 35 36 46 54 63 74 74 76 78 72 67 67 71 78 82 84 85 86 86 87 88 88 99 96 95 87
31 30 29 28 26 23 20 19 17 17 17 19 22 28 33 35 37 45 45 45 45 45 47 54 61 62 64 65 74 76 76 82 90 89 90 94 95 96 95 97 93 99 94
31 30 29 28 27 25 23 23 24 24 24 23 21 21 24 26 28 36 45 52 54 56 60 59 58 58 62 66 66 71 78 81 93 93 93 97 100 100 99 99 100 99 99
29 30 31 31 30 30 30 32 32 33 34 34 35 34 34 31 28 29 35 39 44 47 51 56 62 63 63 65 66 70 78 79 85 96 100 100 100 100 96 99 96 99 96
44 42 40 38 37 37 37 37 38 38 40 40 38 37 37 38 38 38 35 34 35 35 34 34 41 56 64 65 66 68 70 82 90 99 98 100 100 100 99 95 100 100 100
52 51 49 48 47 42 38 34 33 35 34 35 39 43 43 43 43 43 43 43 43 43 42 40 37 38 40 42 52 63 68 70 85 94 100 93 94 100 100 100 100 100 96
63 59 63 61 54 46 40 38 36 35 30 27 27 32 47 53 58 61 58 54 52 51 50 49 46 43 44 44 42 43 69 79 77 84 100 99 99 100 99 99 100 100 100
73 69 71 64 59 48 36 34 32 27 18 11 12 15 20 27 53 73 74 73 71 68 66 64 60 53 50 48 44 40 59 80 85 90 94 100 100 99 99 100 100 99 98
82 89 72 61 58 41 30 26 21 15 13 15 16 20 29 42 51 58 65 65 56 48 47 59 64 59 54 48 46 47 67 89 93 99 99 96 97 100 100 99 99 98 97
98 95 78 61 49 38 32 26 20 17 16 17 17 22 27 36 39 44 46 47 49 55 59 64 69 76 73 69 62 90 86 88 97 100 77 99 99 99 98 98 97 96 97
99 93 73 67 47 40 39 31 25 25 25 28 24 25 26 31 33 37 43 48 61 63 67 80 82 98 78 67 73 100 100 98 95 98 100 99 98 98 98 95 93 58 20
97 85 81 66 52 44 44 42 36 31 39 41 38 45 58 34 40 48 55 72 82 84 80 86 93 99 99 99 98 99 99 98 99 99 96 96 97 96 84 34 19 15 10
99 86 78 69 64 46 50 50 57 49 51 55 58 56 54 42 50 61 74 71 85 84 98 97 98 98 98 98 98 99 98 97 97 97 96 78 35 20 16 12 9 8 7
90 76 73 71 55 58 60 65 60 64 67 66 67 60 68 66 66 75 87 94 99 91 95 96 98 97 97 97 97 97 97 94 62 25 17 13 10 9 8 7 5 5 5
77 71 69 58 63 64 66 67 66 64 65 74 77 92 81 85 86 81 83 92 94 89 89 94 96 96 97 92 67 25 21 15 12 9 8 7 6 4 3 3 3 4 4
77 76 76 61 70 66 77 81 72 87 82 75 75 90 89 90 83 79 77 81 88 88 72 49 32 23 18 14 11 10 9 8 5 4 3 2 2 2 2 2 3 4 6
78 72 74 75 72 70 71 71 94 91 89 92 98 98 91 83 77 62 34 28 26 24 19 15 12 10 9 8 6 4 3 2 2 2 2 2 2 2 2 4 6 14 21
68 64 78 80 74 71 64 68 82 86 79 84 88 83 76 40 27 29 27 22 18 14 11 10 9 7 5 3 3 3 2 2 2 2 2 2 2 3 6 13 20 28 35
72 72 73 72 72 69 68 72 79 77 80 82 63 30 28 30 29 23 19 15 12 11 10 8 6 4 3 3 3 2 2 2 2 2 2 2 4 9 17 25 31 34 36
76 74 75 74 75 76 75 77 81 67 37 27 28 31 31 26 22 17 13 11 11 10 9 6 4 3 3 4 3 2 2 2 2 2 3 5 12 20 27 30 32 34 36
76 78 77 76 78 80 81 61 34 27 28 31 32 29 25 22 18 14 12 12 12 11 9 6 4 3 3 4 3 2 2 2 2 3 5 12 20 26 28 29 30 33 36

GFSMW_700_rhum_069.txt.gz
RH
14 12 12 15 18 24 33 36 40 40 43 44 39 40 38 44 43 42 42 42 42 48 53 54 54 52 53 53 55 56 59 61 60 58 58 59 60 58 55 58 60 61 66
20 12 9 9 10 10 14 25 37 43 47 48 44 43 44 44 45 44 40 43 40 41 48 52 56 65 63 61 56 58 59 61 61 59 64 62 58 58 61 64 66 68 68
13 12 12 10 10 9 10 11 15 27 38 45 49 43 45 45 40 38 36 39 45 43 42 51 56 70 72 73 69 62 62 63 64 63 66 67 62 62 64 72 77 78 75
14 11 10 11 11 12 12 12 13 13 16 22 31 47 38 40 40 37 40 44 46 50 55 55 61 69 82 73 74 76 74 74 71 72 70 70 72 73 72 72 76 84 86
24 20 17 16 17 18 17 17 16 15 15 15 17 22 30 27 22 28 33 38 36 37 60 60 66 68 70 70 79 75 71 71 78 82 83 83 83 82 84 83 81 83 90
28 27 26 25 24 23 22 20 19 20 23 26 27 28 30 32 33 35 34 34 35 34 40 66 72 82 76 78 67 75 79 72 71 72 81 85 90 90 92 98 98 97 90
35 33 30 30 29 27 24 22 21 20 19 19 19 20 24 32 32 38 43 46 43 39 34 38 55 69 76 74 72 71 74 76 80 79 80 81 86 91 97 100 100 99 92
36 34 34 33 31 28 26 23 20 18 16 16 16 16 16 18 22 29 38 45 49 54 51 51 52 52 55 59 60 60 63 64 65 74 77 80 84 92 99 98 100 98 99
36 34 32 31 29 28 25 24 24 26 27 28 29 30 31 31 28 26 27 30 35 39 42 45 47 53 58 61 64 64 68 68 70 72 73 78 89 98 100 100 100 100 99
38 38 39 37 36 36 35 35 36 36 37 37 37 38 39 38 37 36 36 36 36 36 35 39 40 41 46 54 60 67 69 69 70 73 76 84 92 98 98 100 100 99 100
52 53 50 47 46 44 42 41 40 39 39 36 35 37 38 43 43 42 40 40 41 41 42 43 43 43 42 41 42 48 56 63 66 69 74 79 90 89 100 99 100 98 100
53 52 52 50 47 47 44 41 38 37 36 35 35 31 31 33 41 45 48 52 55 56 56 54 51 49 48 47 44 42 42 41 42 49 62 81 89 95 79 90 99 100 100
54 58 58 57 54 53 51 42 34 31 30 27 21 13 11 13 15 20 28 38 51 61 64 68 68 67 65 64 58 51 49 48 44 43 50 78 83 90 92 90 100 97 89
68 73 69 64 58 59 52 36 27 24 18 13 12 12 12 19 23 28 32 40 46 45 42 44 44 47 53 61 64 63 56 53 51 50 71 98 93 95 83 94 93 92 98
82 89 84 83 70 63 44 34 31 25 20 17 15 19 22 24 26 28 27 31 36 38 40 44 48 57 64 67 74 78 72 64 64 86 98 100 100 95 87 95 99 99 96
88 94 97 85 70 63 48 41 38 29 25 25 34 32 30 33 41 32 29 33 36 54 62 67 76 79 89 86 69 72 89 73 69 100 99 99 100 100 98 98 98 97 98
89 98 97 92 79 70 55 51 44 43 37 38 41 44 44 43 49 33 39 46 53 67 70 75 76 85 95 91 90 98 98 99 97 98 96 98 98 96 92 89 96 78 23
96 100 93 84 78 73 62 52 48 53 57 50 50 53 48 39 37 39 52 64 74 68 71 71 73 81 92 90 100 97 97 98 98 98 97 97 81 86 62 27 14 10 8
99 95 79 74 73 60 56 58 56 62 64 48 49 48 47 45 48 54 64 70 76 71 72 78 81 86 85 88 92 94 96 98 83 66 47 24 14 11 9 7 5 3 2
93 84 71 70 60 61 63 66 63 60 61 54 59 53 56 62 68 65 63 73 74 75 76 77 78 81 80 67 34 18 15 11 10 9 7 5 4 3 2 2 2 2 2
85 78 72 64 63 64 71 79 72 73 74 55 66 68 75 75 70 66 68 72 68 62 39 23 17 14 12 10 8 6 4 3 3 2 2 2 2 2 2 2 1 2 6
76 71 68 77 72 74 69 68 79 84 76 77 76 84 80 76 71 48 31 28 25 18 14 12 11 9 6 4 3 3 4 3 2 2 2 2 2 2 1 2 4 9 16
71 64 74 82 76 70 65 64 76 85 80 78 83 78 76 47 28 30 27 21 15 13 12 11 9 6 4 4 4 5 4 2 2 2 2 2 2 2 3 7 14 21 27
75 74 74 73 69 67 66 70 75 73 74 77 78 50 28 29 30 26 21 15 13 12 12 10 8 5 4 4 5 5 4 2 2 2 2 2 2 4 8 16 23 28 32
76 75 72 70 71 70 68 67 71 74 67 46 29 28 31 30 27 22 16 13 13 13 12 10 8 6 4 4 5 6 5 2 2 2 3 2 4 8 16 23 26 30 33
82 76 75 75 75 73 73 69 60 42 29 28 30 32 29 27 24 18 14 13 14 14 14 13 11 7 5 4 5 6 4 2 2 3 3 3 6 13 22 27 31 32 33

GFSMW_700_rhum_072.txt.gz
RH
32 24 19 21 26 35 38 40 42 42 41 38 40 42 41 42 40 41 42 43 43 40 43 43 42 49 54 54 54 54 57 59 61 62 59 60 63 62 60 59 57 56 59
40 33 20 16 16 19 24 32 38 39 41 44 41 42 47 48 51 50 43 43 44 47 45 43 42 45 50 55 54 59 63 64 65 67 68 66 64 61 62 64 63 62 64
32 31 22 14 12 11 11 12 16 22 30 40 54 46 44 47 48 51 52 51 50 48 44 48 49 52 56 56 60 70 73 76 71 74 76 73 68 67 69 68 68 70 69
21 20 17 14 12 12 11 10 9 10 12 15 21 35 32 33 32 34 39 42 42 47 53 49 48 53 55 70 76 76 77 78 77 80 80 82 81 80 77 78 78 80 76
15 14 14 13 12 11 12 13 13 13 13 13 14 14 18 19 19 18 17 20 26 28 31 49 59 56 61 63 61 73 70 70 76 70 74 80 84 87 89 90 88 91 97
22 23 21 19 19 18 18 18 19 20 20 19 19 20 21 22 26 25 24 28 34 36 33 32 35 45 55 61 65 71 80 84 75 69 65 72 81 87 84 87 92 99 98
32 30 29 27 27 26 24 23 22 21 19 18 19 21 24 27 30 32 33 36 37 38 42 43 40 41 43 54 70 82 86 85 84 84 79 76 84 92 87 97 97 98 99
35 34 34 33 32 29 27 25 23 21 19 18 17 16 16 16 16 18 21 25 30 35 39 42 39 39 42 48 52 57 60 64 70 75 75 74 73 74 77 85 95 99 99
40 38 36 33 30 28 26 23 21 19 18 18 18 21 23 25 28 28 27 26 25 26 25 27 30 32 36 45 52 60 64 67 70 74 76 73 75 76 80 87 92 100 99
38 35 33 31 28 27 26 27 29 29 30 31 32 34 34 35 36 36 37 37 37 36 36 36 37 38 38 38 41 44 47 52 58 62 69 78 82 82 84 86 92 100 100
38 41 44 46 47 45 43 41 40 39 39 39 38 38 37 35 33 38 40 42 41 42 41 42 42 43 44 45 45 45 45 45 44 44 45 49 57 66 76 79 87 98 100
52 50 47 44 44 47 44 43 43 40 39 36 35 36 33 33 34 35 40 40 42 42 45 44 49 54 58 61 61 60 56 52 51 51 47 48 46 45 51 60 90 100 99
50 48 45 42 43 48 47 45 45 42 34 31 30 29 28 25 20 14 14 18 21 24 26 32 38 42 42 45 50 45 48 58 65 65 60 55 54 50 55 76 100 96 98
48 49 52 50 56 55 54 51 49 34 27 24 20 16 13 12 13 15 21 23 27 26 25 26 30 35 36 39 44 49 54 65 72 69 64 60 64 60 98 80 100 98 100
75 78 79 73 70 69 63 60 43 32 31 25 19 15 14 17 22 26 32 32 23 20 23 33 52 49 49 54 59 61 61 61 70 82 81 68 62 81 83 96 99 100 89
80 82 90 90 83 77 68 60 42 39 36 26 24 29 32 29 32 42 38 30 30 33 38 52 55 58 65 74 74 70 73 62 91 73 88 93 100 94 89 98 100 99 87
78 85 93 98 84 78 64 66 50 46 43 42 36 38 38 39 43 47 33 36 45 48 56 57 55 56 64 69 73 80 85 95 100 99 98 100 100 97 99 98 88 100 84
81 89 98 100 87 82 68 72 62 49 46 50 50 48 49 42 38 34 34 44 54 61 63 60 58 64 66 69 77 84 91 91 93 95 96 93 88 85 72 46 21 13 9
92 98 98 91 78 75 69 60 56 55 61 55 49 51 46 42 42 43 49 55 60 68 64 60 63 65 64 55 37 29 19 18 13 12 11 11 8 7 6 4 3 3 2
99 96 86 77 68 74 65 62 63 63 57 53 52 51 49 52 60 57 55 61 64 64 62 56 28 16 13 12 7 5 5 4 4 3 2 2 2 2 2 2 2 2 2
98 86 80 73 73 66 68 64 67 73 68 51 57 61 67 66 62 60 62 58 45 28 21 15 13 11 8 5 4 5 6 6 4 3 2 2 2 2 2 2 2 1 2
92 78 72 78 80 69 68 76 79 78 76 61 63 72 73 68 64 44 30 28 24 16 14 14 12 9 6 4 4 5 6 7 4 3 2 2 2 2 2 2 2 4 8
84 76 70 75 73 76 77 72 80 86 83 73 74 72 72 54 28 30 27 22 16 14 15 14 12 10 6 5 5 6 7 8 6 3 2 2 2 2 2 3 5 11 18
79 76 74 75 73 69 66 70 77 82 77 75 72 68 37 28 30 27 23 18 15 15 16 15 13 11 9 7 6 6 8 9 6 4 2 2 3 3 3 6 12 19 23
80 76 74 71 69 66 66 68 67 68 70 69 48 29 29 31 28 26 21 18 16 16 16 16 16 16 15 13 11 8 8 9 8 5 3 3 3 3 5 12 19 25 27
93 77 76 75 73 70 70 70 66 65 54 34 28 30 31 30 28 24 21 17 16 16 17 18 19 20 20 19 15 10 8 7 6 5 3 3 4 4 6 14 23 27 29

GFSMW_700_rhum_075.txt.gz
RH
45 44 38 26 25 32 32 28 37 40 42 47 51 45 42 44 44 42 43 41 43 44 42 44 46 46 45 45 45 46 50 53 62 64 61 64 64 64 65 68 65 64 65
36 44 44 37 26 21 26 31 39 42 39 38 40 46 47 46 46 48 45 49 48 49 47 47 47 48 48 49 48 49 55 54 62 74 77 71 68 65 70 72 73 68 68
30 30 29 26 26 22 18 20 24 30 39 39 38 38 41 44 48 53 60 58 59 58 58 60 55 52 48 48 54 55 59 68 69 71 78 79 75 73 72 73 75 77 77
23 20 20 18 18 22 20 17 15 15 16 19 21 21 20 23 28 38 52 62 71 65 61 62 58 52 51 48 52 54 64 64 72 80 74 74 80 85 83 79 82 89 92
21 18 17 19 17 15 17 16 14 12 12 12 13 12 12 12 13 14 15 17 24 30 40 58 57 44 34 37 50 55 54 67 76 71 84 83 80 84 86 84 83 92 100
16 17 18 17 15 14 13 13 12 12 12 13 13 14 15 14 14 14 14 14 15 18 23 26 28 34 38 40 41 43 46 50 62 68 73 81 86 86 88 84 86 98 99
20 18 17 17 18 18 17 16 17 19 20 20 20 19 20 22 24 24 25 25 24 24 28 30 33 36 41 44 46 47 48 47 49 56 65 73 76 81 86 88 93 87 90
33 34 30 29 27 28 27 26 25 24 23 21 20 19 19 19 19 20 21 21 19 20 24 26 26 27 28 29 32 39 48 58 63 66 67 70 83 82 80 80 84 89 94
40 37 37 35 34 32 30 28 26 24 22 20 19 18 17 16 16 16 17 18 20 23 25 27 28 29 30 32 33 34 35 36 42 49 54 59 63 71 87 97 93 99 98
43 42 40 38 34 32 29 27 24 22 20 19 18 18 18 20 24 28 31 32 34 36 37 37 38 38 38 39 40 40 41 42 42 42 44 45 47 49 53 62 72 86 99
44 41 38 35 32 30 30 30 30 29 28 29 29 30 30 30 32 34 35 37 37 38 38 40 41 42 43 44 45 45 49 53 53 52 50 50 51 52 50 47 47 51 61
44 44 44 48 50 47 44 41 39 36 34 34 34 35 35 34 34 34 32 33 36 37 38 28 25 31 30 28 27 33 37 47 51 51 54 57 66 67 60 56 63 58 66
58 56 52 49 45 40 36 36 39 37 36 36 36 32 30 30 30 30 30 27 17 14 17 20 23 22 19 24 29 32 34 36 42 46 49 60 65 68 71 76 65 65 96
54 51 48 47 48 48 46 48 45 42 44 38 28 25 23 20 17 14 13 14 19 23 26 21 20 23 33 44 42 43 48 52 50 56 58 64 72 70 85 76 76 77 98
49 52 63 71 72 71 66 65 57 53 45 31 30 26 20 15 12 13 20 26 31 28 20 28 31 39 47 49 55 57 61 61 61 50 54 57 71 92 84 91 99 100 91
72 75 79 84 87 86 78 75 65 56 40 36 34 26 21 26 30 26 29 38 31 29 36 44 49 50 46 46 51 56 63 64 61 66 79 82 98 94 86 99 98 99 98
79 80 81 85 92 86 84 76 68 63 48 43 40 36 32 35 35 35 38 34 34 48 51 54 55 54 54 52 54 57 60 63 64 70 74 78 89 96 95 96 94 87 80
84 84 90 95 99 95 88 79 70 69 58 48 46 48 45 44 44 38 34 34 44 56 61 61 58 58 54 45 33 15 11 8 7 6 6 6 8 13 15 12 11 9 6
87 94 97 100 97 94 89 73 72 74 62 52 52 54 49 46 41 38 40 48 56 66 64 61 59 39 16 12 9 7 6 7 7 5 4 3 2 2 2 2 2 2 2
91 98 100 97 87 82 76 70 66 60 58 60 52 52 49 48 50 54 57 59 63 62 63 32 15 13 11 9 7 7 8 9 8 7 5 4 3 2 2 2 2 2 2
98 99 97 89 82 76 70 65 65 70 66 58 49 55 54 61 61 60 61 59 52 28 18 14 13 12 10 8 7 8 9 11 13 11 8 5 3 2 2 2 2 2 2
95 97 85 78 76 76 72 74 82 83 74 63 61 66 69 65 63 52 32 28 23 15 14 14 14 12 11 9 8 8 10 11 13 14 12 8 4 2 2 2 2 2 3
99 90 81 74 84 84 78 77 84 80 77 67 67 74 69 64 32 29 28 22 16 14 15 15 15 15 15 14 13 13 12 13 14 13 12 8 4 2 2 3 3 4 8
97 82 79 76 77 77 76 76 72 79 79 75 77 73 67 29 30 28 24 18 15 15 16 17 18 18 19 19 19 19 18 16 14 12 12 8 4 3 3 3 4 7 13
98 84 80 76 73 71 69 70 72 73 77 78 76 60 29 30 29 25 21 17 16 16 17 18 19 20 22 24 25 26 24 20 16 12 9 7 4 3 4 4 5 11 18
99 97 79 77 74 71 68 67 68 69 72 72 49 29 30 31 27 25 22 19 17 17 17 18 20 23 26 29 31 30 27 22 15 12 8 6 4 4 4 6 7 12 19

GFSMW_700_rhum_081.txt.gz
RH
59 52 44 44 42 38 38 33 31 41 41 39 39 39 39 39 39 40 42 45 45 44 41 42 45 46 46 48 51 53 54 52 51 49 48 51 52 50 58 66 70 78 83
62 52 47 48 45 42 36 33 30 28 32 38 40 42 46 46 46 46 47 48 50 50 53 52 53 52 52 55 61 63 62 59 60 53 48 51 55 57 67 70 74 78 83
56 54 44 50 48 42 36 32 31 29 34 38 43 47 46 42 44 44 44 50 58 57 54 53 50 53 61 65 68 68 67 68 64 57 50 51 48 53 64 65 65 73 81
44 46 47 44 42 42 40 36 34 29 26 26 27 30 32 37 42 51 52 51 52 51 49 49 48 52 59 65 68 62 62 60 49 41 40 53 58 63 59 59 60 56 60
48 46 45 47 42 36 39 37 34 32 30 28 26 22 23 25 29 34 37 38 34 32 28 26 32 36 39 43 44 41 36 31 30 33 83 72 58 64 81 63 84 66 56
49 52 49 50 43 41 37 36 37 31 24 21 23 25 22 18 16 15 15 16 16 16 16 19 19 20 22 23 25 29 28 34 41 44 51 51 56 56 93 54 45 59 52
48 52 54 51 47 46 46 42 38 30 23 20 17 16 17 16 14 13 12 13 15 17 19 20 21 24 31 37 49 56 59 52 46 43 43 42 39 40 41 42 44 42 40
37 53 56 49 47 49 47 43 37 31 22 17 14 14 14 14 14 15 15 17 20 21 23 26 28 28 33 38 57 43 58 42 30 34 35 36 37 40 42 43 44 44 43
38 48 49 46 42 40 37 29 22 20 19 20 22 23 22 22 22 23 24 23 21 20 18 18 18 18 20 23 28 29 33 36 38 38 38 39 38 38 41 44 48 50 48
44 51 50 48 49 42 32 29 30 32 33 31 29 28 27 25 23 22 22 20 20 20 20 22 25 29 33 36 37 38 39 38 38 36 32 27 28 32 38 41 40 41 42
54 63 64 58 48 40 38 38 38 37 36 33 30 28 27 26 24 22 22 21 21 23 27 31 34 36 37 39 38 39 38 36 29 24 20 25 33 36 36 35 40 44 41
56 57 57 50 46 44 43 41 38 35 32 29 28 27 25 25 24 25 27 30 32 34 37 39 40 40 39 38 40 39 27 22 19 19 29 36 39 45 47 42 48 43 43
53 49 50 48 46 42 40 39 41 41 42 40 39 38 37 37 35 35 35 36 37 39 38 38 38 37 37 32 22 21 22 17 33 44 48 46 46 46 46 45 45 43 44
60 53 50 48 51 50 52 55 52 47 41 36 33 32 38 39 40 40 38 34 29 27 28 29 27 18 17 22 24 19 23 39 44 48 45 45 44 45 46 48 50 49 54
62 52 50 59 60 58 55 52 51 47 42 40 40 43 45 44 43 32 27 23 18 16 16 16 18 25 27 21 28 37 40 41 44 44 45 44 31 34 27 30 36 37 27
58 64 59 56 57 66 71 72 69 69 67 61 60 56 53 45 32 30 26 19 15 16 22 29 33 26 35 43 44 43 43 45 44 43 16 8 8 8 7 6 5 4 4
65 60 56 68 80 81 83 82 82 80 79 76 71 64 53 39 36 31 26 28 30 28 34 37 34 41 47 48 48 48 43 27 11 10 11 11 10 9 8 7 5 4 3
63 58 69 83 85 86 88 91 90 89 92 89 78 68 59 46 44 39 36 37 37 41 42 40 51 54 55 53 49 19 10 10 12 13 15 15 15 14 13 12 10 8 5
62 67 82 84 87 92 95 93 100 97 91 84 77 71 68 51 50 51 49 48 50 45 41 53 60 59 56 33 12 10 11 12 14 16 18 19 19 19 18 16 13 10 6
64 85 87 91 95 95 96 100 98 90 90 83 80 73 72 59 56 58 55 52 42 47 58 64 61 51 19 11 10 10 12 13 15 18 20 22 23 22 22 19 17 12 7
88 93 94 94 92 97 100 98 91 86 87 87 78 70 67 62 58 55 50 49 57 70 66 63 41 14 12 11 12 12 13 15 18 21 23 25 26 25 23 21 18 13 9
95 93 89 91 96 99 93 89 93 90 92 85 72 64 65 61 62 59 61 69 71 68 53 18 14 13 13 14 15 16 18 21 24 26 28 29 28 26 23 22 21 17 12
94 94 92 96 98 90 87 90 99 92 90 89 82 73 66 67 67 71 73 72 64 35 16 14 14 15 16 17 19 21 24 26 29 32 33 31 29 25 24 24 21 17 16
90 93 94 99 91 86 84 88 96 98 97 94 90 77 77 76 75 73 65 41 25 17 14 15 16 16 18 20 22 24 28 31 34 36 35 33 30 30 30 28 23 19 15
97 98 94 99 92 84 81 81 84 90 94 95 92 82 83 80 79 57 30 26 20 16 15 15 16 17 20 22 24 28 32 36 39 39 37 36 36 36 34 31 27 22 16
97 95 99 92 95 84 79 77 79 81 86 96 85 85 86 81 57 30 28 24 20 16 15 16 17 18 20 23 26 30 35 40 42 43 42 42 42 42 41 39 35 26 16

GFSMW_700_rhum_084.txt.gz
RH
86 96 85 80 64 47 40 38 33 37 45 45 41 40 39 44 41 40 44 42 44 46 44 43 43 44 46 50 48 48 52 59 62 62 60 60 54 47 47 57 61 66 72
82 89 91 78 66 52 45 41 39 34 30 35 43 44 44 44 41 43 44 47 53 53 54 55 55 55 52 53 53 56 61 64 68 70 67 58 53 41 38 51 54 69 73
69 66 68 64 58 53 50 46 43 40 33 30 30 33 36 36 39 41 45 51 58 59 61 60 55 52 52 51 56 62 68 71 72 71 72 62 43 32 37 42 55 61 60
63 64 60 64 63 59 53 48 45 42 38 34 32 33 34 32 32 40 44 45 46 54 56 55 54 54 54 53 62 69 66 63 55 49 47 37 29 34 71 65 64 65 61
67 59 52 55 60 59 52 43 43 45 41 38 35 32 30 27 28 32 35 37 40 45 52 52 52 50 48 48 52 44 37 32 34 33 29 30 34 44 54 49 49 44 82
69 62 56 51 48 52 48 46 41 42 41 39 38 35 28 29 29 25 24 24 26 30 30 29 27 23 21 21 23 24 24 24 32 40 40 41 42 40 41 42 37 35 40
42 48 51 56 51 50 50 48 41 41 37 36 34 28 24 22 21 22 23 22 19 18 19 18 18 18 19 21 24 26 29 36 61 54 58 58 36 32 33 34 35 33 34
33 39 51 55 58 57 55 50 46 45 41 36 34 29 24 18 15 14 14 15 15 15 16 17 19 22 24 27 30 32 33 36 56 42 40 32 35 37 37 35 33 29 30
34 31 40 53 60 59 56 52 51 50 48 42 34 23 19 16 15 15 15 16 16 18 20 22 21 22 22 26 27 26 23 32 33 35 37 38 39 39 35 31 28 33 35
29 33 36 48 57 60 56 50 46 42 36 27 19 19 20 22 24 22 22 23 23 22 21 20 19 18 20 24 28 32 35 36 38 39 40 40 35 29 25 27 35 39 38
37 38 41 48 55 56 55 47 39 33 26 26 28 29 28 28 27 26 24 23 23 22 20 19 19 20 24 29 34 36 38 41 41 42 41 29 24 24 30 37 44 48 44
54 62 66 65 65 63 61 51 42 40 38 37 36 35 32 29 28 26 24 22 22 22 22 25 29 31 35 38 42 43 41 41 41 26 23 22 34 39 42 44 44 45 45
55 60 65 64 60 57 49 46 46 44 41 38 34 32 31 33 32 33 31 31 30 33 34 36 38 39 41 42 42 41 38 24 24 21 26 40 39 40 42 42 44 45 46
57 61 58 57 55 52 50 46 46 45 45 46 45 42 39 35 32 32 35 38 37 37 37 35 33 33 34 35 29 21 24 23 20 33 41 38 40 42 41 38 30 29 26
63 64 60 56 54 53 55 58 60 57 52 47 42 38 34 31 33 36 41 43 39 31 26 22 20 19 18 19 27 25 24 34 43 42 40 43 33 13 9 9 8 8 7
76 71 63 58 67 69 66 62 63 59 61 58 52 45 42 44 47 51 48 37 29 26 20 16 16 22 30 30 31 44 46 44 44 43 41 11 10 11 11 10 9 10 9
66 66 73 67 65 67 68 74 75 79 76 74 70 67 63 64 61 50 38 34 29 23 20 24 30 36 32 36 47 49 48 47 34 13 10 12 13 14 14 15 15 15 14
72 69 64 61 67 79 83 83 84 86 88 84 88 84 78 73 66 50 42 37 34 33 31 33 40 38 49 52 55 53 36 13 10 12 14 16 17 18 19 20 20 19 19
69 68 65 61 74 85 86 86 90 93 88 98 92 84 79 76 71 59 51 50 45 43 44 45 41 54 62 60 51 16 9 10 12 14 16 18 20 22 23 24 24 22 21
67 65 64 82 88 89 93 94 89 97 100 97 89 84 82 79 74 68 56 57 55 52 50 45 55 66 63 43 13 9 10 11 12 15 17 20 23 26 26 26 25 24 22
68 67 85 93 98 95 96 92 97 100 98 91 89 90 87 80 79 72 63 66 60 52 52 64 70 64 34 13 9 10 10 12 15 18 22 25 28 29 29 27 26 25 25
70 82 92 92 90 92 93 96 98 95 100 100 100 100 91 75 73 70 65 64 58 61 74 73 65 30 12 10 10 11 14 17 21 24 27 30 32 32 30 28 28 28 26
96 97 92 94 92 92 92 95 93 95 100 100 100 100 92 81 75 71 70 70 74 80 76 56 19 12 12 12 14 16 19 22 25 29 32 35 34 33 32 32 31 30 29
93 86 90 90 92 96 95 90 85 95 100 100 100 100 97 83 80 76 75 79 81 78 44 17 13 13 14 16 18 20 23 26 29 33 37 37 36 35 35 35 35 36 36
94 96 95 97 90 97 92 87 84 86 95 99 100 100 96 90 86 85 87 84 71 39 18 14 14 14 16 18 20 22 25 28 33 37 39 40 40 40 40 42 44 46 47
99 99 97 92 97 94 94 86 84 84 89 100 99 100 95 95 90 86 82 51 29 21 16 14 14 15 17 18 20 23 26 30 35 39 42 44 46 47 49 51 55 57 57

GFSMW_700_rhum_087.txt.gz
RH
80 71 65 67 70 82 84 85 81 77 72 67 58 54 50 51 53 50 43 38 39 41 45 44 45 44 43 45 46 46 47 49 52 55 60 62 62 62 61 59 57 47 55
71 69 63 75 71 74 79 88 94 88 73 76 74 58 53 52 51 50 45 42 43 50 53 55 59 58 55 52 53 54 54 53 60 66 69 61 58 58 62 42 26 40 56
73 68 71 75 82 76 74 67 58 58 58 61 56 55 47 44 47 44 48 48 54 57 55 58 59 62 65 64 64 58 60 62 65 71 72 62 40 36 35 28 29 67 69
78 80 78 88 95 84 72 67 58 53 49 50 44 39 37 40 41 42 42 42 46 53 55 54 58 60 61 60 62 62 60 62 62 59 46 33 36 41 32 30 34 46 46
73 93 88 80 71 74 71 72 60 56 50 46 43 41 33 32 32 32 32 32 34 39 40 45 54 59 60 60 62 61 58 49 33 26 22 22 32 41 41 46 56 34 38
63 78 78 79 70 70 69 65 62 52 46 45 44 42 40 36 33 30 28 28 27 27 28 29 34 40 43 47 39 30 25 21 21 22 22 33 62 60 53 52 33 33 35
57 60 76 59 56 55 53 53 53 55 48 43 44 42 39 37 33 27 22 22 25 26 25 22 20 20 21 20 18 18 21 23 27 28 30 34 51 49 46 30 34 36 36
48 59 63 61 66 61 59 52 50 52 50 46 46 44 41 38 30 25 21 17 15 15 16 19 19 18 18 19 20 23 28 30 31 31 32 34 40 30 35 37 37 35 27
41 42 49 49 44 47 54 59 56 55 52 49 49 49 46 43 36 27 19 14 12 13 14 15 16 18 22 24 25 29 30 24 23 22 25 32 36 38 37 37 32 27 24
41 40 37 36 45 42 61 62 59 57 56 54 51 47 43 36 26 16 16 16 16 17 20 21 21 22 21 20 19 20 21 24 29 33 37 38 39 39 39 28 23 28 35
32 32 32 38 41 54 64 64 62 60 56 53 48 41 32 25 20 23 24 23 23 23 23 22 22 21 21 20 21 23 28 32 37 38 43 42 41 32 24 25 36 39 42
36 36 38 41 56 67 70 67 65 60 50 40 35 32 29 27 29 29 29 28 26 24 23 22 21 20 21 23 27 31 36 39 44 44 40 39 23 22 37 40 40 40 41
41 44 53 58 69 75 74 72 67 60 50 41 37 39 38 36 35 32 30 28 26 24 25 25 24 26 32 32 36 38 42 44 40 37 24 23 22 40 40 41 39 39 35
48 52 61 67 68 66 67 63 58 55 53 48 41 38 37 36 36 37 35 33 31 30 31 34 33 34 38 38 38 39 39 38 24 24 22 29 42 42 41 33 22 12 9
52 58 62 62 60 58 58 60 60 62 59 56 56 51 46 42 39 37 32 30 30 33 37 38 37 32 28 27 27 25 19 25 24 26 41 43 44 38 12 9 10 10 10
62 69 70 66 60 63 65 69 75 71 69 62 55 50 47 43 40 33 31 36 41 44 42 32 27 22 18 17 20 27 27 33 42 44 45 45 23 9 11 12 12 14 15
75 82 79 70 69 73 74 71 67 65 70 73 72 71 70 62 56 53 50 52 50 42 34 30 23 18 20 29 32 31 44 48 47 46 34 11 11 13 15 17 18 19 20
75 74 74 78 69 64 65 70 77 82 83 84 85 83 78 77 70 67 64 59 48 38 34 29 29 29 33 36 42 48 52 51 34 11 11 14 15 18 19 21 22 24 24
72 76 75 71 65 62 72 84 88 88 92 94 92 86 88 80 75 72 69 66 52 46 42 38 35 39 40 51 57 57 46 15 10 12 14 15 17 20 22 24 26 26 25
67 68 68 68 66 76 92 92 93 96 92 96 100 100 94 82 74 76 75 72 61 57 54 50 49 47 54 64 63 37 10 9 11 12 14 16 20 24 26 28 28 27 26
72 73 70 70 75 89 97 99 98 96 93 98 100 95 87 87 82 79 82 79 69 65 61 57 54 57 69 68 32 10 8 9 10 13 17 21 25 29 30 30 29 28 28
78 74 68 68 94 100 98 93 97 92 95 96 97 100 98 96 93 88 84 82 74 74 67 61 66 73 69 31 10 8 8 10 14 18 23 26 31 33 33 31 30 30 30
70 70 84 96 99 95 93 98 95 90 94 92 100 100 100 100 98 89 81 80 78 76 72 77 80 73 30 10 8 9 11 16 20 23 27 32 35 36 34 33 33 33 33
96 99 98 84 88 90 92 98 97 93 90 90 100 100 100 100 100 94 86 84 80 81 86 86 72 31 11 10 11 13 17 20 23 27 31 36 39 39 38 37 37 40 43
99 92 93 95 93 91 94 96 97 90 88 91 98 100 100 100 100 97 92 92 90 89 88 71 27 12 12 12 14 17 20 22 25 29 34 38 40 42 43 43 45 48 50
96 97 96 96 94 94 97 98 97 90 87 87 97 100 100 100 100 96 90 91 90 90 71 27 14 12 13 14 16 18 20 22 26 31 35 39 42 45 47 49 48 46 48

GFSMW_700_rhum_090.txt.gz
RH
76 60 71 78 84 78 80 89 83 76 74 72 73 71 60 49 47 52 51 46 44 41 41 42 42 40 40 44 44 43 45 46 49 49 53 53 62 66 70 67 64 68 68
76 65 60 77 77 79 86 88 88 85 82 77 77 76 76 72 68 65 55 49 44 44 49 53 55 52 50 51 51 52 53 55 58 60 57 60 64 60 64 63 50 46 31
58 64 57 75 72 76 82 84 87 87 82 79 80 88 90 75 78 74 65 58 59 57 55 55 55 59 58 59 62 64 67 71 64 64 66 65 59 47 33 26 26 35 30
67 82 73 70 80 84 97 86 84 69 85 89 88 91 90 86 92 92 76 61 51 50 51 54 55 57 57 56 60 66 70 67 67 66 66 66 50 30 26 25 41 49 49
72 75 84 82 77 81 87 82 76 77 68 65 92 81 73 79 86 83 87 85 57 46 51 54 56 55 50 50 56 64 67 67 66 65 52 36 25 26 27 38 63 50 47
61 79 88 86 84 87 90 78 74 67 62 64 64 66 62 62 54 54 48 42 39 36 35 34 35 38 38 42 50 56 56 54 46 33 25 24 26 29 36 42 53 46 35
42 50 72 84 87 90 84 80 86 92 74 71 69 64 59 54 54 47 38 36 34 30 28 27 28 26 25 23 23 24 24 23 22 24 25 36 35 35 40 48 34 35 38
47 51 56 64 89 97 86 75 76 74 71 69 63 54 51 50 44 45 41 35 27 22 20 18 16 16 18 20 22 19 18 20 23 28 31 32 35 31 34 34 38 39 36
36 45 56 62 72 91 96 87 71 57 55 54 54 53 50 50 48 46 41 35 33 30 20 15 13 13 13 15 17 18 21 25 26 30 27 21 27 32 36 38 40 39 32
38 36 41 46 55 70 80 66 50 50 60 60 56 53 51 50 50 48 44 38 32 22 14 15 15 16 17 20 23 22 21 20 21 22 24 31 36 37 39 41 40 35 25
33 38 39 37 38 44 48 48 42 48 62 62 60 58 56 54 52 48 43 36 26 17 15 18 20 21 22 23 23 21 21 21 22 23 28 35 39 43 43 42 31 24 39
35 37 39 37 36 39 44 54 57 58 65 63 61 59 56 53 47 38 31 25 22 20 22 23 24 24 25 24 22 21 21 23 30 34 39 46 47 46 43 27 26 41 41
38 37 35 35 36 43 54 63 72 72 71 69 65 60 52 43 35 33 31 30 30 30 29 27 25 24 24 24 26 29 32 37 43 48 48 44 46 32 26 29 42 41 40
41 39 38 41 47 54 67 77 76 74 72 71 66 56 47 46 41 38 36 34 32 30 30 29 28 28 30 34 34 36 40 41 44 44 46 35 25 23 35 44 41 29 11
42 46 48 54 60 68 71 71 72 70 64 58 55 55 53 53 52 50 44 40 37 34 31 29 28 28 33 39 39 38 36 37 36 32 23 26 25 44 46 28 10 9 10
48 51 52 54 56 58 58 62 63 60 60 62 63 66 62 57 53 50 43 40 37 34 32 32 35 41 40 33 27 24 23 21 23 28 28 44 48 47 18 9 11 13 15
58 61 65 66 65 64 63 63 66 70 73 71 68 67 69 66 62 59 56 55 51 47 49 45 46 40 32 26 21 19 24 30 32 47 50 50 44 10 11 14 17 18 20
57 73 78 78 69 65 67 71 71 72 73 76 80 81 83 81 74 73 73 74 68 64 62 50 40 34 29 23 28 33 34 39 53 53 51 20 10 14 17 18 20 22 24
64 78 75 70 71 69 64 64 72 81 87 90 90 91 90 84 82 79 82 79 80 75 67 49 39 35 33 34 39 40 48 55 56 31 10 13 15 17 18 21 24 26 27
56 57 64 70 68 66 66 68 80 90 92 94 93 91 86 91 93 90 80 78 83 78 69 56 49 42 41 46 46 57 60 52 13 10 12 13 15 18 22 25 28 28 28
63 66 68 68 68 67 66 74 89 94 96 94 94 90 97 100 97 90 87 82 87 86 76 65 62 58 56 57 66 66 44 9 8 10 11 14 18 23 27 30 31 30 28
72 70 72 70 69 70 71 88 98 97 92 99 98 95 96 99 99 100 100 95 92 90 82 76 71 67 65 74 73 45 9 7 8 10 14 19 24 28 31 33 33 31 31
78 77 76 73 68 85 99 98 94 92 93 96 93 96 98 99 100 100 100 100 96 94 89 85 78 74 80 80 51 10 6 7 9 14 20 24 28 32 34 35 35 34 34
72 70 74 88 97 94 86 89 91 98 99 98 96 93 100 100 100 100 100 100 96 94 91 87 83 85 85 50 14 7 7 10 15 20 23 27 31 34 36 38 39 40 40
90 95 100 97 92 91 94 91 96 96 97 96 90 91 100 100 100 100 100 100 99 99 96 96 95 92 61 18 9 8 11 15 19 22 25 29 33 36 39 42 44 46 46
96 98 100 98 96 92 92 93 98 98 98 97 92 93 97 100 100 100 100 100 99 92 95 94 91 59 22 10 10 12 15 18 20 23 26 30 34 38 42 44 45 46 46

GFSMW_700_rhum_093.txt.gz
RH
76 76 50 52 55 71 68 64 65 64 64 69 69 68 64 63 54 53 52 48 43 40 44 46 46 45 42 43 39 40 43 44 46 47 51 53 58 59 62 64 65 71 57
73 78 63 50 51 61 70 78 77 85 82 73 71 72 86 88 80 62 52 56 56 53 50 49 51 46 43 43 44 46 49 52 56 59 62 63 62 60 59 56 50 44 30
70 72 84 58 47 55 65 79 89 81 89 83 80 72 74 78 72 66 72 73 71 66 63 59 60 54 47 49 54 57 62 65 66 69 74 68 66 66 68 53 29 22 24
58 75 88 53 58 63 74 76 81 92 87 90 82 79 68 76 78 66 74 87 79 75 72 74 70 69 59 56 58 61 62 62 65 63 69 69 70 72 56 33 20 23 35
42 56 86 46 62 65 71 79 79 85 90 91 93 85 87 80 86 73 78 87 74 83 96 97 95 87 55 56 60 62 60 57 63 70 66 65 67 50 29 22 27 32 36
35 82 81 54 62 66 70 73 77 80 90 86 90 85 92 96 95 91 96 93 88 81 74 65 68 68 59 54 53 54 51 54 55 61 62 44 32 24 22 35 39 41 39
58 72 96 55 64 70 75 85 91 86 82 86 79 76 80 81 94 92 94 91 90 68 51 53 56 37 33 32 31 30 29 29 29 29 29 29 40 28 41 37 36 33 38
53 57 72 70 77 83 93 92 93 80 76 86 83 77 70 76 77 80 78 71 64 55 48 39 32 26 23 21 20 21 26 28 34 40 26 42 44 37 36 29 28 34 37
57 58 49 63 66 76 86 85 88 90 92 89 83 85 87 86 86 78 80 80 67 49 43 38 38 34 23 20 15 15 17 18 20 25 47 54 29 31 26 42 37 40 40
36 38 42 53 57 58 71 86 96 97 89 86 82 72 60 59 58 59 58 54 49 48 46 39 32 24 16 15 18 18 18 20 21 24 24 33 24 26 34 40 40 44 46
29 29 28 32 44 48 58 78 85 91 97 93 77 69 63 59 56 55 55 54 52 50 46 40 30 22 21 22 22 23 23 23 22 23 24 26 35 32 37 40 46 48 47
33 34 33 35 35 42 48 62 72 83 81 83 62 64 67 64 59 58 57 55 52 48 40 32 26 25 28 27 26 26 25 25 24 23 26 28 32 40 47 52 49 46 31
35 35 35 40 38 35 35 42 54 65 68 63 62 68 67 64 62 60 57 52 44 36 31 29 29 29 29 29 28 26 26 25 26 28 34 38 44 48 55 50 41 26 35
39 37 38 38 36 35 33 35 43 55 63 68 71 71 70 69 67 62 54 44 40 40 37 35 33 33 32 31 30 32 34 35 37 40 41 45 47 48 48 31 26 41 46
41 38 36 38 39 41 42 44 56 66 73 75 75 73 71 68 62 53 48 46 44 42 42 39 37 34 34 32 31 32 37 40 42 42 40 42 43 28 28 28 49 43 16
34 42 42 41 44 53 61 65 65 66 68 70 70 66 59 57 57 57 55 52 48 46 41 37 36 34 32 31 33 39 42 37 31 28 30 26 27 29 37 51 39 9 10
42 48 52 53 54 55 56 57 57 57 60 60 59 62 66 68 66 66 62 58 57 52 47 42 37 36 38 41 45 42 32 28 24 23 25 31 37 52 54 34 9 12 16
51 52 59 62 63 62 62 61 58 58 62 68 72 72 71 73 75 75 72 71 64 63 61 55 54 52 49 48 42 34 28 26 30 35 37 51 52 52 14 11 15 18 21
53 51 63 69 70 74 66 64 67 67 68 71 76 78 80 80 82 84 79 72 70 71 70 66 69 65 56 43 37 30 30 38 42 45 57 56 36 10 14 17 19 22 25
54 52 57 64 68 64 68 67 65 63 64 75 82 87 89 92 90 87 84 84 82 74 74 74 77 72 56 43 40 37 41 45 62 64 54 14 11 15 16 18 22 26 28
58 59 57 62 66 71 69 66 62 63 69 85 88 90 95 96 90 92 96 96 94 86 74 82 83 77 63 54 47 45 52 64 68 29 9 11 13 14 18 22 27 30 30
68 66 69 71 71 70 71 68 67 64 70 88 99 94 91 93 93 91 96 95 100 100 91 88 89 82 72 66 61 60 72 68 20 8 9 10 12 17 23 27 31 32 32
71 74 73 71 74 76 76 69 72 89 95 87 86 92 94 92 94 95 96 100 100 100 98 96 93 86 79 73 71 81 77 30 7 7 8 11 17 23 28 32 34 35 35
81 81 80 80 79 74 75 90 93 84 91 94 97 95 95 92 89 97 100 100 100 100 100 100 95 93 87 81 88 84 41 8 6 7 10 16 22 27 31 34 37 38 39
87 78 81 93 94 99 99 96 92 93 88 94 96 97 94 92 93 99 100 100 99 100 100 100 100 99 97 100 90 47 12 6 6 9 15 21 25 29 34 37 39 41 44
98 97 100 96 97 100 98 95 93 98 100 100 100 98 97 94 94 97 100 100 99 100 100 100 100 100 100 95 54 14 6 6 9 14 19 22 26 30 34 37 40 43 44

GFSMW_700_rhum_096.txt.gz
RH
78 75 45 52 51 57 56 62 60 59 51 51 59 64 64 58 57 52 47 47 46 46 49 48 46 39 44 48 45 41 38 38 42 44 49 51 54 61 68 66 66 67 52
69 74 59 48 50 52 57 62 66 64 62 58 55 56 63 69 69 65 61 56 56 55 50 48 46 47 52 50 43 42 43 44 48 54 58 58 60 67 69 63 64 58 41
65 72 75 41 48 49 48 51 61 66 69 66 70 70 75 66 70 75 74 79 70 67 67 60 62 65 61 54 54 54 53 57 59 61 63 62 64 67 67 68 68 57 31
63 69 73 70 41 48 50 52 50 58 66 75 72 75 88 81 86 99 96 86 86 87 86 82 82 69 67 63 68 75 73 67 66 64 61 65 71 74 75 70 62 36 27
60 63 70 75 80 54 41 54 56 54 60 70 86 80 81 86 89 95 99 90 81 84 86 87 82 82 83 76 76 82 81 69 68 63 57 57 66 72 77 53 36 33 34
58 50 74 76 81 58 52 58 62 70 71 76 81 95 91 70 91 92 96 96 85 81 86 90 93 91 98 97 92 90 83 67 54 49 43 37 38 37 37 36 44 41 48
36 39 54 74 44 46 48 49 62 66 72 78 76 84 89 94 99 95 100 95 91 96 98 98 97 95 85 74 78 58 55 38 34 33 34 37 44 53 47 43 49 40 41
56 52 86 80 64 54 60 64 74 72 71 74 94 92 84 75 88 94 96 92 90 99 97 96 99 94 61 40 34 46 38 33 27 24 26 34 44 49 56 60 54 36 28
60 55 81 83 47 52 65 78 76 74 69 94 87 81 82 86 83 83 81 82 76 71 66 68 64 54 52 43 45 40 24 21 20 19 19 23 25 30 58 51 31 27 55
65 69 69 73 56 47 69 82 88 91 97 90 81 81 96 98 92 84 73 78 64 62 66 62 58 51 48 42 34 24 20 19 20 20 25 28 28 29 26 62 31 32 37
50 62 65 58 55 43 41 47 74 84 86 86 84 86 97 98 87 68 63 63 63 66 60 55 52 51 47 43 38 27 23 24 23 24 25 25 25 25 25 66 39 36 42
29 32 36 42 39 32 34 47 53 57 81 86 88 100 97 88 87 74 68 66 60 58 57 56 54 51 45 38 32 27 27 27 27 27 26 26 27 28 30 97 56 47 52
40 40 34 36 37 38 37 41 53 59 69 77 82 82 80 73 71 72 70 68 67 61 59 57 52 44 37 32 30 30 31 30 29 29 30 31 35 36 39 54 53 54 50
41 36 35 36 37 39 39 36 37 42 51 64 74 76 73 71 70 69 68 67 65 63 59 51 42 38 36 37 36 33 34 33 34 35 43 41 44 46 51 52 52 51 32
32 42 40 38 38 38 36 35 35 36 42 53 62 68 71 70 72 73 72 70 66 59 51 46 44 40 38 37 36 36 34 34 35 37 43 48 50 47 48 46 40 30 29
32 35 41 41 39 39 38 39 41 44 52 61 69 74 75 75 74 71 65 59 57 56 56 52 45 43 40 39 35 35 34 34 39 43 44 41 36 36 35 31 31 39 51
40 35 38 44 46 47 46 48 52 57 61 66 70 70 69 65 62 65 68 68 66 64 64 58 56 44 42 45 44 42 40 44 46 42 33 29 26 30 32 36 52 54 11
50 47 45 48 50 50 50 53 56 57 57 56 57 59 61 68 72 72 71 72 71 70 67 61 59 60 55 52 55 52 52 49 43 35 29 26 30 33 50 60 53 10 11
54 52 54 56 55 57 60 62 65 62 62 66 69 71 69 67 70 74 80 84 85 82 73 73 73 67 64 65 68 63 54 44 38 33 33 37 41 57 59 37 9 15 18
63 56 54 55 63 62 65 65 65 67 65 64 67 66 69 75 83 86 88 87 84 83 84 83 72 70 70 73 74 66 50 41 39 42 43 52 62 60 16 11 16 18 21
70 62 60 59 64 70 64 68 68 67 66 66 67 73 83 85 87 90 87 86 87 84 87 83 76 68 74 82 81 65 50 45 44 50 63 70 52 12 13 15 17 21 26
71 70 64 73 76 68 72 72 69 68 68 66 68 82 93 96 89 87 89 89 90 92 89 99 100 89 87 94 83 71 58 55 60 73 67 34 10 12 13 15 20 26 30
69 74 73 74 75 73 71 71 72 73 69 72 93 95 86 86 95 92 94 95 92 95 98 100 100 100 99 98 90 83 76 74 83 62 21 8 9 10 13 20 25 30 34
86 83 84 83 78 75 76 78 79 74 85 97 90 90 96 97 92 92 92 91 94 100 98 98 100 100 100 100 99 91 87 93 74 27 7 7 8 11 18 25 30 34 37
85 84 88 85 84 84 85 90 88 90 97 99 99 95 92 93 94 97 97 96 98 98 99 100 100 100 100 100 100 98 97 88 52 11 6 6 9 17 23 28 32 37 39
95 98 97 92 90 91 91 98 96 98 100 100 99 100 99 93 95 97 97 96 96 100 100 98 100 100 100 100 100 100 96 62 23 6 5 7 14 21 25 29 34 37 40

GFSMW_700_rhum_099.txt.gz
RH
62 55 48 49 51 56 57 59 59 69 72 63 51 57 53 41 40 46 48 48 43 42 45 46 48 48 48 47 41 45 46 46 41 41 48 49 55 60 63 68 72 66 64
76 66 53 48 48 50 56 61 70 72 69 66 62 58 65 69 74 64 58 57 58 57 54 59 56 54 50 43 45 54 54 49 52 51 54 58 62 63 63 68 71 72 58
71 73 72 54 49 48 48 55 63 67 72 73 73 71 70 70 69 64 69 76 84 87 88 80 74 67 55 56 63 61 56 60 66 73 72 70 67 60 58 64 64 60 60
68 69 66 61 40 46 48 47 49 53 61 71 71 76 81 80 82 73 71 81 90 90 93 92 90 91 92 83 83 87 67 62 71 83 85 86 76 67 61 62 75 65 48
63 64 68 68 37 45 44 43 43 44 48 52 63 79 82 84 73 68 71 74 95 99 99 95 96 100 99 97 93 98 97 95 90 91 96 96 80 67 54 50 44 42 48
63 63 61 64 52 33 37 32 31 35 38 52 67 73 86 77 85 81 76 78 94 97 100 95 100 97 97 94 95 93 96 98 96 99 97 92 68 43 43 46 52 61 45
63 62 56 58 62 66 35 38 42 45 45 55 72 74 69 67 68 76 84 89 86 86 97 98 99 100 99 100 98 98 96 98 95 69 71 72 43 45 47 61 61 55 57
56 60 54 52 58 70 81 73 55 52 50 53 64 70 73 83 87 86 84 84 94 97 97 90 99 100 91 99 99 98 94 73 50 55 71 88 76 58 44 46 60 41 52
51 48 52 52 51 55 62 46 51 54 60 72 74 76 80 78 86 84 73 65 74 81 76 76 72 72 68 63 52 52 51 50 55 43 25 32 37 35 29 43 61 39 95
57 61 47 51 86 62 40 48 45 49 68 80 80 80 80 87 78 74 72 78 77 71 77 70 69 73 69 62 56 54 51 44 34 25 22 22 23 25 30 32 39 82 95
62 64 68 68 75 65 61 44 44 51 59 75 84 89 89 84 84 82 82 84 80 70 77 70 67 66 62 58 56 54 49 42 36 29 25 25 26 25 25 26 83 30 38
66 67 68 60 58 50 40 39 40 54 67 84 90 89 87 92 88 96 96 98 80 74 69 65 62 60 59 58 56 54 49 40 33 31 30 30 29 27 27 26 28 33 33
45 61 69 68 62 52 46 44 44 50 56 68 70 85 90 91 92 78 81 73 72 83 80 76 73 65 61 57 55 50 42 35 32 32 33 31 30 29 29 30 34 45 53
42 40 39 40 44 45 41 41 42 41 44 57 61 68 75 78 85 81 73 69 71 71 70 68 66 65 61 56 47 40 35 34 34 33 33 35 35 37 40 40 43 54 64
36 44 40 40 42 39 40 43 44 41 40 42 50 60 70 77 78 75 73 74 75 75 74 71 67 61 54 47 44 40 35 37 37 36 34 34 37 39 45 49 49 47 53
34 32 40 41 41 41 41 40 38 38 39 42 46 58 72 76 76 77 79 79 76 71 65 60 58 56 53 52 50 43 39 38 38 37 36 34 38 46 46 48 47 47 41
36 36 39 44 43 42 44 43 43 45 49 54 60 68 72 74 75 74 70 65 63 66 67 65 64 60 56 53 51 51 45 42 43 44 41 46 47 42 37 36 39 35 33
47 46 45 45 50 49 50 49 51 53 54 57 59 58 58 60 64 68 72 74 72 69 68 69 69 69 69 64 59 50 49 54 57 54 50 48 42 35 33 32 35 43 57
54 54 52 52 56 58 59 59 60 62 62 60 59 58 60 66 70 72 74 79 82 85 86 83 77 72 71 68 70 65 63 66 67 61 52 44 36 36 36 39 56 64 49
60 63 57 57 58 63 66 70 72 69 65 65 65 65 65 65 67 71 83 87 86 85 85 83 82 78 79 72 69 67 71 74 75 60 48 41 40 45 47 60 65 27 10
49 65 65 62 68 71 77 80 70 71 70 67 67 66 65 66 73 78 80 92 91 85 82 82 80 84 82 72 66 69 79 83 72 54 49 53 50 59 67 62 16 11 16
50 64 74 66 75 84 90 79 73 77 73 71 68 68 69 74 89 98 90 92 93 92 90 86 83 80 90 88 84 89 96 89 72 58 55 64 75 76 49 11 12 15 18
71 76 80 76 78 82 79 77 76 74 74 76 77 74 80 96 93 91 94 94 93 94 89 83 86 88 94 98 100 100 100 93 81 70 76 82 78 35 9 11 13 16 22
87 84 85 87 87 84 81 77 77 77 78 81 80 91 100 92 91 97 96 95 97 97 95 91 88 93 99 100 100 100 100 98 90 84 86 70 22 8 8 10 14 21 28
96 92 95 97 93 90 88 87 86 84 88 90 96 100 100 100 99 100 95 97 99 96 95 93 93 94 98 97 99 99 98 98 94 93 82 28 8 7 8 12 19 26 32
84 93 95 97 97 95 92 91 92 90 84 92 99 100 100 100 100 98 92 94 94 95 95 95 94 97 98 98 96 98 97 97 97 96 59 16 5 6 10 17 24 30 35

GFSMW_700_rhum_102.txt.gz
RH
67 58 59 70 79 72 70 60 68 66 58 60 60 48 50 52 52 53 54 48 41 42 43 42 43 44 46 51 52 51 47 45 55 51 47 45 49 55 65 69 63 73 72
71 60 60 55 63 71 72 73 72 67 63 66 73 57 58 55 59 59 47 48 52 53 55 53 55 55 57 58 58 54 48 53 65 57 53 52 59 71 75 72 66 66 69
80 73 56 53 53 54 60 62 67 65 66 72 73 76 69 65 61 67 69 67 65 68 68 68 72 67 66 72 81 84 82 78 76 76 66 65 65 68 76 77 67 66 64
80 77 62 57 50 50 56 65 64 67 67 59 64 71 63 65 78 75 70 70 79 72 72 82 91 90 88 86 90 89 91 92 95 96 86 83 84 74 81 82 72 61 62
74 73 70 65 56 53 51 52 51 54 55 58 62 67 72 73 77 74 76 80 81 74 82 85 93 95 97 99 99 98 98 98 98 98 99 98 98 100 100 98 62 56 84
71 71 68 69 69 52 46 48 52 52 46 46 59 58 60 64 68 76 76 78 80 81 84 88 98 97 100 97 99 100 98 100 99 100 100 100 100 100 99 91 81 81 70
67 64 67 66 69 49 36 43 49 50 56 52 54 55 54 59 66 74 78 75 73 82 87 86 85 78 88 95 99 100 100 100 97 100 100 99 97 79 80 90 84 81 70
56 64 64 63 62 53 46 43 43 47 47 48 51 51 56 64 67 72 75 81 83 82 76 87 93 76 81 78 87 100 90 99 100 100 98 95 90 86 77 84 86 73 76
56 65 64 63 62 56 48 46 46 41 48 47 44 46 52 60 74 77 80 84 82 75 69 76 80 81 75 76 84 64 61 63 60 58 54 51 49 37 36 46 52 56 45
49 50 64 64 62 60 61 67 78 61 51 47 49 50 69 82 86 90 90 83 76 78 78 72 73 73 69 70 70 73 69 57 55 53 48 42 34 29 28 32 39 48 79
55 54 45 56 62 63 63 89 78 62 49 42 50 65 77 83 83 80 80 81 84 89 87 90 82 70 75 69 69 65 59 57 57 55 51 42 35 32 30 28 27 31 38
56 61 57 59 67 73 83 93 85 55 50 59 70 78 80 85 88 90 87 94 93 80 80 97 75 72 71 66 64 62 62 60 58 56 51 42 36 34 32 31 30 31 33
62 60 61 64 70 72 60 54 62 64 58 58 70 74 84 90 89 88 90 90 92 74 70 79 77 76 75 77 72 66 64 61 56 48 42 37 34 32 33 34 37 35 36
56 66 66 67 68 70 66 65 65 58 51 54 51 59 71 79 90 90 92 88 88 80 72 69 69 70 70 69 67 67 64 58 50 43 39 37 35 34 33 35 40 45 48
40 39 45 55 66 72 64 53 51 49 48 46 47 56 71 77 80 78 78 79 81 76 72 72 74 76 75 72 67 60 54 49 45 41 41 40 36 39 39 38 39 45 49
36 37 43 43 44 43 43 43 45 48 48 45 43 45 52 61 69 72 75 77 78 78 78 78 75 70 63 58 56 56 54 50 49 45 44 45 40 40 41 43 44 48 53
39 38 35 42 47 45 45 45 46 45 44 44 45 48 49 55 64 72 77 80 80 76 69 66 67 69 68 65 62 58 55 52 48 45 48 47 50 50 44 48 51 49 46
42 44 43 41 47 51 49 45 46 51 53 55 58 59 61 65 68 68 68 66 64 66 69 71 72 73 74 73 72 66 63 62 59 58 56 59 61 57 51 50 44 39 40
51 52 48 48 47 58 56 56 59 58 56 56 57 58 59 61 63 67 69 72 72 74 76 78 82 82 81 77 73 70 65 67 67 65 67 70 70 61 53 46 40 41 44
56 59 60 58 60 63 63 65 66 67 68 68 66 64 66 70 70 68 65 65 70 77 78 77 81 86 83 78 76 78 69 65 62 65 71 78 72 59 50 48 45 47 65
53 61 62 62 63 73 77 79 79 80 74 68 69 68 67 66 64 63 63 65 73 81 90 82 82 85 86 87 84 78 70 64 65 74 82 80 65 55 52 51 59 68 76
59 50 57 73 69 74 83 87 90 82 76 77 74 72 71 70 72 72 77 89 90 87 84 86 87 85 84 81 80 78 77 80 89 96 91 76 64 60 62 69 77 80 28
69 61 63 78 78 80 86 93 94 81 82 81 77 76 75 78 79 77 93 87 78 76 83 86 91 91 89 86 88 89 98 100 100 100 97 77 69 66 84 90 72 17 11
93 86 84 86 89 95 97 96 87 82 80 79 79 79 82 87 96 90 93 88 87 90 89 91 95 95 92 92 89 91 98 100 100 100 99 86 84 93 87 41 11 10 12
100 100 99 100 99 96 94 93 92 87 83 83 86 94 100 100 100 100 100 100 97 92 91 90 90 97 97 95 94 96 92 96 98 98 98 98 100 69 19 7 8 10 13
82 83 92 97 98 97 97 98 98 97 98 97 92 89 92 98 100 100 100 100 100 100 94 92 89 94 96 95 97 96 96 95 98 98 97 97 94 15 15 37 11 10 18

GFSMW_700_rhum_105.txt.gz
RH
75 80 87 92 91 93 97 66 85 62 53 41 42 38 37 38 42 46 40 41 42 43 43 44 44 44 44 44 45 47 49 53 54 48 50 58 54 55 60 63 75 73 70
68 73 87 90 83 85 94 86 80 80 93 92 79 73 62 51 61 63 70 57 56 54 56 50 51 55 54 51 56 61 63 63 66 56 60 68 65 60 63 71 77 76 73
62 63 67 85 98 83 78 79 73 80 69 72 87 83 83 74 68 61 54 58 62 63 56 57 62 70 70 70 69 67 84 89 95 92 90 78 74 71 76 83 85 86 75
64 60 61 68 78 90 97 93 76 77 74 88 79 80 82 83 73 75 80 67 62 65 65 68 64 63 80 89 81 83 98 97 91 97 97 98 98 97 92 90 94 95 93
78 70 66 61 59 57 60 76 77 78 78 79 75 79 78 83 85 82 58 60 60 73 76 74 81 92 93 95 100 98 100 99 99 99 98 98 98 99 99 98 99 100 100
88 85 81 78 69 61 57 59 67 70 73 68 68 71 69 72 73 67 70 78 81 91 95 99 92 82 90 94 83 94 90 89 97 99 100 100 100 100 100 98 99 98 100
96 80 75 74 69 63 59 58 58 57 55 68 57 55 58 58 58 61 77 74 74 80 77 81 94 83 72 70 83 85 88 94 100 98 99 99 100 100 100 99 99 98 99
80 72 71 72 70 70 53 55 55 56 58 63 64 64 59 59 55 55 66 79 75 77 84 83 70 63 62 80 84 80 78 93 90 83 91 88 82 74 98 98 93 91 78
47 69 65 66 69 64 68 60 46 45 58 64 65 61 55 58 54 56 64 71 76 77 75 72 74 73 75 80 75 74 81 79 71 64 58 58 56 56 55 54 58 61 54
70 70 61 61 65 64 64 62 54 55 64 63 57 53 50 49 51 58 75 83 80 82 79 82 86 82 78 79 78 75 76 75 74 70 59 58 57 53 47 40 36 39 43
61 58 59 68 67 65 63 60 57 57 58 58 49 45 42 50 58 72 78 78 74 70 81 91 78 90 90 89 83 83 76 76 68 62 61 60 58 56 52 43 37 35 33
51 53 55 58 63 66 66 65 64 60 58 60 52 42 58 66 76 73 84 80 85 81 95 89 77 66 83 82 77 72 69 71 72 68 64 62 58 51 47 42 38 37 38
57 54 58 61 56 59 62 61 62 74 74 59 50 59 70 70 70 81 89 94 94 93 83 95 81 73 71 71 77 78 76 74 70 68 65 62 56 48 42 40 37 40 43
59 61 60 63 62 67 63 63 67 62 58 57 56 58 61 66 75 90 96 96 97 95 99 90 80 76 73 71 70 71 72 72 70 66 60 55 49 45 43 44 41 40 46
49 59 66 64 63 65 69 70 71 67 68 63 55 56 58 61 73 86 94 94 88 86 83 80 77 76 74 74 74 73 69 64 59 55 52 51 50 48 45 44 46 43 44
41 43 43 46 63 73 76 76 75 75 75 71 54 46 47 52 58 80 87 82 83 81 79 75 71 73 75 73 68 61 58 57 55 53 51 49 48 47 51 52 49 50 46
43 38 37 45 47 50 54 62 68 61 51 48 48 49 46 43 50 59 66 74 73 71 71 70 72 69 62 60 60 59 58 57 56 56 56 57 56 54 50 55 58 58 53
47 40 38 38 38 46 47 46 46 47 48 50 49 46 45 47 50 56 70 72 72 68 62 61 64 65 64 63 62 64 65 63 60 58 58 60 64 64 62 58 65 62 59
50 52 44 44 44 44 53 52 50 49 48 51 55 57 58 58 58 64 65 61 60 62 66 68 66 64 65 64 60 63 69 66 66 62 64 65 64 65 70 72 74 65 57
48 52 57 56 55 53 58 61 62 64 63 63 58 55 56 57 58 59 62 66 66 65 64 66 63 56 61 72 74 78 78 75 71 66 60 60 62 67 76 81 75 62 54
47 46 61 66 60 66 70 70 68 67 68 65 63 64 65 66 66 67 68 67 65 65 61 60 67 71 70 72 75 80 80 75 71 71 63 68 78 84 87 81 68 59 56
60 64 58 69 72 73 76 78 80 79 77 76 70 70 70 70 70 71 71 72 67 60 66 77 73 69 75 77 85 86 81 79 78 79 81 87 100 100 87 73 66 62 65
67 64 56 64 82 81 85 92 95 93 92 80 76 76 74 76 75 75 80 81 77 77 75 70 67 73 77 82 88 87 84 80 83 85 94 100 100 99 84 77 75 81 95
83 81 76 72 79 87 91 97 98 100 100 90 86 87 82 80 81 87 93 91 88 84 92 78 71 74 79 82 85 85 87 82 85 85 93 96 97 97 94 97 100 100 78
93 98 100 100 96 93 94 99 100 100 94 88 86 83 82 83 88 98 99 95 86 89 97 94 80 82 85 82 80 83 87 86 87 88 93 97 96 97 97 96 86 43 14
84 87 91 98 100 93 92 94 94 94 94 92 91 91 91 91 97 98 97 90 100 100 100 98 74 86 91 86 82 81 84 87 89 90 96 97 96 96 96 95 74 9 7

GFSMW_700_rhum_108.txt.gz
RH
75 76 85 96 99 98 90 79 75 67 57 36 29 26 29 32 36 39 42 45 46 46 46 46 46 46 45 44 45 46 46 49 55 60 61 58 58 59 68 60 58 61 69
80 78 79 95 94 97 99 94 93 76 45 57 50 38 32 35 37 39 41 41 42 43 44 50 55 55 48 51 58 62 60 58 62 63 89 96 84 72 75 71 70 72 78
92 92 90 95 93 82 91 88 94 92 73 86 74 61 59 58 49 52 53 75 69 69 67 62 60 55 57 64 74 81 81 76 76 97 98 97 99 97 96 92 94 87 87
89 89 87 88 88 86 82 96 87 95 87 90 88 92 97 82 82 88 82 85 86 79 78 76 75 74 80 81 85 92 94 97 95 96 100 98 99 99 99 99 100 100 97
80 83 77 80 86 83 93 94 87 89 99 99 96 86 84 86 96 94 84 81 81 77 73 76 80 90 97 99 99 96 91 78 87 86 83 80 89 100 99 100 100 99 99
81 74 70 67 74 93 99 89 96 94 87 91 99 99 99 98 98 90 87 81 76 76 84 92 88 84 90 73 81 90 77 82 77 77 94 100 97 99 99 99 99 100 100
84 70 63 63 64 69 78 87 96 96 99 98 99 99 99 99 93 96 88 84 84 86 80 79 80 82 88 83 70 68 71 75 76 81 98 97 100 99 100 98 96 99 99
96 81 68 76 72 71 67 71 76 79 84 86 90 79 84 83 78 70 76 71 70 71 71 72 82 90 77 66 59 60 72 69 74 91 84 70 67 71 72 70 65 81 94
94 81 74 72 70 70 66 62 61 62 69 72 72 70 66 64 63 62 62 64 65 71 70 69 72 72 65 59 68 74 77 77 79 80 80 80 71 60 59 63 60 69 74
99 77 77 72 72 71 69 63 62 58 58 61 66 66 66 62 59 58 56 52 56 62 63 68 78 73 66 63 76 82 87 85 84 83 78 79 67 61 60 58 55 51 45
72 83 85 80 69 63 66 68 64 56 49 53 57 60 60 59 54 50 53 57 70 72 74 70 67 77 77 63 69 88 85 86 87 87 72 70 69 67 64 61 56 50 47
63 72 73 69 68 66 67 67 65 62 55 50 58 56 49 48 49 53 63 70 71 75 76 73 81 78 90 76 67 73 79 78 77 75 75 74 75 76 69 72 76 67 60
60 60 62 55 56 64 68 68 67 66 62 58 54 55 51 46 54 66 74 78 88 84 92 92 91 76 94 85 72 68 67 66 66 68 69 69 68 65 60 57 54 52 44
45 54 53 51 52 59 62 63 65 65 64 79 77 60 52 57 63 72 75 82 88 94 93 94 93 95 91 78 69 67 65 65 65 64 62 60 57 53 51 50 51 51 53
44 45 60 60 60 56 60 68 66 60 69 71 66 63 59 58 61 64 64 70 82 83 86 91 89 80 81 76 68 64 65 65 64 60 56 54 52 50 49 50 50 51 54
46 46 58 65 64 64 65 67 67 69 76 77 74 70 72 59 51 56 54 56 64 71 74 85 83 82 76 71 64 64 58 55 55 53 51 49 48 48 48 49 53 55 53
48 42 46 47 55 64 66 68 73 76 86 83 80 75 66 51 46 47 49 52 63 72 71 79 76 68 63 57 53 56 58 55 53 51 50 48 46 44 49 53 55 60 62
56 45 38 37 41 47 50 59 70 75 77 72 67 60 52 49 49 46 45 48 54 60 72 71 66 57 53 56 58 58 54 49 49 55 59 57 55 52 55 58 60 64 66
57 52 48 44 40 38 41 47 50 51 51 51 50 51 53 53 49 47 50 54 64 72 70 59 55 56 54 53 52 50 54 66 66 66 67 66 60 55 51 53 56 63 72
52 53 52 52 49 48 47 45 48 51 54 55 57 56 58 59 60 64 70 62 60 61 62 60 58 53 53 52 56 63 67 68 69 70 70 68 63 56 54 56 63 73 78
60 57 53 53 62 61 62 69 73 67 62 69 68 65 62 63 66 64 64 62 65 66 62 57 57 57 54 59 66 63 67 70 73 75 72 69 68 63 56 65 80 83 83
65 64 70 72 77 74 76 76 76 74 74 72 71 70 72 69 66 69 67 66 67 66 65 63 63 58 52 60 62 63 66 70 73 75 75 70 73 76 78 94 98 90 80
77 69 66 66 82 88 85 92 89 88 85 83 84 83 75 75 74 72 70 69 72 74 71 67 66 58 58 67 65 67 71 69 69 76 76 76 79 85 89 95 96 89 79
88 89 90 79 87 96 96 99 99 98 98 97 96 91 83 83 79 79 78 80 81 77 71 73 76 80 76 71 71 73 75 71 69 73 78 82 82 87 92 94 94 94 89
89 94 96 99 100 100 100 100 100 99 99 99 96 98 92 89 88 84 82 83 85 82 94 94 95 100 100 83 61 79 82 76 74 74 82 83 85 88 93 95 94 97 98
93 90 86 88 97 98 97 98 99 99 98 98 98 98 97 96 92 89 89 97 99 93 96 91 100 99 93 61 43 69 84 81 79 79 87 84 87 90 93 94 94 98 96

GFSMW_700_rhum_111.txt.gz
RH
82 83 92 97 98 95 79 70 67 64 40 54 32 25 21 23 26 32 39 45 48 49 50 50 49 48 47 47 46 46 48 51 54 56 63 64 79 90 94 95 76 73 69
78 74 89 86 97 96 90 83 74 58 45 43 46 30 25 26 28 33 39 45 47 49 48 47 46 45 46 48 50 53 64 71 75 76 76 79 85 99 97 98 97 87 87
79 71 80 85 94 92 88 71 69 61 64 62 56 37 28 30 32 33 38 43 44 46 47 51 60 69 69 68 71 77 85 93 95 90 85 72 72 82 89 99 99 99 99
75 73 79 85 96 96 99 93 96 82 70 71 75 53 37 34 33 35 38 43 56 65 65 75 77 81 82 85 94 97 99 99 83 78 81 84 87 91 99 95 95 98 100
74 74 81 82 78 91 96 100 100 98 100 84 91 78 74 78 53 53 58 70 76 88 85 86 82 87 84 98 99 87 68 83 83 88 89 86 92 92 97 99 100 99 98
78 89 84 81 83 74 95 94 98 99 96 91 93 92 97 98 82 71 75 78 84 85 90 89 95 98 86 78 75 85 89 85 80 81 81 82 98 98 96 99 99 99 99
91 86 81 74 82 92 97 99 99 100 99 100 95 98 99 100 99 92 91 94 86 96 95 93 92 86 87 91 83 78 72 65 70 78 72 80 90 78 88 98 99 92 71
98 94 96 93 92 92 99 100 95 90 97 95 91 100 100 98 100 100 100 100 98 95 97 87 83 79 84 87 75 67 63 74 72 68 70 81 79 71 64 61 60 59 61
90 83 86 86 82 77 76 83 93 98 100 97 98 100 99 97 99 97 98 80 83 84 72 68 73 85 82 75 70 68 75 75 76 77 77 76 76 76 76 68 61 60 59
96 88 87 86 77 76 72 69 67 70 76 81 89 94 95 94 89 86 88 76 70 65 64 74 81 80 74 68 62 54 51 54 57 63 77 80 83 78 71 68 66 65 63
97 94 89 85 73 69 73 75 74 70 64 60 67 74 76 77 83 79 72 64 60 59 64 73 70 72 67 57 56 52 47 48 54 66 75 77 78 76 73 73 73 74 73
98 98 85 95 84 79 74 78 79 73 67 59 51 53 62 66 66 65 64 62 64 66 68 71 67 64 61 63 64 67 66 59 60 61 64 66 69 68 67 67 66 64 62
68 78 92 94 93 80 65 67 72 69 66 61 52 56 61 62 58 58 62 73 80 81 80 77 79 80 82 76 61 64 69 65 60 53 51 49 52 54 54 53 52 50 49
70 71 73 76 76 81 63 68 67 66 65 62 58 59 52 56 53 53 59 72 80 76 82 83 89 84 84 72 68 60 67 50 49 46 49 47 49 49 49 48 46 45 44
49 57 57 54 57 59 54 58 67 68 67 66 66 61 57 56 53 60 71 73 70 70 72 81 80 69 77 72 61 54 63 49 48 45 45 44 45 45 46 45 42 41 42
42 44 61 60 60 64 64 61 62 69 69 66 71 69 62 54 52 52 56 62 62 59 65 75 83 76 76 64 57 50 55 53 50 47 45 42 39 38 39 38 36 37 42
43 42 44 61 68 65 66 69 70 71 73 76 74 73 73 68 69 65 56 52 54 58 60 74 72 57 52 53 61 58 53 52 50 43 38 39 48 52 54 54 54 54 52
49 44 40 42 46 55 66 68 70 72 76 78 83 85 80 75 80 72 54 46 48 53 62 60 47 59 70 68 60 52 51 49 45 40 40 49 52 58 59 56 54 52 49
51 50 43 40 39 40 44 47 52 65 79 87 89 88 82 73 61 54 53 52 48 51 63 70 77 74 65 58 54 51 46 47 53 50 49 53 57 62 63 59 56 52 51
45 50 51 50 48 45 41 40 43 48 50 51 53 53 53 52 52 54 54 55 60 70 79 80 70 63 58 56 49 49 50 51 54 53 52 57 60 65 63 62 59 55 55
41 40 45 49 51 52 50 48 48 50 56 55 56 58 59 58 57 62 65 64 68 71 72 72 69 64 61 54 51 51 47 51 58 55 57 60 64 67 66 65 63 62 60
57 51 51 54 52 60 65 64 66 68 69 72 71 73 74 75 73 68 66 66 68 71 74 70 69 68 63 60 59 52 50 61 59 57 61 63 68 68 68 68 70 73 80
75 70 62 65 70 75 84 80 78 86 89 87 83 78 75 74 77 75 74 74 73 74 78 80 75 74 74 66 55 45 63 65 61 62 63 67 69 67 69 72 75 77 82
81 84 85 80 87 100 100 96 98 99 96 91 90 89 87 88 85 83 82 81 84 86 83 84 88 85 89 88 73 68 63 55 55 63 70 71 69 71 74 74 77 81 87
85 84 84 94 100 100 100 99 98 98 98 99 98 98 99 98 97 97 96 96 97 92 92 98 99 97 97 90 99 91 63 47 44 74 78 75 74 77 76 77 80 84 87
97 95 95 93 97 98 100 100 99 93 95 98 98 98 98 99 99 97 98 97 97 98 98 98 99 98 100 100 96 67 49 52 65 81 85 84 82 81 78 80 83 86 86

GFSMW_700_rhum_114.txt.gz
RH
70 70 90 89 100 98 91 68 50 64 64 52 43 31 29 28 29 26 28 41 48 50 51 51 51 51 51 50 48 48 48 48 51 61 69 71 69 69 71 79 89 97 88
50 78 97 100 96 99 92 80 60 36 65 61 57 48 30 29 29 30 28 40 47 49 50 50 50 50 50 48 47 48 50 56 74 84 83 74 76 76 74 94 100 97 99
60 81 86 98 94 99 99 98 83 68 60 61 63 60 38 36 28 29 29 37 43 46 48 49 50 50 47 48 51 61 66 80 88 82 60 55 65 67 74 83 97 98 100
79 81 76 88 99 97 99 99 99 73 55 59 41 40 52 31 30 28 29 34 40 44 47 48 48 50 66 79 82 87 83 94 77 83 63 61 71 72 76 78 86 96 95
64 74 71 81 95 100 98 100 96 81 64 66 62 56 70 58 34 30 32 35 40 47 50 53 62 73 89 93 97 97 90 72 62 85 69 64 72 72 73 90 81 84 97
52 69 73 74 94 100 93 99 99 98 98 84 81 74 78 76 52 39 37 39 53 65 68 74 76 82 91 99 97 76 74 64 76 73 68 72 77 70 82 85 89 97 98
99 81 64 76 91 99 97 96 94 98 95 100 91 79 86 92 76 76 65 64 70 74 93 90 92 97 99 94 85 89 80 76 73 70 66 68 65 76 81 76 69 71 82
100 96 89 81 97 98 98 88 86 99 99 98 99 100 100 97 100 99 83 94 83 94 96 83 99 98 95 99 92 88 77 68 64 66 69 66 69 73 72 72 72 68 61
93 99 89 89 89 94 84 81 71 94 99 98 98 99 98 92 100 100 100 100 100 100 98 88 88 98 94 93 89 72 69 66 68 70 68 67 71 75 74 75 73 69 69
97 100 94 89 92 89 89 96 95 93 99 99 99 97 76 75 97 99 97 100 98 97 99 85 95 87 84 82 79 74 67 63 66 67 63 56 61 72 75 75 73 71 70
97 95 93 97 96 88 91 83 86 91 96 96 93 93 86 83 84 94 95 88 83 87 85 83 80 85 86 81 80 74 66 58 52 49 42 44 47 49 45 53 59 67 66
100 87 79 71 69 79 87 90 89 82 80 73 63 73 82 86 89 88 91 93 88 80 76 87 92 91 86 83 75 67 68 66 55 48 47 43 45 45 46 45 48 46 44
99 96 84 79 76 76 86 87 82 80 77 76 66 67 72 75 77 83 85 82 82 80 88 92 91 88 80 75 77 73 63 63 57 54 47 43 48 47 45 46 47 43 39
89 99 98 92 82 73 73 77 85 86 84 78 69 64 62 65 72 75 76 75 75 85 90 94 88 84 84 82 81 82 76 73 60 49 43 40 43 42 43 42 41 43 40
82 74 83 91 96 89 80 73 73 87 77 73 69 67 65 61 61 64 67 68 81 99 100 93 87 85 87 88 82 77 79 69 58 48 43 38 42 43 38 37 33 36 33
53 63 68 59 62 70 68 62 68 69 71 74 72 70 70 64 62 60 67 73 82 89 92 92 88 82 84 86 78 79 70 62 56 50 40 40 38 35 35 44 40 45 43
44 45 51 68 65 64 64 65 66 67 71 73 75 84 83 69 66 68 70 71 76 79 76 73 73 80 86 87 84 74 62 55 49 42 39 38 36 38 41 43 47 50 48
50 44 39 43 61 68 68 67 68 71 75 83 84 99 94 83 80 80 81 79 75 64 60 61 64 78 90 88 74 63 62 52 45 44 38 41 44 52 50 49 50 51 51
49 50 47 41 38 42 52 63 70 70 71 75 84 92 96 96 97 88 84 86 78 62 56 60 62 68 71 68 66 64 55 49 46 42 44 48 52 55 57 57 57 55 54
44 46 50 50 49 47 42 39 42 50 57 67 77 85 88 89 90 83 74 62 61 61 58 60 66 72 74 72 63 57 54 46 47 47 45 52 58 56 55 63 60 60 59
36 38 41 44 49 52 52 50 49 47 47 52 57 59 61 61 62 61 60 61 63 64 69 75 76 74 68 66 64 58 55 53 53 51 50 55 54 56 62 60 62 62 59
50 48 47 46 49 46 47 55 61 66 66 65 63 68 67 68 72 74 80 83 84 83 78 72 71 73 71 69 69 66 61 62 56 55 57 59 58 60 64 65 62 60 61
62 61 62 61 65 69 70 77 80 80 90 94 91 93 90 87 87 86 82 79 82 83 83 80 79 79 77 81 85 80 74 64 54 67 61 60 59 66 68 68 66 63 65
77 79 82 82 75 88 96 99 100 100 94 98 100 99 95 91 88 87 90 90 91 90 92 90 89 89 89 90 89 88 84 83 62 61 40 36 44 70 71 70 68 68 71
79 79 77 78 85 89 94 96 98 98 99 99 98 98 97 98 99 100 100 99 96 94 95 97 96 95 98 92 86 86 87 82 70 45 38 37 54 74 78 74 71 72 77
70 76 80 81 86 87 85 89 93 94 94 99 99 98 99 100 99 98 98 99 99 98 99 100 97 96 97 100 86 96 86 81 60 48 42 53 70 82 81 78 78 79 78

GFSMW_700_rhum_117.txt.gz
RH
70 63 77 81 87 77 94 100 98 98 68 60 36 32 24 23 25 28 27 21 33 44 51 52 52 52 51 51 51 50 49 49 48 49 52 65 70 74 73 75 77 88 99
73 57 62 87 78 76 95 100 96 78 77 59 42 42 32 26 27 29 26 23 36 46 50 52 52 52 51 51 51 50 48 48 50 57 68 68 63 67 77 76 75 81 90
80 35 45 80 73 81 83 98 99 93 74 76 54 46 42 29 29 30 30 25 37 47 50 52 52 52 51 51 50 49 49 56 62 64 72 76 83 80 62 69 76 82 87
83 50 42 65 78 69 74 99 98 99 76 92 78 65 46 37 29 29 28 25 35 45 49 50 51 50 50 51 49 61 80 86 87 75 87 89 76 80 68 57 68 78 85
89 49 53 59 81 69 69 99 100 98 80 88 82 82 81 54 40 32 31 32 32 39 46 47 48 49 50 52 77 84 91 68 98 80 72 89 82 68 66 63 66 80 87
72 61 63 66 80 57 67 98 98 100 98 85 76 76 62 56 38 35 38 36 33 33 38 42 46 49 56 74 84 95 97 84 84 86 71 77 76 62 68 63 66 72 74
51 44 54 62 72 77 85 99 100 100 100 84 83 74 72 60 67 52 42 38 38 36 40 43 53 69 85 87 89 97 64 80 82 72 78 72 62 61 63 62 71 69 64
44 42 44 54 75 78 88 97 92 100 100 98 97 94 82 82 72 53 62 50 47 49 50 59 78 82 89 94 98 82 80 90 87 83 72 61 59 62 59 64 66 65 66
97 78 68 66 69 80 93 97 98 100 99 100 98 99 95 81 80 99 84 77 64 74 73 79 82 98 99 98 95 83 91 90 77 66 60 62 66 63 58 64 67 72 71
100 98 86 75 72 86 90 93 97 96 97 93 96 98 100 100 97 100 100 94 89 91 96 94 84 98 91 99 80 94 88 79 67 57 60 69 62 47 49 54 58 62 58
100 100 100 93 90 89 78 80 98 97 99 98 100 100 94 80 72 75 91 100 100 99 98 99 98 98 93 94 96 91 79 70 64 58 54 53 48 42 42 40 41 39 37
100 100 100 99 95 96 78 73 86 98 100 99 96 97 96 86 79 75 87 91 93 99 100 95 95 89 91 96 94 84 79 75 67 63 57 55 49 44 44 39 35 38 38
100 99 99 100 99 95 92 96 97 96 96 96 87 86 86 83 81 82 79 84 77 84 92 89 90 96 89 93 87 85 81 68 60 58 56 51 46 39 36 38 41 37 37
99 100 100 100 100 99 97 97 100 89 96 96 96 91 85 87 86 89 92 91 94 97 90 87 90 94 95 93 89 83 73 70 63 63 58 51 46 44 42 41 38 36 33
95 100 99 98 98 100 100 100 100 100 99 98 89 73 67 65 73 80 83 90 96 91 84 94 99 98 96 92 86 87 88 82 73 72 61 53 49 50 43 42 39 32 30
76 79 87 96 100 96 88 92 98 98 95 87 78 77 72 68 63 62 66 73 78 82 90 95 92 98 95 93 91 91 89 78 82 77 65 57 51 44 40 38 34 31 31
50 60 71 72 74 77 74 78 81 90 94 95 86 75 76 79 67 62 64 68 75 88 98 100 99 100 98 97 95 94 93 90 80 69 59 52 43 40 37 37 35 32 33
53 47 46 56 73 70 69 70 71 72 78 85 89 94 97 93 74 69 68 65 73 85 89 89 88 87 89 94 98 100 98 92 77 62 56 48 41 39 41 40 38 41 44
51 52 51 45 42 50 66 72 74 73 73 78 89 96 100 93 93 86 84 80 80 77 79 78 72 69 74 83 96 93 86 74 67 60 52 46 45 45 42 42 45 46 45
40 46 49 52 51 50 48 46 52 65 82 88 88 88 89 90 95 95 99 100 95 90 92 88 76 68 75 80 81 78 69 70 60 54 49 47 47 47 43 44 49 50 49
40 41 42 48 50 55 58 60 56 52 51 53 59 70 80 89 92 98 99 98 93 83 73 69 69 70 72 76 78 78 70 66 63 54 51 54 52 48 43 50 52 52 53
36 37 39 42 50 56 57 62 70 72 67 64 62 60 62 62 63 64 66 65 66 68 68 71 76 80 84 86 82 74 74 67 60 60 63 60 54 48 52 55 54 54 56
53 51 46 47 47 48 57 77 78 88 97 96 90 86 85 80 73 70 72 75 79 84 84 86 89 87 82 80 78 78 71 73 72 66 63 60 50 49 52 51 53 50 57
56 62 65 61 58 61 61 66 90 96 95 98 97 98 99 97 96 97 94 90 86 85 84 84 80 79 80 82 82 79 81 81 78 76 68 56 59 40 32 32 47 62 57
59 65 71 75 75 72 68 67 70 75 90 90 97 98 97 98 96 96 97 97 94 92 90 91 91 85 89 92 87 89 93 92 92 82 66 63 50 42 37 42 54 63 73
51 54 62 70 74 76 76 77 79 79 79 76 80 83 90 92 93 95 97 98 98 98 98 98 98 98 98 98 97 97 98 99 95 93 84 55 54 47 47 48 61 79 83

GFSMW_700_rhum_120.txt.gz
RH
71 80 95 56 55 61 84 97 100 100 100 85 85 60 32 32 28 20 19 22 26 22 26 39 48 51 52 52 51 51 50 50 50 49 48 50 60 71 73 72 77 76 75
76 78 97 62 33 58 80 90 92 100 96 82 85 57 32 23 21 20 20 23 26 20 30 44 50 52 52 52 51 51 51 50 49 48 51 58 68 74 81 79 73 77 76
90 88 72 54 18 57 80 84 84 100 99 94 82 53 33 24 21 20 22 28 30 23 35 46 52 53 52 52 52 52 51 50 48 52 67 76 80 87 87 79 76 70 66
92 91 75 54 24 56 77 70 80 99 99 94 73 53 33 26 22 21 25 32 29 26 38 48 52 53 53 53 52 52 51 49 56 76 71 79 89 94 91 71 68 68 64
99 90 91 59 38 71 78 67 64 97 100 97 72 69 41 38 24 26 29 34 30 26 38 47 52 53 53 52 51 51 51 56 67 78 77 70 71 79 87 75 64 58 60
99 99 90 81 52 73 69 82 58 99 98 99 85 74 53 60 52 34 28 33 32 26 35 44 49 51 51 50 50 52 73 82 75 62 74 77 69 75 76 67 63 52 61
89 90 74 61 50 69 76 74 76 71 82 94 99 94 71 76 54 43 31 31 35 32 32 38 45 47 47 48 53 65 76 69 76 87 70 80 71 72 69 61 54 51 49
70 74 54 62 57 76 84 80 74 82 78 96 98 99 94 76 80 59 44 40 35 36 35 33 37 41 45 51 71 90 90 77 59 70 69 74 79 75 63 60 50 46 38
60 52 45 67 66 90 86 73 70 81 99 96 97 100 100 98 82 70 57 57 49 46 43 40 42 46 61 79 86 94 94 75 70 87 83 75 62 64 66 54 42 41 34
73 52 56 74 81 89 78 73 81 96 98 100 99 99 100 100 98 87 91 78 55 48 50 50 48 57 81 92 96 94 91 81 85 94 78 65 57 53 58 46 37 32 32
100 92 96 91 92 86 83 74 69 81 92 98 100 100 100 97 99 100 99 86 90 78 70 74 60 73 82 91 84 86 97 80 97 80 70 62 48 48 45 39 36 33 37
99 99 86 95 95 85 81 67 71 72 83 100 100 98 98 100 98 97 98 98 99 92 90 84 95 91 88 94 85 83 99 91 96 79 70 55 51 47 46 40 38 30 34
100 99 98 99 90 94 89 87 76 87 99 100 100 99 98 82 88 84 77 87 99 99 99 100 100 100 98 99 100 100 99 98 84 77 64 54 58 54 49 42 34 33 34
100 100 99 99 97 95 94 100 98 91 95 92 98 96 92 92 88 90 86 84 93 90 82 95 99 100 100 94 95 100 97 88 83 77 67 65 65 61 47 41 38 36 34
99 99 100 100 100 100 100 99 98 99 97 98 96 96 100 100 97 93 90 89 91 92 92 93 91 97 88 89 91 96 90 89 85 77 80 78 72 60 46 42 39 34 34
98 99 100 100 100 100 100 100 100 96 92 83 89 79 78 78 85 91 100 100 100 100 100 99 100 93 92 86 91 93 92 91 87 92 90 75 78 66 51 47 38 35 33
60 82 86 95 96 98 99 99 100 99 99 99 88 78 72 72 68 65 72 85 94 99 99 100 98 97 99 100 99 98 96 94 97 96 91 83 75 58 54 46 40 37 39
48 44 60 74 72 75 73 72 71 71 75 80 88 95 92 85 86 76 69 71 77 83 88 96 98 99 98 94 99 99 99 100 99 98 94 84 72 60 51 43 40 42 42
49 51 48 42 50 70 71 69 72 78 88 98 96 94 89 92 98 90 81 74 75 82 91 96 96 97 99 99 98 98 98 99 96 92 86 81 66 58 49 43 45 43 41
33 38 47 50 48 43 42 52 68 74 76 77 88 97 100 100 100 99 93 92 88 86 87 87 84 82 83 80 80 81 78 81 85 89 87 74 63 55 49 46 46 45 42
33 33 32 33 43 48 51 54 52 47 47 56 70 81 87 94 98 100 100 100 100 100 99 100 100 100 99 95 87 81 84 88 94 87 81 69 61 56 52 54 50 47 45
51 41 34 30 30 33 34 40 47 51 55 58 55 52 52 56 63 71 81 96 99 99 99 100 95 88 78 78 81 87 97 97 91 83 76 71 67 64 60 59 54 47 42
74 65 59 56 51 43 37 35 37 39 43 52 64 75 76 74 70 68 66 67 69 71 73 72 71 76 82 89 100 99 94 93 91 86 80 74 72 65 64 59 49 46 44
51 61 75 78 73 67 64 59 53 50 54 48 56 66 63 71 79 88 93 91 86 85 88 93 98 99 100 99 100 100 100 99 96 88 85 80 75 74 64 61 53 37 34
41 41 43 45 51 60 70 75 76 73 66 65 71 79 71 82 94 89 96 94 92 96 98 100 100 100 100 100 100 100 100 100 100 98 92 86 84 80 72 51 43 38 37
31 34 38 40 41 46 51 56 62 66 69 72 74 72 70 70 74 79 86 96 97 96 97 98 99 99 99 100 98 99 98 99 99 96 98 96 96 88 80 63 49 44 43

GFSMW_700_rhum_123.txt.gz
RH
48 53 30 26 60 76 59 63 59 83 96 99 98 95 98 97 78 88 99 60 27 18 23 26 22 26 42 50 52 52 51 51 50 51 50 49 52 58 74 68 78 70 71
67 75 56 72 87 69 52 55 58 81 93 98 100 99 88 93 73 88 86 56 25 19 24 26 20 31 48 52 53 52 52 51 50 50 49 49 57 66 78 86 78 72 60
89 72 62 79 70 61 40 42 48 62 73 97 100 98 99 90 70 73 79 47 26 20 26 24 22 43 52 53 53 52 52 52 50 50 49 50 67 78 79 89 80 74 65
88 73 69 69 63 75 57 36 32 46 90 100 100 97 90 89 64 62 57 42 21 21 29 24 29 49 54 54 53 52 52 52 51 49 49 57 74 78 68 73 80 74 63
67 78 70 68 83 89 54 22 30 79 74 100 100 97 100 82 52 42 33 26 20 22 31 24 34 50 54 54 53 53 52 52 52 50 59 67 84 78 65 69 78 64 56
83 85 70 76 95 86 69 62 82 86 78 97 99 99 100 76 45 29 25 22 21 25 34 26 35 48 54 54 54 53 52 52 52 62 66 61 66 76 70 62 65 59 55
85 77 97 99 93 75 82 75 100 85 77 89 100 100 98 65 40 27 22 21 22 30 36 27 35 45 52 53 53 53 52 51 59 68 68 70 88 62 74 73 54 49 53
95 94 99 94 85 88 83 80 89 81 73 84 100 100 99 92 63 37 28 25 27 38 37 28 33 42 48 50 51 50 51 58 74 66 60 80 71 65 70 48 49 50 48
94 96 89 83 97 72 90 95 79 72 85 74 99 98 99 98 90 69 44 36 39 41 45 38 33 37 42 45 47 48 64 83 77 76 71 58 78 90 76 55 56 52 42
99 86 81 78 81 93 100 90 75 85 75 81 79 89 98 99 99 94 81 55 39 42 45 42 42 38 40 41 47 61 81 84 91 92 77 65 89 79 67 52 43 40 29
75 72 74 78 90 100 96 84 68 82 80 95 92 99 100 99 100 98 96 98 83 58 59 45 45 44 45 47 50 68 84 87 91 98 87 78 96 75 60 44 44 38 34
63 69 97 98 99 97 87 78 76 85 88 85 99 100 97 100 100 100 100 98 94 78 55 52 55 57 56 57 63 90 95 76 91 89 88 89 91 69 53 52 46 42 40
99 100 98 94 92 94 91 78 78 74 85 100 100 100 100 99 99 99 98 100 99 100 92 77 65 62 64 66 76 97 98 88 96 93 97 99 79 72 61 56 51 47 41
100 99 97 99 99 97 88 83 75 93 99 98 100 99 99 98 90 92 99 99 100 99 98 94 90 91 92 95 97 100 99 99 98 100 96 93 80 67 62 60 62 52 42
100 100 100 99 100 100 91 86 80 99 97 96 96 100 99 98 96 99 99 94 95 96 100 99 99 100 100 99 99 100 97 97 100 99 95 85 78 78 77 75 72 61 49
99 100 100 100 100 100 99 98 99 99 100 100 100 100 98 98 100 100 100 100 99 99 100 100 99 100 100 100 99 98 98 100 99 98 88 87 84 88 88 74 74 60 46
97 100 100 100 100 100 100 100 99 100 100 99 98 99 99 96 96 96 99 100 100 100 100 100 99 99 100 99 99 100 100 99 97 94 94 92 94 95 91 80 72 56 48
48 61 78 77 79 85 94 97 98 99 95 91 85 80 78 75 73 77 77 82 96 99 100 98 100 100 100 98 93 89 94 94 92 88 95 93 96 98 94 80 69 54 48
54 53 48 53 74 71 68 70 72 72 71 81 90 93 87 84 78 75 74 73 78 87 96 94 91 98 100 100 99 100 84 87 97 88 97 100 99 100 96 80 65 56 46
34 40 49 50 48 41 44 60 72 74 74 76 86 91 98 89 88 88 79 69 71 82 76 88 98 97 99 99 99 99 99 96 99 96 94 100 100 99 91 79 65 53 46
31 30 31 31 34 42 47 50 49 46 45 52 68 78 88 93 94 95 97 99 92 87 88 92 87 89 93 95 94 92 91 86 87 92 96 100 100 99 87 72 59 55 55
41 41 40 37 34 34 34 31 32 36 43 47 49 49 46 48 58 80 97 100 100 100 100 99 99 98 98 98 99 100 100 100 96 97 100 100 100 94 82 70 65 64 61
37 34 33 37 36 37 40 39 40 38 37 36 36 40 47 56 60 59 60 67 76 84 95 100 100 100 100 100 99 96 92 89 97 100 100 100 98 93 82 74 74 71 64
34 32 29 30 32 29 31 35 35 36 42 47 46 45 44 49 51 50 64 76 83 87 89 87 88 88 91 92 97 99 100 100 100 100 100 100 100 96 87 84 84 81 64
23 24 25 26 27 24 19 21 32 33 31 37 41 42 46 49 51 54 72 87 93 95 98 99 100 98 98 100 100 100 100 100 100 100 99 99 100 100 94 90 94 91 81
20 16 12 12 12 12 16 19 24 24 26 26 24 32 39 41 45 54 62 66 68 73 80 94 95 93 95 97 97 97 98 98 98 98 99 100 100 99 97 97 98 96 91

GFSMW_700_rhum_126.txt.gz
RH
26 28 16 14 20 28 37 57 54 52 55 62 66 79 88 95 92 99 86 77 94 89 79 19 25 26 22 28 41 48 52 52 51 51 51 50 49 51 58 68 72 75 67
29 31 30 19 25 34 39 39 46 51 52 56 64 66 78 91 87 95 98 91 88 99 67 20 25 27 23 38 47 51 52 52 52 51 51 50 49 52 64 77 82 81 72
34 42 52 44 32 43 35 41 45 41 55 55 54 63 66 91 91 97 81 99 90 97 68 22 24 26 24 45 48 52 52 52 51 51 51 50 49 54 73 82 81 85 72
42 38 59 60 38 28 22 22 25 21 33 44 43 53 56 88 96 93 100 90 90 98 73 27 24 27 23 46 52 53 53 52 52 51 51 50 50 60 80 75 64 78 80
60 69 56 63 72 46 31 44 28 51 36 29 44 56 53 88 86 82 86 97 86 100 75 29 22 29 25 48 54 54 53 52 52 52 52 51 55 61 79 74 64 74 65
67 86 70 69 65 65 51 70 68 81 60 45 52 59 67 96 100 99 92 99 99 96 55 29 23 30 28 49 55 55 55 53 53 53 52 56 60 65 72 79 75 73 65
52 68 76 75 77 83 87 89 91 71 66 58 46 61 76 99 100 99 97 99 89 87 75 29 24 31 34 48 56 56 55 54 53 52 53 60 71 70 82 88 76 80 61
76 74 74 81 88 66 73 89 72 78 83 62 50 87 99 100 98 99 98 89 86 74 78 27 25 36 34 47 57 56 56 55 54 52 54 67 72 72 78 75 72 62 51
76 71 80 69 61 75 89 87 99 95 96 88 90 88 97 100 98 100 97 82 48 37 40 32 35 42 38 50 57 55 55 54 53 53 74 69 70 73 69 83 90 70 54
76 74 71 78 75 92 98 99 99 93 86 83 82 86 100 100 100 98 88 47 32 30 30 32 41 50 44 51 52 54 52 52 52 67 75 76 73 73 91 83 78 69 55
84 89 78 94 98 98 100 100 99 100 100 98 91 78 95 99 100 97 85 45 30 28 30 34 48 51 49 45 49 52 49 53 65 71 79 85 81 78 92 95 91 70 51
68 80 91 97 95 99 99 97 89 97 100 97 94 77 74 86 99 98 93 71 42 38 40 42 46 58 50 53 44 44 45 59 73 87 78 99 91 83 95 95 87 69 50
69 80 95 98 100 94 98 97 100 99 97 98 99 98 98 99 95 99 99 99 83 58 60 62 54 73 70 88 64 58 62 68 80 88 76 92 91 88 98 99 90 66 59
78 97 99 99 100 99 100 100 100 100 98 98 100 100 98 100 100 100 100 100 99 100 90 92 92 94 89 79 69 70 73 79 92 98 99 96 99 90 100 98 88 66 61
99 100 100 100 100 98 100 99 100 98 98 99 99 100 100 98 98 98 98 99 100 100 100 100 97 98 93 75 70 74 72 74 89 97 94 100 100 98 100 100 83 79 71
99 100 100 100 100 100 100 99 100 100 100 97 99 100 100 96 100 98 100 100 100 99 99 100 99 99 96 99 100 99 100 100 100 100 100 100 99 100 100 97 91 91 80
100 100 100 100 100 100 100 100 100 100 100 100 99 100 100 100 100 99 99 99 100 100 100 100 100 100 100 100 100 100 100 100 100 100 100 100 100 97 96 93 96 95 89
91 98 96 98 99 100 100 100 100 100 100 100 100 99 100 99 97 93 97 99 100 100 100 100 100 100 100 100 100 100 100 100 100 100 100 100 99 100 99 97 96 96 95
48 52 74 83 77 73 73 77 69 93 92 95 93 95 94 98 97 94 90 92 82 84 98 98 99 98 99 100 100 100 99 99 99 100 100 100 99 93 100 90 99 100 99
42 48 50 50 44 42 56 67 65 68 69 68 69 67 65 61 72 79 80 81 79 78 79 85 90 93 100 100 99 100 99 100 98 100 100 100 100 99 100 100 99 100 97
34 33 38 32 32 40 42 45 44 42 41 41 44 50 56 59 59 60 60 72 67 71 79 80 83 88 90 99 99 99 98 99 98 98 99 99 99 98 100 100 100 99 96
38 38 39 31 28 28 29 28 28 29 33 39 41 42 45 46 46 45 44 42 40 42 53 74 81 99 96 99 94 97 98 98 99 99 97 92 100 100 100 100 100 100 92
29 26 22 20 26 25 25 22 23 29 28 27 28 25 25 27 32 40 48 55 61 56 51 51 57 69 83 97 99 99 99 97 99 99 99 98 99 100 99 100 100 100 95
12 14 17 25 16 18 19 11 9 9 13 23 22 18 23 26 29 34 36 36 36 41 53 63 64 73 84 86 82 80 78 82 87 97 98 98 99 99 99 99 99 99 98
8 7 6 7 7 6 6 5 5 5 4 4 8 9 11 17 21 24 26 30 34 41 46 49 56 63 70 83 96 100 100 100 100 100 100 99 100 100 100 99 98 98 97
8 9 10 10 9 8 7 6 7 6 5 4 4 4 4 7 13 17 18 23 32 36 42 50 59 63 63 65 74 82 88 97 98 97 98 98 98 98 99 99 98 98 98